<?xml version="1.0" encoding="UTF-8" standalone="no" ?>
<gpx xmlns="http://www.topografix.com/GPX/1/1" xmlns:xsi="http://www.w3.org/2001/XMLSchema-instance" xsi:schemaLocation="http://www.topografix.com/GPX/1/1 http://www.topografix.com/GPX/1/1/gpx.xsd" version="1.1" creator="VisuGPX - https://www.visugpx.com">
  <metadata>
    <name>mrt 04 02 2016</name>
    <desc><![CDATA[bon- repos,ecluse st herve,coat liscuit]]></desc>
  </metadata>
  <trk>
    <name><![CDATA[mrt 04 02 2016_1]]></name>
    <trkseg>
      <trkpt lat="48.21321" lon="-3.12846">
        <ele>136</ele>
        <time>2016-02-04T09:45:05Z</time>
      </trkpt>
      <trkpt lat="48.21294" lon="-3.12859">
        <ele>137</ele>
        <time>2016-02-04T09:45:27Z</time>
      </trkpt>
      <trkpt lat="48.21291" lon="-3.12862">
        <ele>137</ele>
        <time>2016-02-04T09:45:31Z</time>
      </trkpt>
      <trkpt lat="48.21287" lon="-3.12866">
        <ele>136</ele>
        <time>2016-02-04T09:45:35Z</time>
      </trkpt>
      <trkpt lat="48.21285" lon="-3.12869">
        <ele>136</ele>
        <time>2016-02-04T09:45:38Z</time>
      </trkpt>
      <trkpt lat="48.21281" lon="-3.12874">
        <ele>136</ele>
        <time>2016-02-04T09:45:42Z</time>
      </trkpt>
      <trkpt lat="48.21278" lon="-3.12877">
        <ele>136</ele>
        <time>2016-02-04T09:45:45Z</time>
      </trkpt>
      <trkpt lat="48.21275" lon="-3.12881">
        <ele>136</ele>
        <time>2016-02-04T09:45:49Z</time>
      </trkpt>
      <trkpt lat="48.21273" lon="-3.12886">
        <ele>135</ele>
        <time>2016-02-04T09:45:52Z</time>
      </trkpt>
      <trkpt lat="48.2127" lon="-3.12891">
        <ele>135</ele>
        <time>2016-02-04T09:45:55Z</time>
      </trkpt>
      <trkpt lat="48.21267" lon="-3.12896">
        <ele>135</ele>
        <time>2016-02-04T09:45:59Z</time>
      </trkpt>
      <trkpt lat="48.21264" lon="-3.12902">
        <ele>135</ele>
        <time>2016-02-04T09:46:02Z</time>
      </trkpt>
      <trkpt lat="48.21261" lon="-3.12908">
        <ele>135</ele>
        <time>2016-02-04T09:46:06Z</time>
      </trkpt>
      <trkpt lat="48.21259" lon="-3.12913">
        <ele>135</ele>
        <time>2016-02-04T09:46:09Z</time>
      </trkpt>
      <trkpt lat="48.21256" lon="-3.12919">
        <ele>135</ele>
        <time>2016-02-04T09:46:13Z</time>
      </trkpt>
      <trkpt lat="48.21253" lon="-3.12924">
        <ele>135</ele>
        <time>2016-02-04T09:46:17Z</time>
      </trkpt>
      <trkpt lat="48.21249" lon="-3.12928">
        <ele>135</ele>
        <time>2016-02-04T09:46:21Z</time>
      </trkpt>
      <trkpt lat="48.21247" lon="-3.12932">
        <ele>135</ele>
        <time>2016-02-04T09:46:24Z</time>
      </trkpt>
      <trkpt lat="48.21244" lon="-3.12938">
        <ele>135</ele>
        <time>2016-02-04T09:46:28Z</time>
      </trkpt>
      <trkpt lat="48.2124" lon="-3.12943">
        <ele>134</ele>
        <time>2016-02-04T09:46:32Z</time>
      </trkpt>
      <trkpt lat="48.21237" lon="-3.12948">
        <ele>133</ele>
        <time>2016-02-04T09:46:36Z</time>
      </trkpt>
      <trkpt lat="48.21235" lon="-3.12955">
        <ele>132</ele>
        <time>2016-02-04T09:46:40Z</time>
      </trkpt>
      <trkpt lat="48.21231" lon="-3.12961">
        <ele>132</ele>
        <time>2016-02-04T09:46:44Z</time>
      </trkpt>
      <trkpt lat="48.21228" lon="-3.12967">
        <ele>132</ele>
        <time>2016-02-04T09:46:48Z</time>
      </trkpt>
      <trkpt lat="48.21225" lon="-3.12972">
        <ele>132</ele>
        <time>2016-02-04T09:46:52Z</time>
      </trkpt>
      <trkpt lat="48.21221" lon="-3.12978">
        <ele>132</ele>
        <time>2016-02-04T09:46:56Z</time>
      </trkpt>
      <trkpt lat="48.21218" lon="-3.12983">
        <ele>132</ele>
        <time>2016-02-04T09:47:00Z</time>
      </trkpt>
      <trkpt lat="48.21215" lon="-3.12989">
        <ele>132</ele>
        <time>2016-02-04T09:47:04Z</time>
      </trkpt>
      <trkpt lat="48.21212" lon="-3.12994">
        <ele>132</ele>
        <time>2016-02-04T09:47:08Z</time>
      </trkpt>
      <trkpt lat="48.21209" lon="-3.12997">
        <ele>131</ele>
        <time>2016-02-04T09:47:12Z</time>
      </trkpt>
      <trkpt lat="48.21208" lon="-3.13001">
        <ele>130</ele>
        <time>2016-02-04T09:47:19Z</time>
      </trkpt>
      <trkpt lat="48.21208" lon="-3.13006">
        <ele>130</ele>
        <time>2016-02-04T09:47:23Z</time>
      </trkpt>
      <trkpt lat="48.21209" lon="-3.13011">
        <ele>130</ele>
        <time>2016-02-04T09:47:27Z</time>
      </trkpt>
      <trkpt lat="48.2121" lon="-3.13011">
        <ele>130</ele>
        <time>2016-02-04T09:47:48Z</time>
      </trkpt>
      <trkpt lat="48.21209" lon="-3.13009">
        <ele>130</ele>
        <time>2016-02-04T09:47:56Z</time>
      </trkpt>
      <trkpt lat="48.21207" lon="-3.13007">
        <ele>130</ele>
        <time>2016-02-04T09:48:00Z</time>
      </trkpt>
      <trkpt lat="48.21202" lon="-3.13006">
        <ele>130</ele>
        <time>2016-02-04T09:48:04Z</time>
      </trkpt>
      <trkpt lat="48.21199" lon="-3.13005">
        <ele>130</ele>
        <time>2016-02-04T09:48:08Z</time>
      </trkpt>
      <trkpt lat="48.21198" lon="-3.13004">
        <ele>130</ele>
        <time>2016-02-04T09:48:11Z</time>
      </trkpt>
      <trkpt lat="48.21151" lon="-3.12993">
        <ele>128</ele>
        <time>2016-02-04T09:48:14Z</time>
      </trkpt>
      <trkpt lat="48.21155" lon="-3.12995">
        <ele>128</ele>
        <time>2016-02-04T09:48:17Z</time>
      </trkpt>
      <trkpt lat="48.21159" lon="-3.12997">
        <ele>128</ele>
        <time>2016-02-04T09:48:20Z</time>
      </trkpt>
      <trkpt lat="48.21163" lon="-3.13">
        <ele>128</ele>
        <time>2016-02-04T09:48:23Z</time>
      </trkpt>
      <trkpt lat="48.21167" lon="-3.13001">
        <ele>128</ele>
        <time>2016-02-04T09:48:26Z</time>
      </trkpt>
      <trkpt lat="48.21172" lon="-3.13003">
        <ele>128</ele>
        <time>2016-02-04T09:48:29Z</time>
      </trkpt>
      <trkpt lat="48.21176" lon="-3.13004">
        <ele>128</ele>
        <time>2016-02-04T09:48:32Z</time>
      </trkpt>
      <trkpt lat="48.21181" lon="-3.13006">
        <ele>128</ele>
        <time>2016-02-04T09:48:36Z</time>
      </trkpt>
      <trkpt lat="48.21185" lon="-3.13007">
        <ele>128</ele>
        <time>2016-02-04T09:48:40Z</time>
      </trkpt>
      <trkpt lat="48.21189" lon="-3.13008">
        <ele>128</ele>
        <time>2016-02-04T09:48:43Z</time>
      </trkpt>
      <trkpt lat="48.21193" lon="-3.13008">
        <ele>128</ele>
        <time>2016-02-04T09:48:46Z</time>
      </trkpt>
      <trkpt lat="48.21198" lon="-3.13007">
        <ele>128</ele>
        <time>2016-02-04T09:48:50Z</time>
      </trkpt>
      <trkpt lat="48.21201" lon="-3.13007">
        <ele>128</ele>
        <time>2016-02-04T09:48:53Z</time>
      </trkpt>
      <trkpt lat="48.21206" lon="-3.13008">
        <ele>128</ele>
        <time>2016-02-04T09:48:56Z</time>
      </trkpt>
      <trkpt lat="48.2121" lon="-3.1301">
        <ele>128</ele>
        <time>2016-02-04T09:49:00Z</time>
      </trkpt>
      <trkpt lat="48.21211" lon="-3.13014">
        <ele>128</ele>
        <time>2016-02-04T09:49:03Z</time>
      </trkpt>
      <trkpt lat="48.21213" lon="-3.13019">
        <ele>128</ele>
        <time>2016-02-04T09:49:06Z</time>
      </trkpt>
      <trkpt lat="48.21217" lon="-3.1302">
        <ele>128</ele>
        <time>2016-02-04T09:49:09Z</time>
      </trkpt>
      <trkpt lat="48.21221" lon="-3.1302">
        <ele>130</ele>
        <time>2016-02-04T09:49:12Z</time>
      </trkpt>
      <trkpt lat="48.21224" lon="-3.1302">
        <ele>133</ele>
        <time>2016-02-04T09:49:15Z</time>
      </trkpt>
      <trkpt lat="48.21225" lon="-3.13021">
        <ele>138</ele>
        <time>2016-02-04T09:49:20Z</time>
      </trkpt>
      <trkpt lat="48.21226" lon="-3.13023">
        <ele>140</ele>
        <time>2016-02-04T09:49:23Z</time>
      </trkpt>
      <trkpt lat="48.21226" lon="-3.13026">
        <ele>141</ele>
        <time>2016-02-04T09:49:26Z</time>
      </trkpt>
      <trkpt lat="48.21223" lon="-3.1303">
        <ele>142</ele>
        <time>2016-02-04T09:49:31Z</time>
      </trkpt>
      <trkpt lat="48.21222" lon="-3.13027">
        <ele>142</ele>
        <time>2016-02-04T09:49:34Z</time>
      </trkpt>
      <trkpt lat="48.21223" lon="-3.13021">
        <ele>142</ele>
        <time>2016-02-04T09:49:38Z</time>
      </trkpt>
      <trkpt lat="48.21226" lon="-3.13018">
        <ele>142</ele>
        <time>2016-02-04T09:49:42Z</time>
      </trkpt>
      <trkpt lat="48.21229" lon="-3.13019">
        <ele>142</ele>
        <time>2016-02-04T09:49:45Z</time>
      </trkpt>
      <trkpt lat="48.21232" lon="-3.13024">
        <ele>140</ele>
        <time>2016-02-04T09:49:49Z</time>
      </trkpt>
      <trkpt lat="48.21234" lon="-3.1303">
        <ele>138</ele>
        <time>2016-02-04T09:49:53Z</time>
      </trkpt>
      <trkpt lat="48.21237" lon="-3.13034">
        <ele>137</ele>
        <time>2016-02-04T09:49:57Z</time>
      </trkpt>
      <trkpt lat="48.21239" lon="-3.13039">
        <ele>136</ele>
        <time>2016-02-04T09:50:01Z</time>
      </trkpt>
      <trkpt lat="48.21243" lon="-3.13044">
        <ele>136</ele>
        <time>2016-02-04T09:50:05Z</time>
      </trkpt>
      <trkpt lat="48.21246" lon="-3.13048">
        <ele>134</ele>
        <time>2016-02-04T09:50:09Z</time>
      </trkpt>
      <trkpt lat="48.21248" lon="-3.13052">
        <ele>134</ele>
        <time>2016-02-04T09:50:14Z</time>
      </trkpt>
      <trkpt lat="48.21249" lon="-3.13053">
        <ele>134</ele>
        <time>2016-02-04T09:50:18Z</time>
      </trkpt>
      <trkpt lat="48.21252" lon="-3.13056">
        <ele>134</ele>
        <time>2016-02-04T09:50:21Z</time>
      </trkpt>
      <trkpt lat="48.21257" lon="-3.13061">
        <ele>134</ele>
        <time>2016-02-04T09:50:25Z</time>
      </trkpt>
      <trkpt lat="48.2126" lon="-3.13065">
        <ele>135</ele>
        <time>2016-02-04T09:50:28Z</time>
      </trkpt>
      <trkpt lat="48.21264" lon="-3.13069">
        <ele>135</ele>
        <time>2016-02-04T09:50:31Z</time>
      </trkpt>
      <trkpt lat="48.21267" lon="-3.13072">
        <ele>135</ele>
        <time>2016-02-04T09:50:34Z</time>
      </trkpt>
      <trkpt lat="48.2127" lon="-3.13074">
        <ele>135</ele>
        <time>2016-02-04T09:50:38Z</time>
      </trkpt>
      <trkpt lat="48.21271" lon="-3.13076">
        <ele>135</ele>
        <time>2016-02-04T09:50:41Z</time>
      </trkpt>
      <trkpt lat="48.21273" lon="-3.13078">
        <ele>135</ele>
        <time>2016-02-04T09:50:44Z</time>
      </trkpt>
      <trkpt lat="48.21279" lon="-3.13083">
        <ele>135</ele>
        <time>2016-02-04T09:50:47Z</time>
      </trkpt>
      <trkpt lat="48.21283" lon="-3.13089">
        <ele>135</ele>
        <time>2016-02-04T09:50:51Z</time>
      </trkpt>
      <trkpt lat="48.21288" lon="-3.13093">
        <ele>135</ele>
        <time>2016-02-04T09:50:54Z</time>
      </trkpt>
      <trkpt lat="48.21289" lon="-3.13096">
        <ele>135</ele>
        <time>2016-02-04T09:50:57Z</time>
      </trkpt>
      <trkpt lat="48.21294" lon="-3.13101">
        <ele>135</ele>
        <time>2016-02-04T09:51:00Z</time>
      </trkpt>
      <trkpt lat="48.21299" lon="-3.13104">
        <ele>135</ele>
        <time>2016-02-04T09:51:03Z</time>
      </trkpt>
      <trkpt lat="48.21303" lon="-3.13109">
        <ele>135</ele>
        <time>2016-02-04T09:51:07Z</time>
      </trkpt>
      <trkpt lat="48.21305" lon="-3.13113">
        <ele>135</ele>
        <time>2016-02-04T09:51:10Z</time>
      </trkpt>
      <trkpt lat="48.21309" lon="-3.13118">
        <ele>134</ele>
        <time>2016-02-04T09:51:14Z</time>
      </trkpt>
      <trkpt lat="48.21312" lon="-3.13121">
        <ele>132</ele>
        <time>2016-02-04T09:51:17Z</time>
      </trkpt>
      <trkpt lat="48.21316" lon="-3.13126">
        <ele>132</ele>
        <time>2016-02-04T09:51:21Z</time>
      </trkpt>
      <trkpt lat="48.2132" lon="-3.13131">
        <ele>132</ele>
        <time>2016-02-04T09:51:25Z</time>
      </trkpt>
      <trkpt lat="48.21323" lon="-3.13136">
        <ele>132</ele>
        <time>2016-02-04T09:51:29Z</time>
      </trkpt>
      <trkpt lat="48.21328" lon="-3.1314">
        <ele>131</ele>
        <time>2016-02-04T09:51:32Z</time>
      </trkpt>
      <trkpt lat="48.21331" lon="-3.13146">
        <ele>129</ele>
        <time>2016-02-04T09:51:36Z</time>
      </trkpt>
      <trkpt lat="48.21334" lon="-3.13151">
        <ele>128</ele>
        <time>2016-02-04T09:51:39Z</time>
      </trkpt>
      <trkpt lat="48.21338" lon="-3.13157">
        <ele>127</ele>
        <time>2016-02-04T09:51:43Z</time>
      </trkpt>
      <trkpt lat="48.2134" lon="-3.13161">
        <ele>127</ele>
        <time>2016-02-04T09:51:46Z</time>
      </trkpt>
      <trkpt lat="48.21343" lon="-3.13166">
        <ele>127</ele>
        <time>2016-02-04T09:51:49Z</time>
      </trkpt>
      <trkpt lat="48.21347" lon="-3.13171">
        <ele>127</ele>
        <time>2016-02-04T09:51:52Z</time>
      </trkpt>
      <trkpt lat="48.21352" lon="-3.13177">
        <ele>127</ele>
        <time>2016-02-04T09:51:56Z</time>
      </trkpt>
      <trkpt lat="48.21355" lon="-3.13184">
        <ele>127</ele>
        <time>2016-02-04T09:52:00Z</time>
      </trkpt>
      <trkpt lat="48.21358" lon="-3.1319">
        <ele>127</ele>
        <time>2016-02-04T09:52:03Z</time>
      </trkpt>
      <trkpt lat="48.2136" lon="-3.13195">
        <ele>127</ele>
        <time>2016-02-04T09:52:06Z</time>
      </trkpt>
      <trkpt lat="48.21363" lon="-3.13201">
        <ele>127</ele>
        <time>2016-02-04T09:52:09Z</time>
      </trkpt>
      <trkpt lat="48.21365" lon="-3.13209">
        <ele>127</ele>
        <time>2016-02-04T09:52:13Z</time>
      </trkpt>
      <trkpt lat="48.21367" lon="-3.13214">
        <ele>127</ele>
        <time>2016-02-04T09:52:16Z</time>
      </trkpt>
      <trkpt lat="48.21368" lon="-3.13221">
        <ele>127</ele>
        <time>2016-02-04T09:52:19Z</time>
      </trkpt>
      <trkpt lat="48.2137" lon="-3.13227">
        <ele>127</ele>
        <time>2016-02-04T09:52:22Z</time>
      </trkpt>
      <trkpt lat="48.21372" lon="-3.13232">
        <ele>127</ele>
        <time>2016-02-04T09:52:25Z</time>
      </trkpt>
      <trkpt lat="48.21375" lon="-3.13238">
        <ele>127</ele>
        <time>2016-02-04T09:52:28Z</time>
      </trkpt>
      <trkpt lat="48.21377" lon="-3.13244">
        <ele>127</ele>
        <time>2016-02-04T09:52:31Z</time>
      </trkpt>
      <trkpt lat="48.21379" lon="-3.1325">
        <ele>129</ele>
        <time>2016-02-04T09:52:34Z</time>
      </trkpt>
      <trkpt lat="48.2138" lon="-3.13257">
        <ele>130</ele>
        <time>2016-02-04T09:52:37Z</time>
      </trkpt>
      <trkpt lat="48.21382" lon="-3.13263">
        <ele>132</ele>
        <time>2016-02-04T09:52:40Z</time>
      </trkpt>
      <trkpt lat="48.21382" lon="-3.1327">
        <ele>133</ele>
        <time>2016-02-04T09:52:43Z</time>
      </trkpt>
      <trkpt lat="48.21381" lon="-3.13278">
        <ele>135</ele>
        <time>2016-02-04T09:52:46Z</time>
      </trkpt>
      <trkpt lat="48.21382" lon="-3.13285">
        <ele>137</ele>
        <time>2016-02-04T09:52:49Z</time>
      </trkpt>
      <trkpt lat="48.21383" lon="-3.1329">
        <ele>139</ele>
        <time>2016-02-04T09:52:52Z</time>
      </trkpt>
      <trkpt lat="48.21384" lon="-3.13297">
        <ele>140</ele>
        <time>2016-02-04T09:52:55Z</time>
      </trkpt>
      <trkpt lat="48.21385" lon="-3.13304">
        <ele>143</ele>
        <time>2016-02-04T09:52:58Z</time>
      </trkpt>
      <trkpt lat="48.21386" lon="-3.1331">
        <ele>144</ele>
        <time>2016-02-04T09:53:01Z</time>
      </trkpt>
      <trkpt lat="48.21388" lon="-3.13316">
        <ele>146</ele>
        <time>2016-02-04T09:53:04Z</time>
      </trkpt>
      <trkpt lat="48.21389" lon="-3.13322">
        <ele>148</ele>
        <time>2016-02-04T09:53:07Z</time>
      </trkpt>
      <trkpt lat="48.2139" lon="-3.13329">
        <ele>150</ele>
        <time>2016-02-04T09:53:10Z</time>
      </trkpt>
      <trkpt lat="48.21389" lon="-3.13335">
        <ele>150</ele>
        <time>2016-02-04T09:53:13Z</time>
      </trkpt>
      <trkpt lat="48.21387" lon="-3.13342">
        <ele>150</ele>
        <time>2016-02-04T09:53:16Z</time>
      </trkpt>
      <trkpt lat="48.21385" lon="-3.13348">
        <ele>150</ele>
        <time>2016-02-04T09:53:19Z</time>
      </trkpt>
      <trkpt lat="48.21384" lon="-3.13355">
        <ele>150</ele>
        <time>2016-02-04T09:53:22Z</time>
      </trkpt>
      <trkpt lat="48.21384" lon="-3.13362">
        <ele>148</ele>
        <time>2016-02-04T09:53:25Z</time>
      </trkpt>
      <trkpt lat="48.21384" lon="-3.1337">
        <ele>148</ele>
        <time>2016-02-04T09:53:28Z</time>
      </trkpt>
      <trkpt lat="48.21382" lon="-3.13376">
        <ele>148</ele>
        <time>2016-02-04T09:53:31Z</time>
      </trkpt>
      <trkpt lat="48.21382" lon="-3.13383">
        <ele>148</ele>
        <time>2016-02-04T09:53:34Z</time>
      </trkpt>
      <trkpt lat="48.21382" lon="-3.1339">
        <ele>147</ele>
        <time>2016-02-04T09:53:37Z</time>
      </trkpt>
      <trkpt lat="48.21383" lon="-3.13397">
        <ele>147</ele>
        <time>2016-02-04T09:53:40Z</time>
      </trkpt>
      <trkpt lat="48.21384" lon="-3.13404">
        <ele>147</ele>
        <time>2016-02-04T09:53:43Z</time>
      </trkpt>
      <trkpt lat="48.21384" lon="-3.13409">
        <ele>147</ele>
        <time>2016-02-04T09:53:46Z</time>
      </trkpt>
      <trkpt lat="48.21384" lon="-3.13415">
        <ele>146</ele>
        <time>2016-02-04T09:53:49Z</time>
      </trkpt>
      <trkpt lat="48.21385" lon="-3.13421">
        <ele>144</ele>
        <time>2016-02-04T09:53:52Z</time>
      </trkpt>
      <trkpt lat="48.21386" lon="-3.13426">
        <ele>144</ele>
        <time>2016-02-04T09:53:55Z</time>
      </trkpt>
      <trkpt lat="48.21386" lon="-3.13433">
        <ele>143</ele>
        <time>2016-02-04T09:53:58Z</time>
      </trkpt>
      <trkpt lat="48.21388" lon="-3.13439">
        <ele>142</ele>
        <time>2016-02-04T09:54:01Z</time>
      </trkpt>
      <trkpt lat="48.21388" lon="-3.13446">
        <ele>141</ele>
        <time>2016-02-04T09:54:04Z</time>
      </trkpt>
      <trkpt lat="48.21389" lon="-3.13452">
        <ele>140</ele>
        <time>2016-02-04T09:54:07Z</time>
      </trkpt>
      <trkpt lat="48.2139" lon="-3.13458">
        <ele>140</ele>
        <time>2016-02-04T09:54:10Z</time>
      </trkpt>
      <trkpt lat="48.21393" lon="-3.13463">
        <ele>140</ele>
        <time>2016-02-04T09:54:13Z</time>
      </trkpt>
      <trkpt lat="48.21394" lon="-3.1347">
        <ele>140</ele>
        <time>2016-02-04T09:54:16Z</time>
      </trkpt>
      <trkpt lat="48.21393" lon="-3.13477">
        <ele>140</ele>
        <time>2016-02-04T09:54:19Z</time>
      </trkpt>
      <trkpt lat="48.21393" lon="-3.13485">
        <ele>140</ele>
        <time>2016-02-04T09:54:22Z</time>
      </trkpt>
      <trkpt lat="48.21392" lon="-3.13492">
        <ele>140</ele>
        <time>2016-02-04T09:54:25Z</time>
      </trkpt>
      <trkpt lat="48.21392" lon="-3.13498">
        <ele>139</ele>
        <time>2016-02-04T09:54:28Z</time>
      </trkpt>
      <trkpt lat="48.21392" lon="-3.13504">
        <ele>138</ele>
        <time>2016-02-04T09:54:31Z</time>
      </trkpt>
      <trkpt lat="48.21394" lon="-3.13511">
        <ele>138</ele>
        <time>2016-02-04T09:54:34Z</time>
      </trkpt>
      <trkpt lat="48.21396" lon="-3.13517">
        <ele>138</ele>
        <time>2016-02-04T09:54:37Z</time>
      </trkpt>
      <trkpt lat="48.21396" lon="-3.13524">
        <ele>138</ele>
        <time>2016-02-04T09:54:40Z</time>
      </trkpt>
      <trkpt lat="48.21397" lon="-3.13531">
        <ele>138</ele>
        <time>2016-02-04T09:54:43Z</time>
      </trkpt>
      <trkpt lat="48.21398" lon="-3.13539">
        <ele>138</ele>
        <time>2016-02-04T09:54:46Z</time>
      </trkpt>
      <trkpt lat="48.21397" lon="-3.13546">
        <ele>139</ele>
        <time>2016-02-04T09:54:49Z</time>
      </trkpt>
      <trkpt lat="48.21397" lon="-3.13552">
        <ele>139</ele>
        <time>2016-02-04T09:54:52Z</time>
      </trkpt>
      <trkpt lat="48.21397" lon="-3.13559">
        <ele>139</ele>
        <time>2016-02-04T09:54:55Z</time>
      </trkpt>
      <trkpt lat="48.21397" lon="-3.13565">
        <ele>139</ele>
        <time>2016-02-04T09:54:58Z</time>
      </trkpt>
      <trkpt lat="48.21397" lon="-3.1357">
        <ele>139</ele>
        <time>2016-02-04T09:55:01Z</time>
      </trkpt>
      <trkpt lat="48.21399" lon="-3.13576">
        <ele>139</ele>
        <time>2016-02-04T09:55:04Z</time>
      </trkpt>
      <trkpt lat="48.21398" lon="-3.13582">
        <ele>139</ele>
        <time>2016-02-04T09:55:07Z</time>
      </trkpt>
      <trkpt lat="48.21397" lon="-3.13589">
        <ele>138</ele>
        <time>2016-02-04T09:55:10Z</time>
      </trkpt>
      <trkpt lat="48.21397" lon="-3.13595">
        <ele>137</ele>
        <time>2016-02-04T09:55:13Z</time>
      </trkpt>
      <trkpt lat="48.21397" lon="-3.13602">
        <ele>135</ele>
        <time>2016-02-04T09:55:16Z</time>
      </trkpt>
      <trkpt lat="48.21396" lon="-3.13608">
        <ele>134</ele>
        <time>2016-02-04T09:55:19Z</time>
      </trkpt>
      <trkpt lat="48.21396" lon="-3.13615">
        <ele>133</ele>
        <time>2016-02-04T09:55:22Z</time>
      </trkpt>
      <trkpt lat="48.21397" lon="-3.13621">
        <ele>133</ele>
        <time>2016-02-04T09:55:25Z</time>
      </trkpt>
      <trkpt lat="48.21397" lon="-3.13628">
        <ele>133</ele>
        <time>2016-02-04T09:55:28Z</time>
      </trkpt>
      <trkpt lat="48.21397" lon="-3.13634">
        <ele>132</ele>
        <time>2016-02-04T09:55:31Z</time>
      </trkpt>
      <trkpt lat="48.21397" lon="-3.13641">
        <ele>132</ele>
        <time>2016-02-04T09:55:34Z</time>
      </trkpt>
      <trkpt lat="48.21398" lon="-3.13647">
        <ele>132</ele>
        <time>2016-02-04T09:55:37Z</time>
      </trkpt>
      <trkpt lat="48.21398" lon="-3.13653">
        <ele>132</ele>
        <time>2016-02-04T09:55:40Z</time>
      </trkpt>
      <trkpt lat="48.21399" lon="-3.1366">
        <ele>132</ele>
        <time>2016-02-04T09:55:43Z</time>
      </trkpt>
      <trkpt lat="48.21399" lon="-3.13667">
        <ele>132</ele>
        <time>2016-02-04T09:55:46Z</time>
      </trkpt>
      <trkpt lat="48.214" lon="-3.13673">
        <ele>132</ele>
        <time>2016-02-04T09:55:49Z</time>
      </trkpt>
      <trkpt lat="48.21401" lon="-3.13679">
        <ele>132</ele>
        <time>2016-02-04T09:55:52Z</time>
      </trkpt>
      <trkpt lat="48.21402" lon="-3.13686">
        <ele>132</ele>
        <time>2016-02-04T09:55:55Z</time>
      </trkpt>
      <trkpt lat="48.21404" lon="-3.13692">
        <ele>132</ele>
        <time>2016-02-04T09:55:58Z</time>
      </trkpt>
      <trkpt lat="48.21405" lon="-3.13697">
        <ele>132</ele>
        <time>2016-02-04T09:56:01Z</time>
      </trkpt>
      <trkpt lat="48.21407" lon="-3.13703">
        <ele>132</ele>
        <time>2016-02-04T09:56:04Z</time>
      </trkpt>
      <trkpt lat="48.21409" lon="-3.13709">
        <ele>132</ele>
        <time>2016-02-04T09:56:07Z</time>
      </trkpt>
      <trkpt lat="48.21411" lon="-3.13715">
        <ele>132</ele>
        <time>2016-02-04T09:56:10Z</time>
      </trkpt>
      <trkpt lat="48.21413" lon="-3.1372">
        <ele>132</ele>
        <time>2016-02-04T09:56:13Z</time>
      </trkpt>
      <trkpt lat="48.21415" lon="-3.13726">
        <ele>132</ele>
        <time>2016-02-04T09:56:16Z</time>
      </trkpt>
      <trkpt lat="48.21417" lon="-3.13732">
        <ele>131</ele>
        <time>2016-02-04T09:56:19Z</time>
      </trkpt>
      <trkpt lat="48.21418" lon="-3.13738">
        <ele>131</ele>
        <time>2016-02-04T09:56:22Z</time>
      </trkpt>
      <trkpt lat="48.2142" lon="-3.13744">
        <ele>131</ele>
        <time>2016-02-04T09:56:25Z</time>
      </trkpt>
      <trkpt lat="48.21422" lon="-3.1375">
        <ele>130</ele>
        <time>2016-02-04T09:56:28Z</time>
      </trkpt>
      <trkpt lat="48.21423" lon="-3.13756">
        <ele>130</ele>
        <time>2016-02-04T09:56:31Z</time>
      </trkpt>
      <trkpt lat="48.21424" lon="-3.13762">
        <ele>130</ele>
        <time>2016-02-04T09:56:34Z</time>
      </trkpt>
      <trkpt lat="48.21425" lon="-3.13768">
        <ele>130</ele>
        <time>2016-02-04T09:56:37Z</time>
      </trkpt>
      <trkpt lat="48.21426" lon="-3.13774">
        <ele>130</ele>
        <time>2016-02-04T09:56:40Z</time>
      </trkpt>
      <trkpt lat="48.21428" lon="-3.13781">
        <ele>130</ele>
        <time>2016-02-04T09:56:43Z</time>
      </trkpt>
      <trkpt lat="48.21429" lon="-3.13787">
        <ele>130</ele>
        <time>2016-02-04T09:56:46Z</time>
      </trkpt>
      <trkpt lat="48.2143" lon="-3.13793">
        <ele>130</ele>
        <time>2016-02-04T09:56:49Z</time>
      </trkpt>
      <trkpt lat="48.21431" lon="-3.138">
        <ele>130</ele>
        <time>2016-02-04T09:56:52Z</time>
      </trkpt>
      <trkpt lat="48.21431" lon="-3.13806">
        <ele>130</ele>
        <time>2016-02-04T09:56:55Z</time>
      </trkpt>
      <trkpt lat="48.21432" lon="-3.13812">
        <ele>130</ele>
        <time>2016-02-04T09:56:58Z</time>
      </trkpt>
      <trkpt lat="48.21432" lon="-3.13819">
        <ele>130</ele>
        <time>2016-02-04T09:57:01Z</time>
      </trkpt>
      <trkpt lat="48.21432" lon="-3.13825">
        <ele>130</ele>
        <time>2016-02-04T09:57:04Z</time>
      </trkpt>
      <trkpt lat="48.21433" lon="-3.13831">
        <ele>130</ele>
        <time>2016-02-04T09:57:07Z</time>
      </trkpt>
      <trkpt lat="48.21433" lon="-3.13837">
        <ele>130</ele>
        <time>2016-02-04T09:57:10Z</time>
      </trkpt>
      <trkpt lat="48.21433" lon="-3.13843">
        <ele>130</ele>
        <time>2016-02-04T09:57:13Z</time>
      </trkpt>
      <trkpt lat="48.21434" lon="-3.13849">
        <ele>130</ele>
        <time>2016-02-04T09:57:16Z</time>
      </trkpt>
      <trkpt lat="48.21434" lon="-3.13856">
        <ele>130</ele>
        <time>2016-02-04T09:57:19Z</time>
      </trkpt>
      <trkpt lat="48.21434" lon="-3.13862">
        <ele>130</ele>
        <time>2016-02-04T09:57:22Z</time>
      </trkpt>
      <trkpt lat="48.21434" lon="-3.13869">
        <ele>130</ele>
        <time>2016-02-04T09:57:25Z</time>
      </trkpt>
      <trkpt lat="48.21434" lon="-3.13875">
        <ele>130</ele>
        <time>2016-02-04T09:57:28Z</time>
      </trkpt>
      <trkpt lat="48.21434" lon="-3.13881">
        <ele>130</ele>
        <time>2016-02-04T09:57:31Z</time>
      </trkpt>
      <trkpt lat="48.21434" lon="-3.13888">
        <ele>130</ele>
        <time>2016-02-04T09:57:34Z</time>
      </trkpt>
      <trkpt lat="48.21434" lon="-3.13894">
        <ele>130</ele>
        <time>2016-02-04T09:57:37Z</time>
      </trkpt>
      <trkpt lat="48.21434" lon="-3.13901">
        <ele>130</ele>
        <time>2016-02-04T09:57:40Z</time>
      </trkpt>
      <trkpt lat="48.21434" lon="-3.13907">
        <ele>130</ele>
        <time>2016-02-04T09:57:43Z</time>
      </trkpt>
      <trkpt lat="48.21434" lon="-3.13914">
        <ele>130</ele>
        <time>2016-02-04T09:57:46Z</time>
      </trkpt>
      <trkpt lat="48.21434" lon="-3.1392">
        <ele>130</ele>
        <time>2016-02-04T09:57:49Z</time>
      </trkpt>
      <trkpt lat="48.21434" lon="-3.13927">
        <ele>130</ele>
        <time>2016-02-04T09:57:52Z</time>
      </trkpt>
      <trkpt lat="48.21434" lon="-3.13933">
        <ele>130</ele>
        <time>2016-02-04T09:57:55Z</time>
      </trkpt>
      <trkpt lat="48.21434" lon="-3.13939">
        <ele>130</ele>
        <time>2016-02-04T09:57:58Z</time>
      </trkpt>
      <trkpt lat="48.21434" lon="-3.13946">
        <ele>130</ele>
        <time>2016-02-04T09:58:01Z</time>
      </trkpt>
      <trkpt lat="48.21434" lon="-3.13952">
        <ele>130</ele>
        <time>2016-02-04T09:58:04Z</time>
      </trkpt>
      <trkpt lat="48.21435" lon="-3.13958">
        <ele>130</ele>
        <time>2016-02-04T09:58:07Z</time>
      </trkpt>
      <trkpt lat="48.21435" lon="-3.13965">
        <ele>130</ele>
        <time>2016-02-04T09:58:10Z</time>
      </trkpt>
      <trkpt lat="48.21436" lon="-3.13971">
        <ele>130</ele>
        <time>2016-02-04T09:58:13Z</time>
      </trkpt>
      <trkpt lat="48.21436" lon="-3.13978">
        <ele>130</ele>
        <time>2016-02-04T09:58:16Z</time>
      </trkpt>
      <trkpt lat="48.21436" lon="-3.13984">
        <ele>130</ele>
        <time>2016-02-04T09:58:19Z</time>
      </trkpt>
      <trkpt lat="48.21436" lon="-3.1399">
        <ele>130</ele>
        <time>2016-02-04T09:58:22Z</time>
      </trkpt>
      <trkpt lat="48.21437" lon="-3.13997">
        <ele>130</ele>
        <time>2016-02-04T09:58:25Z</time>
      </trkpt>
      <trkpt lat="48.21437" lon="-3.14003">
        <ele>130</ele>
        <time>2016-02-04T09:58:28Z</time>
      </trkpt>
      <trkpt lat="48.21438" lon="-3.1401">
        <ele>130</ele>
        <time>2016-02-04T09:58:31Z</time>
      </trkpt>
      <trkpt lat="48.21439" lon="-3.14016">
        <ele>130</ele>
        <time>2016-02-04T09:58:34Z</time>
      </trkpt>
      <trkpt lat="48.21439" lon="-3.14023">
        <ele>130</ele>
        <time>2016-02-04T09:58:37Z</time>
      </trkpt>
      <trkpt lat="48.2144" lon="-3.1403">
        <ele>130</ele>
        <time>2016-02-04T09:58:40Z</time>
      </trkpt>
      <trkpt lat="48.21441" lon="-3.14036">
        <ele>130</ele>
        <time>2016-02-04T09:58:43Z</time>
      </trkpt>
      <trkpt lat="48.21442" lon="-3.14043">
        <ele>130</ele>
        <time>2016-02-04T09:58:46Z</time>
      </trkpt>
      <trkpt lat="48.21442" lon="-3.14049">
        <ele>130</ele>
        <time>2016-02-04T09:58:49Z</time>
      </trkpt>
      <trkpt lat="48.21443" lon="-3.14055">
        <ele>130</ele>
        <time>2016-02-04T09:58:52Z</time>
      </trkpt>
      <trkpt lat="48.21444" lon="-3.14062">
        <ele>130</ele>
        <time>2016-02-04T09:58:55Z</time>
      </trkpt>
      <trkpt lat="48.21444" lon="-3.14069">
        <ele>130</ele>
        <time>2016-02-04T09:58:58Z</time>
      </trkpt>
      <trkpt lat="48.21445" lon="-3.14075">
        <ele>130</ele>
        <time>2016-02-04T09:59:01Z</time>
      </trkpt>
      <trkpt lat="48.21445" lon="-3.14081">
        <ele>130</ele>
        <time>2016-02-04T09:59:04Z</time>
      </trkpt>
      <trkpt lat="48.21446" lon="-3.14088">
        <ele>130</ele>
        <time>2016-02-04T09:59:07Z</time>
      </trkpt>
      <trkpt lat="48.21446" lon="-3.14094">
        <ele>130</ele>
        <time>2016-02-04T09:59:10Z</time>
      </trkpt>
      <trkpt lat="48.21445" lon="-3.141">
        <ele>130</ele>
        <time>2016-02-04T09:59:13Z</time>
      </trkpt>
      <trkpt lat="48.21445" lon="-3.14107">
        <ele>130</ele>
        <time>2016-02-04T09:59:16Z</time>
      </trkpt>
      <trkpt lat="48.21444" lon="-3.14113">
        <ele>130</ele>
        <time>2016-02-04T09:59:19Z</time>
      </trkpt>
      <trkpt lat="48.21444" lon="-3.14119">
        <ele>130</ele>
        <time>2016-02-04T09:59:22Z</time>
      </trkpt>
      <trkpt lat="48.21443" lon="-3.14126">
        <ele>130</ele>
        <time>2016-02-04T09:59:25Z</time>
      </trkpt>
      <trkpt lat="48.21442" lon="-3.14132">
        <ele>130</ele>
        <time>2016-02-04T09:59:28Z</time>
      </trkpt>
      <trkpt lat="48.21441" lon="-3.14138">
        <ele>130</ele>
        <time>2016-02-04T09:59:31Z</time>
      </trkpt>
      <trkpt lat="48.2144" lon="-3.14144">
        <ele>130</ele>
        <time>2016-02-04T09:59:34Z</time>
      </trkpt>
      <trkpt lat="48.21439" lon="-3.1415">
        <ele>130</ele>
        <time>2016-02-04T09:59:37Z</time>
      </trkpt>
      <trkpt lat="48.21438" lon="-3.14157">
        <ele>130</ele>
        <time>2016-02-04T09:59:40Z</time>
      </trkpt>
      <trkpt lat="48.21437" lon="-3.14163">
        <ele>130</ele>
        <time>2016-02-04T09:59:43Z</time>
      </trkpt>
      <trkpt lat="48.21436" lon="-3.14169">
        <ele>130</ele>
        <time>2016-02-04T09:59:46Z</time>
      </trkpt>
      <trkpt lat="48.21436" lon="-3.14176">
        <ele>130</ele>
        <time>2016-02-04T09:59:49Z</time>
      </trkpt>
      <trkpt lat="48.21436" lon="-3.14183">
        <ele>130</ele>
        <time>2016-02-04T09:59:52Z</time>
      </trkpt>
      <trkpt lat="48.21436" lon="-3.1419">
        <ele>130</ele>
        <time>2016-02-04T09:59:55Z</time>
      </trkpt>
      <trkpt lat="48.21436" lon="-3.14196">
        <ele>130</ele>
        <time>2016-02-04T09:59:58Z</time>
      </trkpt>
      <trkpt lat="48.21436" lon="-3.14203">
        <ele>130</ele>
        <time>2016-02-04T10:00:01Z</time>
      </trkpt>
      <trkpt lat="48.21437" lon="-3.14209">
        <ele>130</ele>
        <time>2016-02-04T10:00:04Z</time>
      </trkpt>
      <trkpt lat="48.21438" lon="-3.14215">
        <ele>130</ele>
        <time>2016-02-04T10:00:07Z</time>
      </trkpt>
      <trkpt lat="48.21439" lon="-3.14222">
        <ele>130</ele>
        <time>2016-02-04T10:00:10Z</time>
      </trkpt>
      <trkpt lat="48.21441" lon="-3.14228">
        <ele>130</ele>
        <time>2016-02-04T10:00:13Z</time>
      </trkpt>
      <trkpt lat="48.21442" lon="-3.14234">
        <ele>130</ele>
        <time>2016-02-04T10:00:16Z</time>
      </trkpt>
      <trkpt lat="48.21443" lon="-3.14241">
        <ele>130</ele>
        <time>2016-02-04T10:00:19Z</time>
      </trkpt>
      <trkpt lat="48.21444" lon="-3.14247">
        <ele>130</ele>
        <time>2016-02-04T10:00:22Z</time>
      </trkpt>
      <trkpt lat="48.21446" lon="-3.14252">
        <ele>130</ele>
        <time>2016-02-04T10:00:25Z</time>
      </trkpt>
      <trkpt lat="48.21448" lon="-3.14259">
        <ele>130</ele>
        <time>2016-02-04T10:00:28Z</time>
      </trkpt>
      <trkpt lat="48.21449" lon="-3.14264">
        <ele>130</ele>
        <time>2016-02-04T10:00:31Z</time>
      </trkpt>
      <trkpt lat="48.2145" lon="-3.1427">
        <ele>130</ele>
        <time>2016-02-04T10:00:34Z</time>
      </trkpt>
      <trkpt lat="48.21451" lon="-3.14276">
        <ele>130</ele>
        <time>2016-02-04T10:00:37Z</time>
      </trkpt>
      <trkpt lat="48.21452" lon="-3.14283">
        <ele>130</ele>
        <time>2016-02-04T10:00:40Z</time>
      </trkpt>
      <trkpt lat="48.21452" lon="-3.14289">
        <ele>130</ele>
        <time>2016-02-04T10:00:43Z</time>
      </trkpt>
      <trkpt lat="48.21453" lon="-3.14296">
        <ele>130</ele>
        <time>2016-02-04T10:00:46Z</time>
      </trkpt>
      <trkpt lat="48.21453" lon="-3.14302">
        <ele>130</ele>
        <time>2016-02-04T10:00:49Z</time>
      </trkpt>
      <trkpt lat="48.21453" lon="-3.14309">
        <ele>130</ele>
        <time>2016-02-04T10:00:52Z</time>
      </trkpt>
      <trkpt lat="48.21453" lon="-3.14316">
        <ele>130</ele>
        <time>2016-02-04T10:00:55Z</time>
      </trkpt>
      <trkpt lat="48.21453" lon="-3.14322">
        <ele>130</ele>
        <time>2016-02-04T10:00:58Z</time>
      </trkpt>
      <trkpt lat="48.21453" lon="-3.14329">
        <ele>130</ele>
        <time>2016-02-04T10:01:01Z</time>
      </trkpt>
      <trkpt lat="48.21453" lon="-3.14335">
        <ele>130</ele>
        <time>2016-02-04T10:01:04Z</time>
      </trkpt>
      <trkpt lat="48.21453" lon="-3.14342">
        <ele>130</ele>
        <time>2016-02-04T10:01:07Z</time>
      </trkpt>
      <trkpt lat="48.21452" lon="-3.14349">
        <ele>130</ele>
        <time>2016-02-04T10:01:10Z</time>
      </trkpt>
      <trkpt lat="48.21451" lon="-3.14356">
        <ele>131</ele>
        <time>2016-02-04T10:01:13Z</time>
      </trkpt>
      <trkpt lat="48.21449" lon="-3.14364">
        <ele>131</ele>
        <time>2016-02-04T10:01:16Z</time>
      </trkpt>
      <trkpt lat="48.21448" lon="-3.1437">
        <ele>131</ele>
        <time>2016-02-04T10:01:19Z</time>
      </trkpt>
      <trkpt lat="48.21447" lon="-3.14376">
        <ele>131</ele>
        <time>2016-02-04T10:01:22Z</time>
      </trkpt>
      <trkpt lat="48.21445" lon="-3.14383">
        <ele>131</ele>
        <time>2016-02-04T10:01:25Z</time>
      </trkpt>
      <trkpt lat="48.21444" lon="-3.1439">
        <ele>131</ele>
        <time>2016-02-04T10:01:28Z</time>
      </trkpt>
      <trkpt lat="48.21444" lon="-3.14397">
        <ele>131</ele>
        <time>2016-02-04T10:01:31Z</time>
      </trkpt>
      <trkpt lat="48.21444" lon="-3.14404">
        <ele>133</ele>
        <time>2016-02-04T10:01:34Z</time>
      </trkpt>
      <trkpt lat="48.21442" lon="-3.14409">
        <ele>134</ele>
        <time>2016-02-04T10:01:37Z</time>
      </trkpt>
      <trkpt lat="48.21441" lon="-3.14416">
        <ele>134</ele>
        <time>2016-02-04T10:01:40Z</time>
      </trkpt>
      <trkpt lat="48.2144" lon="-3.14422">
        <ele>134</ele>
        <time>2016-02-04T10:01:43Z</time>
      </trkpt>
      <trkpt lat="48.21439" lon="-3.14429">
        <ele>134</ele>
        <time>2016-02-04T10:01:46Z</time>
      </trkpt>
      <trkpt lat="48.21437" lon="-3.14435">
        <ele>134</ele>
        <time>2016-02-04T10:01:49Z</time>
      </trkpt>
      <trkpt lat="48.21436" lon="-3.14441">
        <ele>134</ele>
        <time>2016-02-04T10:01:52Z</time>
      </trkpt>
      <trkpt lat="48.21435" lon="-3.14447">
        <ele>134</ele>
        <time>2016-02-04T10:01:55Z</time>
      </trkpt>
      <trkpt lat="48.21434" lon="-3.14454">
        <ele>134</ele>
        <time>2016-02-04T10:01:58Z</time>
      </trkpt>
      <trkpt lat="48.21433" lon="-3.1446">
        <ele>134</ele>
        <time>2016-02-04T10:02:01Z</time>
      </trkpt>
      <trkpt lat="48.21432" lon="-3.14465">
        <ele>134</ele>
        <time>2016-02-04T10:02:04Z</time>
      </trkpt>
      <trkpt lat="48.21431" lon="-3.14471">
        <ele>134</ele>
        <time>2016-02-04T10:02:07Z</time>
      </trkpt>
      <trkpt lat="48.2143" lon="-3.14477">
        <ele>134</ele>
        <time>2016-02-04T10:02:10Z</time>
      </trkpt>
      <trkpt lat="48.21429" lon="-3.14485">
        <ele>134</ele>
        <time>2016-02-04T10:02:13Z</time>
      </trkpt>
      <trkpt lat="48.21428" lon="-3.14491">
        <ele>134</ele>
        <time>2016-02-04T10:02:16Z</time>
      </trkpt>
      <trkpt lat="48.21427" lon="-3.14498">
        <ele>134</ele>
        <time>2016-02-04T10:02:19Z</time>
      </trkpt>
      <trkpt lat="48.21426" lon="-3.14504">
        <ele>134</ele>
        <time>2016-02-04T10:02:22Z</time>
      </trkpt>
      <trkpt lat="48.21424" lon="-3.1451">
        <ele>134</ele>
        <time>2016-02-04T10:02:25Z</time>
      </trkpt>
      <trkpt lat="48.21422" lon="-3.14516">
        <ele>134</ele>
        <time>2016-02-04T10:02:28Z</time>
      </trkpt>
      <trkpt lat="48.21421" lon="-3.14521">
        <ele>134</ele>
        <time>2016-02-04T10:02:31Z</time>
      </trkpt>
      <trkpt lat="48.21419" lon="-3.14527">
        <ele>134</ele>
        <time>2016-02-04T10:02:34Z</time>
      </trkpt>
      <trkpt lat="48.21418" lon="-3.14533">
        <ele>134</ele>
        <time>2016-02-04T10:02:37Z</time>
      </trkpt>
      <trkpt lat="48.21418" lon="-3.1454">
        <ele>134</ele>
        <time>2016-02-04T10:02:40Z</time>
      </trkpt>
      <trkpt lat="48.21416" lon="-3.14546">
        <ele>134</ele>
        <time>2016-02-04T10:02:43Z</time>
      </trkpt>
      <trkpt lat="48.21414" lon="-3.14552">
        <ele>134</ele>
        <time>2016-02-04T10:02:46Z</time>
      </trkpt>
      <trkpt lat="48.21413" lon="-3.14558">
        <ele>134</ele>
        <time>2016-02-04T10:02:49Z</time>
      </trkpt>
      <trkpt lat="48.21412" lon="-3.14565">
        <ele>134</ele>
        <time>2016-02-04T10:02:53Z</time>
      </trkpt>
      <trkpt lat="48.2141" lon="-3.14572">
        <ele>134</ele>
        <time>2016-02-04T10:02:56Z</time>
      </trkpt>
      <trkpt lat="48.21409" lon="-3.14579">
        <ele>134</ele>
        <time>2016-02-04T10:02:59Z</time>
      </trkpt>
      <trkpt lat="48.21408" lon="-3.14585">
        <ele>134</ele>
        <time>2016-02-04T10:03:02Z</time>
      </trkpt>
      <trkpt lat="48.21408" lon="-3.14591">
        <ele>134</ele>
        <time>2016-02-04T10:03:05Z</time>
      </trkpt>
      <trkpt lat="48.21407" lon="-3.14597">
        <ele>134</ele>
        <time>2016-02-04T10:03:08Z</time>
      </trkpt>
      <trkpt lat="48.21407" lon="-3.14603">
        <ele>134</ele>
        <time>2016-02-04T10:03:11Z</time>
      </trkpt>
      <trkpt lat="48.21405" lon="-3.14609">
        <ele>134</ele>
        <time>2016-02-04T10:03:14Z</time>
      </trkpt>
      <trkpt lat="48.21404" lon="-3.14617">
        <ele>134</ele>
        <time>2016-02-04T10:03:17Z</time>
      </trkpt>
      <trkpt lat="48.21403" lon="-3.14623">
        <ele>134</ele>
        <time>2016-02-04T10:03:20Z</time>
      </trkpt>
      <trkpt lat="48.21402" lon="-3.14629">
        <ele>134</ele>
        <time>2016-02-04T10:03:23Z</time>
      </trkpt>
      <trkpt lat="48.21401" lon="-3.14635">
        <ele>134</ele>
        <time>2016-02-04T10:03:26Z</time>
      </trkpt>
      <trkpt lat="48.214" lon="-3.14641">
        <ele>134</ele>
        <time>2016-02-04T10:03:29Z</time>
      </trkpt>
      <trkpt lat="48.214" lon="-3.14647">
        <ele>134</ele>
        <time>2016-02-04T10:03:32Z</time>
      </trkpt>
      <trkpt lat="48.21399" lon="-3.14653">
        <ele>134</ele>
        <time>2016-02-04T10:03:35Z</time>
      </trkpt>
      <trkpt lat="48.21399" lon="-3.1466">
        <ele>134</ele>
        <time>2016-02-04T10:03:38Z</time>
      </trkpt>
      <trkpt lat="48.21399" lon="-3.14667">
        <ele>134</ele>
        <time>2016-02-04T10:03:41Z</time>
      </trkpt>
      <trkpt lat="48.21398" lon="-3.14674">
        <ele>134</ele>
        <time>2016-02-04T10:03:44Z</time>
      </trkpt>
      <trkpt lat="48.21397" lon="-3.14681">
        <ele>134</ele>
        <time>2016-02-04T10:03:47Z</time>
      </trkpt>
      <trkpt lat="48.21396" lon="-3.14686">
        <ele>134</ele>
        <time>2016-02-04T10:03:50Z</time>
      </trkpt>
      <trkpt lat="48.21394" lon="-3.14692">
        <ele>134</ele>
        <time>2016-02-04T10:03:53Z</time>
      </trkpt>
      <trkpt lat="48.21394" lon="-3.147">
        <ele>134</ele>
        <time>2016-02-04T10:03:56Z</time>
      </trkpt>
      <trkpt lat="48.21393" lon="-3.14706">
        <ele>134</ele>
        <time>2016-02-04T10:03:59Z</time>
      </trkpt>
      <trkpt lat="48.21392" lon="-3.14712">
        <ele>134</ele>
        <time>2016-02-04T10:04:02Z</time>
      </trkpt>
      <trkpt lat="48.2139" lon="-3.14718">
        <ele>134</ele>
        <time>2016-02-04T10:04:05Z</time>
      </trkpt>
      <trkpt lat="48.21389" lon="-3.14725">
        <ele>134</ele>
        <time>2016-02-04T10:04:08Z</time>
      </trkpt>
      <trkpt lat="48.21387" lon="-3.14731">
        <ele>134</ele>
        <time>2016-02-04T10:04:11Z</time>
      </trkpt>
      <trkpt lat="48.21386" lon="-3.14737">
        <ele>134</ele>
        <time>2016-02-04T10:04:14Z</time>
      </trkpt>
      <trkpt lat="48.21384" lon="-3.14743">
        <ele>134</ele>
        <time>2016-02-04T10:04:17Z</time>
      </trkpt>
      <trkpt lat="48.21383" lon="-3.14749">
        <ele>134</ele>
        <time>2016-02-04T10:04:20Z</time>
      </trkpt>
      <trkpt lat="48.21381" lon="-3.14755">
        <ele>134</ele>
        <time>2016-02-04T10:04:23Z</time>
      </trkpt>
      <trkpt lat="48.2138" lon="-3.14761">
        <ele>134</ele>
        <time>2016-02-04T10:04:26Z</time>
      </trkpt>
      <trkpt lat="48.21379" lon="-3.14768">
        <ele>134</ele>
        <time>2016-02-04T10:04:29Z</time>
      </trkpt>
      <trkpt lat="48.21378" lon="-3.14774">
        <ele>134</ele>
        <time>2016-02-04T10:04:32Z</time>
      </trkpt>
      <trkpt lat="48.21376" lon="-3.1478">
        <ele>134</ele>
        <time>2016-02-04T10:04:35Z</time>
      </trkpt>
      <trkpt lat="48.21374" lon="-3.14787">
        <ele>134</ele>
        <time>2016-02-04T10:04:38Z</time>
      </trkpt>
      <trkpt lat="48.21372" lon="-3.14792">
        <ele>134</ele>
        <time>2016-02-04T10:04:41Z</time>
      </trkpt>
      <trkpt lat="48.2137" lon="-3.14798">
        <ele>134</ele>
        <time>2016-02-04T10:04:44Z</time>
      </trkpt>
      <trkpt lat="48.21369" lon="-3.14804">
        <ele>134</ele>
        <time>2016-02-04T10:04:47Z</time>
      </trkpt>
      <trkpt lat="48.21367" lon="-3.14809">
        <ele>134</ele>
        <time>2016-02-04T10:04:50Z</time>
      </trkpt>
      <trkpt lat="48.21366" lon="-3.14815">
        <ele>134</ele>
        <time>2016-02-04T10:04:53Z</time>
      </trkpt>
      <trkpt lat="48.21364" lon="-3.1482">
        <ele>134</ele>
        <time>2016-02-04T10:04:56Z</time>
      </trkpt>
      <trkpt lat="48.21363" lon="-3.14826">
        <ele>134</ele>
        <time>2016-02-04T10:04:59Z</time>
      </trkpt>
      <trkpt lat="48.21361" lon="-3.14833">
        <ele>134</ele>
        <time>2016-02-04T10:05:02Z</time>
      </trkpt>
      <trkpt lat="48.2136" lon="-3.1484">
        <ele>134</ele>
        <time>2016-02-04T10:05:05Z</time>
      </trkpt>
      <trkpt lat="48.21358" lon="-3.14846">
        <ele>135</ele>
        <time>2016-02-04T10:05:08Z</time>
      </trkpt>
      <trkpt lat="48.21356" lon="-3.14852">
        <ele>135</ele>
        <time>2016-02-04T10:05:11Z</time>
      </trkpt>
      <trkpt lat="48.21354" lon="-3.14858">
        <ele>135</ele>
        <time>2016-02-04T10:05:14Z</time>
      </trkpt>
      <trkpt lat="48.21352" lon="-3.14864">
        <ele>135</ele>
        <time>2016-02-04T10:05:17Z</time>
      </trkpt>
      <trkpt lat="48.21351" lon="-3.14872">
        <ele>135</ele>
        <time>2016-02-04T10:05:20Z</time>
      </trkpt>
      <trkpt lat="48.2135" lon="-3.1488">
        <ele>137</ele>
        <time>2016-02-04T10:05:23Z</time>
      </trkpt>
      <trkpt lat="48.21348" lon="-3.14885">
        <ele>138</ele>
        <time>2016-02-04T10:05:26Z</time>
      </trkpt>
      <trkpt lat="48.21346" lon="-3.14891">
        <ele>138</ele>
        <time>2016-02-04T10:05:29Z</time>
      </trkpt>
      <trkpt lat="48.21344" lon="-3.14896">
        <ele>138</ele>
        <time>2016-02-04T10:05:32Z</time>
      </trkpt>
      <trkpt lat="48.21342" lon="-3.14901">
        <ele>138</ele>
        <time>2016-02-04T10:05:35Z</time>
      </trkpt>
      <trkpt lat="48.2134" lon="-3.14907">
        <ele>138</ele>
        <time>2016-02-04T10:05:38Z</time>
      </trkpt>
      <trkpt lat="48.21338" lon="-3.14912">
        <ele>138</ele>
        <time>2016-02-04T10:05:41Z</time>
      </trkpt>
      <trkpt lat="48.21336" lon="-3.14919">
        <ele>138</ele>
        <time>2016-02-04T10:05:44Z</time>
      </trkpt>
      <trkpt lat="48.21333" lon="-3.14925">
        <ele>138</ele>
        <time>2016-02-04T10:05:47Z</time>
      </trkpt>
      <trkpt lat="48.21331" lon="-3.1493">
        <ele>138</ele>
        <time>2016-02-04T10:05:50Z</time>
      </trkpt>
      <trkpt lat="48.21329" lon="-3.14936">
        <ele>138</ele>
        <time>2016-02-04T10:05:53Z</time>
      </trkpt>
      <trkpt lat="48.21328" lon="-3.14941">
        <ele>137</ele>
        <time>2016-02-04T10:05:56Z</time>
      </trkpt>
      <trkpt lat="48.21326" lon="-3.14947">
        <ele>136</ele>
        <time>2016-02-04T10:05:59Z</time>
      </trkpt>
      <trkpt lat="48.21325" lon="-3.14953">
        <ele>136</ele>
        <time>2016-02-04T10:06:02Z</time>
      </trkpt>
      <trkpt lat="48.21323" lon="-3.14959">
        <ele>135</ele>
        <time>2016-02-04T10:06:05Z</time>
      </trkpt>
      <trkpt lat="48.21322" lon="-3.14966">
        <ele>134</ele>
        <time>2016-02-04T10:06:08Z</time>
      </trkpt>
      <trkpt lat="48.21322" lon="-3.14974">
        <ele>134</ele>
        <time>2016-02-04T10:06:11Z</time>
      </trkpt>
      <trkpt lat="48.21323" lon="-3.1498">
        <ele>134</ele>
        <time>2016-02-04T10:06:14Z</time>
      </trkpt>
      <trkpt lat="48.21322" lon="-3.14986">
        <ele>134</ele>
        <time>2016-02-04T10:06:17Z</time>
      </trkpt>
      <trkpt lat="48.21322" lon="-3.14992">
        <ele>134</ele>
        <time>2016-02-04T10:06:20Z</time>
      </trkpt>
      <trkpt lat="48.21322" lon="-3.14999">
        <ele>134</ele>
        <time>2016-02-04T10:06:23Z</time>
      </trkpt>
      <trkpt lat="48.21321" lon="-3.15005">
        <ele>134</ele>
        <time>2016-02-04T10:06:26Z</time>
      </trkpt>
      <trkpt lat="48.21321" lon="-3.15012">
        <ele>134</ele>
        <time>2016-02-04T10:06:29Z</time>
      </trkpt>
      <trkpt lat="48.21321" lon="-3.15018">
        <ele>134</ele>
        <time>2016-02-04T10:06:32Z</time>
      </trkpt>
      <trkpt lat="48.2132" lon="-3.15025">
        <ele>134</ele>
        <time>2016-02-04T10:06:35Z</time>
      </trkpt>
      <trkpt lat="48.2132" lon="-3.1503">
        <ele>134</ele>
        <time>2016-02-04T10:06:38Z</time>
      </trkpt>
      <trkpt lat="48.21319" lon="-3.15037">
        <ele>134</ele>
        <time>2016-02-04T10:06:41Z</time>
      </trkpt>
      <trkpt lat="48.21318" lon="-3.15044">
        <ele>134</ele>
        <time>2016-02-04T10:06:44Z</time>
      </trkpt>
      <trkpt lat="48.21317" lon="-3.1505">
        <ele>134</ele>
        <time>2016-02-04T10:06:47Z</time>
      </trkpt>
      <trkpt lat="48.21317" lon="-3.15056">
        <ele>134</ele>
        <time>2016-02-04T10:06:50Z</time>
      </trkpt>
      <trkpt lat="48.21315" lon="-3.15062">
        <ele>134</ele>
        <time>2016-02-04T10:06:53Z</time>
      </trkpt>
      <trkpt lat="48.21314" lon="-3.15068">
        <ele>134</ele>
        <time>2016-02-04T10:06:56Z</time>
      </trkpt>
      <trkpt lat="48.21312" lon="-3.15074">
        <ele>134</ele>
        <time>2016-02-04T10:06:59Z</time>
      </trkpt>
      <trkpt lat="48.21311" lon="-3.15081">
        <ele>134</ele>
        <time>2016-02-04T10:07:03Z</time>
      </trkpt>
      <trkpt lat="48.2131" lon="-3.15087">
        <ele>134</ele>
        <time>2016-02-04T10:07:06Z</time>
      </trkpt>
      <trkpt lat="48.2131" lon="-3.15095">
        <ele>134</ele>
        <time>2016-02-04T10:07:09Z</time>
      </trkpt>
      <trkpt lat="48.21309" lon="-3.15103">
        <ele>137</ele>
        <time>2016-02-04T10:07:13Z</time>
      </trkpt>
      <trkpt lat="48.21306" lon="-3.15109">
        <ele>140</ele>
        <time>2016-02-04T10:07:17Z</time>
      </trkpt>
      <trkpt lat="48.21303" lon="-3.15115">
        <ele>140</ele>
        <time>2016-02-04T10:07:20Z</time>
      </trkpt>
      <trkpt lat="48.213" lon="-3.1512">
        <ele>140</ele>
        <time>2016-02-04T10:07:23Z</time>
      </trkpt>
      <trkpt lat="48.21297" lon="-3.15125">
        <ele>140</ele>
        <time>2016-02-04T10:07:26Z</time>
      </trkpt>
      <trkpt lat="48.21294" lon="-3.15129">
        <ele>140</ele>
        <time>2016-02-04T10:07:29Z</time>
      </trkpt>
      <trkpt lat="48.21291" lon="-3.15134">
        <ele>140</ele>
        <time>2016-02-04T10:07:32Z</time>
      </trkpt>
      <trkpt lat="48.21289" lon="-3.15139">
        <ele>139</ele>
        <time>2016-02-04T10:07:35Z</time>
      </trkpt>
      <trkpt lat="48.21286" lon="-3.15143">
        <ele>139</ele>
        <time>2016-02-04T10:07:38Z</time>
      </trkpt>
      <trkpt lat="48.21284" lon="-3.1515">
        <ele>139</ele>
        <time>2016-02-04T10:07:41Z</time>
      </trkpt>
      <trkpt lat="48.21281" lon="-3.15157">
        <ele>139</ele>
        <time>2016-02-04T10:07:44Z</time>
      </trkpt>
      <trkpt lat="48.2128" lon="-3.15161">
        <ele>139</ele>
        <time>2016-02-04T10:07:47Z</time>
      </trkpt>
      <trkpt lat="48.21278" lon="-3.15165">
        <ele>139</ele>
        <time>2016-02-04T10:07:51Z</time>
      </trkpt>
      <trkpt lat="48.21277" lon="-3.15169">
        <ele>139</ele>
        <time>2016-02-04T10:07:54Z</time>
      </trkpt>
      <trkpt lat="48.21275" lon="-3.15175">
        <ele>139</ele>
        <time>2016-02-04T10:07:57Z</time>
      </trkpt>
      <trkpt lat="48.21273" lon="-3.1518">
        <ele>139</ele>
        <time>2016-02-04T10:08:01Z</time>
      </trkpt>
      <trkpt lat="48.21271" lon="-3.15181">
        <ele>139</ele>
        <time>2016-02-04T10:08:04Z</time>
      </trkpt>
      <trkpt lat="48.21269" lon="-3.15187">
        <ele>139</ele>
        <time>2016-02-04T10:08:07Z</time>
      </trkpt>
      <trkpt lat="48.21265" lon="-3.15199">
        <ele>139</ele>
        <time>2016-02-04T10:08:11Z</time>
      </trkpt>
      <trkpt lat="48.21261" lon="-3.15204">
        <ele>140</ele>
        <time>2016-02-04T10:08:15Z</time>
      </trkpt>
      <trkpt lat="48.21258" lon="-3.15208">
        <ele>140</ele>
        <time>2016-02-04T10:08:18Z</time>
      </trkpt>
      <trkpt lat="48.21255" lon="-3.15213">
        <ele>140</ele>
        <time>2016-02-04T10:08:21Z</time>
      </trkpt>
      <trkpt lat="48.21251" lon="-3.15217">
        <ele>140</ele>
        <time>2016-02-04T10:08:25Z</time>
      </trkpt>
      <trkpt lat="48.21249" lon="-3.15221">
        <ele>140</ele>
        <time>2016-02-04T10:08:29Z</time>
      </trkpt>
      <trkpt lat="48.21246" lon="-3.15225">
        <ele>140</ele>
        <time>2016-02-04T10:08:32Z</time>
      </trkpt>
      <trkpt lat="48.21244" lon="-3.15229">
        <ele>139</ele>
        <time>2016-02-04T10:08:37Z</time>
      </trkpt>
      <trkpt lat="48.21243" lon="-3.15231">
        <ele>138</ele>
        <time>2016-02-04T10:08:40Z</time>
      </trkpt>
      <trkpt lat="48.21243" lon="-3.15233">
        <ele>137</ele>
        <time>2016-02-04T10:08:43Z</time>
      </trkpt>
      <trkpt lat="48.21244" lon="-3.15237">
        <ele>136</ele>
        <time>2016-02-04T10:08:57Z</time>
      </trkpt>
      <trkpt lat="48.21245" lon="-3.15241">
        <ele>135</ele>
        <time>2016-02-04T10:09:01Z</time>
      </trkpt>
      <trkpt lat="48.21246" lon="-3.15241">
        <ele>133</ele>
        <time>2016-02-04T10:09:14Z</time>
      </trkpt>
      <trkpt lat="48.21247" lon="-3.1524">
        <ele>133</ele>
        <time>2016-02-04T10:09:22Z</time>
      </trkpt>
      <trkpt lat="48.2125" lon="-3.1524">
        <ele>133</ele>
        <time>2016-02-04T10:09:28Z</time>
      </trkpt>
      <trkpt lat="48.21251" lon="-3.1524">
        <ele>133</ele>
        <time>2016-02-04T10:09:34Z</time>
      </trkpt>
      <trkpt lat="48.2125" lon="-3.15242">
        <ele>133</ele>
        <time>2016-02-04T10:09:42Z</time>
      </trkpt>
      <trkpt lat="48.21247" lon="-3.15246">
        <ele>133</ele>
        <time>2016-02-04T10:09:45Z</time>
      </trkpt>
      <trkpt lat="48.21245" lon="-3.15249">
        <ele>133</ele>
        <time>2016-02-04T10:09:51Z</time>
      </trkpt>
      <trkpt lat="48.21243" lon="-3.15254">
        <ele>133</ele>
        <time>2016-02-04T10:09:54Z</time>
      </trkpt>
      <trkpt lat="48.21243" lon="-3.15258">
        <ele>133</ele>
        <time>2016-02-04T10:09:58Z</time>
      </trkpt>
      <trkpt lat="48.21245" lon="-3.15259">
        <ele>133</ele>
        <time>2016-02-04T10:10:02Z</time>
      </trkpt>
      <trkpt lat="48.21248" lon="-3.15262">
        <ele>132</ele>
        <time>2016-02-04T10:10:08Z</time>
      </trkpt>
      <trkpt lat="48.21247" lon="-3.15262">
        <ele>132</ele>
        <time>2016-02-04T10:10:21Z</time>
      </trkpt>
      <trkpt lat="48.21247" lon="-3.15264">
        <ele>131</ele>
        <time>2016-02-04T10:10:37Z</time>
      </trkpt>
      <trkpt lat="48.21251" lon="-3.15268">
        <ele>131</ele>
        <time>2016-02-04T10:10:41Z</time>
      </trkpt>
      <trkpt lat="48.21254" lon="-3.15272">
        <ele>131</ele>
        <time>2016-02-04T10:10:45Z</time>
      </trkpt>
      <trkpt lat="48.21258" lon="-3.15277">
        <ele>131</ele>
        <time>2016-02-04T10:10:49Z</time>
      </trkpt>
      <trkpt lat="48.21262" lon="-3.15282">
        <ele>131</ele>
        <time>2016-02-04T10:10:52Z</time>
      </trkpt>
      <trkpt lat="48.21265" lon="-3.15285">
        <ele>131</ele>
        <time>2016-02-04T10:10:56Z</time>
      </trkpt>
      <trkpt lat="48.21268" lon="-3.15289">
        <ele>131</ele>
        <time>2016-02-04T10:11:01Z</time>
      </trkpt>
      <trkpt lat="48.2127" lon="-3.15293">
        <ele>130</ele>
        <time>2016-02-04T10:11:04Z</time>
      </trkpt>
      <trkpt lat="48.21271" lon="-3.15295">
        <ele>130</ele>
        <time>2016-02-04T10:11:08Z</time>
      </trkpt>
      <trkpt lat="48.21274" lon="-3.15292">
        <ele>130</ele>
        <time>2016-02-04T10:11:12Z</time>
      </trkpt>
      <trkpt lat="48.21278" lon="-3.15293">
        <ele>130</ele>
        <time>2016-02-04T10:11:17Z</time>
      </trkpt>
      <trkpt lat="48.21279" lon="-3.153">
        <ele>130</ele>
        <time>2016-02-04T10:11:20Z</time>
      </trkpt>
      <trkpt lat="48.21283" lon="-3.15308">
        <ele>128</ele>
        <time>2016-02-04T10:11:23Z</time>
      </trkpt>
      <trkpt lat="48.21286" lon="-3.15314">
        <ele>127</ele>
        <time>2016-02-04T10:11:26Z</time>
      </trkpt>
      <trkpt lat="48.21291" lon="-3.15318">
        <ele>127</ele>
        <time>2016-02-04T10:11:29Z</time>
      </trkpt>
      <trkpt lat="48.21296" lon="-3.15322">
        <ele>127</ele>
        <time>2016-02-04T10:11:33Z</time>
      </trkpt>
      <trkpt lat="48.21301" lon="-3.15326">
        <ele>127</ele>
        <time>2016-02-04T10:11:36Z</time>
      </trkpt>
      <trkpt lat="48.21306" lon="-3.1533">
        <ele>127</ele>
        <time>2016-02-04T10:11:39Z</time>
      </trkpt>
      <trkpt lat="48.2131" lon="-3.15334">
        <ele>127</ele>
        <time>2016-02-04T10:11:42Z</time>
      </trkpt>
      <trkpt lat="48.21314" lon="-3.15339">
        <ele>127</ele>
        <time>2016-02-04T10:11:47Z</time>
      </trkpt>
      <trkpt lat="48.21317" lon="-3.15343">
        <ele>127</ele>
        <time>2016-02-04T10:11:50Z</time>
      </trkpt>
      <trkpt lat="48.21321" lon="-3.15348">
        <ele>127</ele>
        <time>2016-02-04T10:11:53Z</time>
      </trkpt>
      <trkpt lat="48.21324" lon="-3.15351">
        <ele>127</ele>
        <time>2016-02-04T10:11:56Z</time>
      </trkpt>
      <trkpt lat="48.2133" lon="-3.15357">
        <ele>127</ele>
        <time>2016-02-04T10:12:01Z</time>
      </trkpt>
      <trkpt lat="48.21334" lon="-3.15361">
        <ele>127</ele>
        <time>2016-02-04T10:12:04Z</time>
      </trkpt>
      <trkpt lat="48.21337" lon="-3.15365">
        <ele>127</ele>
        <time>2016-02-04T10:12:07Z</time>
      </trkpt>
      <trkpt lat="48.21339" lon="-3.15371">
        <ele>127</ele>
        <time>2016-02-04T10:12:10Z</time>
      </trkpt>
      <trkpt lat="48.21344" lon="-3.15376">
        <ele>127</ele>
        <time>2016-02-04T10:12:13Z</time>
      </trkpt>
      <trkpt lat="48.21348" lon="-3.15381">
        <ele>127</ele>
        <time>2016-02-04T10:12:17Z</time>
      </trkpt>
      <trkpt lat="48.21352" lon="-3.15385">
        <ele>127</ele>
        <time>2016-02-04T10:12:21Z</time>
      </trkpt>
      <trkpt lat="48.21355" lon="-3.1539">
        <ele>126</ele>
        <time>2016-02-04T10:12:24Z</time>
      </trkpt>
      <trkpt lat="48.21358" lon="-3.15395">
        <ele>125</ele>
        <time>2016-02-04T10:12:27Z</time>
      </trkpt>
      <trkpt lat="48.21362" lon="-3.154">
        <ele>124</ele>
        <time>2016-02-04T10:12:30Z</time>
      </trkpt>
      <trkpt lat="48.21365" lon="-3.15404">
        <ele>123</ele>
        <time>2016-02-04T10:12:33Z</time>
      </trkpt>
      <trkpt lat="48.21367" lon="-3.1541">
        <ele>123</ele>
        <time>2016-02-04T10:12:37Z</time>
      </trkpt>
      <trkpt lat="48.2137" lon="-3.15415">
        <ele>122</ele>
        <time>2016-02-04T10:12:40Z</time>
      </trkpt>
      <trkpt lat="48.21373" lon="-3.1542">
        <ele>121</ele>
        <time>2016-02-04T10:12:44Z</time>
      </trkpt>
      <trkpt lat="48.21377" lon="-3.15424">
        <ele>120</ele>
        <time>2016-02-04T10:12:47Z</time>
      </trkpt>
      <trkpt lat="48.21381" lon="-3.1543">
        <ele>119</ele>
        <time>2016-02-04T10:12:50Z</time>
      </trkpt>
      <trkpt lat="48.21384" lon="-3.15436">
        <ele>119</ele>
        <time>2016-02-04T10:12:54Z</time>
      </trkpt>
      <trkpt lat="48.21389" lon="-3.15441">
        <ele>119</ele>
        <time>2016-02-04T10:12:57Z</time>
      </trkpt>
      <trkpt lat="48.21391" lon="-3.15447">
        <ele>119</ele>
        <time>2016-02-04T10:13:00Z</time>
      </trkpt>
      <trkpt lat="48.21395" lon="-3.15453">
        <ele>119</ele>
        <time>2016-02-04T10:13:03Z</time>
      </trkpt>
      <trkpt lat="48.21398" lon="-3.15461">
        <ele>119</ele>
        <time>2016-02-04T10:13:07Z</time>
      </trkpt>
      <trkpt lat="48.21396" lon="-3.15467">
        <ele>120</ele>
        <time>2016-02-04T10:13:10Z</time>
      </trkpt>
      <trkpt lat="48.21394" lon="-3.15474">
        <ele>122</ele>
        <time>2016-02-04T10:13:14Z</time>
      </trkpt>
      <trkpt lat="48.21392" lon="-3.1548">
        <ele>125</ele>
        <time>2016-02-04T10:13:17Z</time>
      </trkpt>
      <trkpt lat="48.21391" lon="-3.15487">
        <ele>127</ele>
        <time>2016-02-04T10:13:20Z</time>
      </trkpt>
      <trkpt lat="48.21392" lon="-3.15495">
        <ele>127</ele>
        <time>2016-02-04T10:13:23Z</time>
      </trkpt>
      <trkpt lat="48.21392" lon="-3.15503">
        <ele>127</ele>
        <time>2016-02-04T10:13:26Z</time>
      </trkpt>
      <trkpt lat="48.21393" lon="-3.15513">
        <ele>127</ele>
        <time>2016-02-04T10:13:29Z</time>
      </trkpt>
      <trkpt lat="48.21393" lon="-3.15521">
        <ele>127</ele>
        <time>2016-02-04T10:13:32Z</time>
      </trkpt>
      <trkpt lat="48.21392" lon="-3.15531">
        <ele>127</ele>
        <time>2016-02-04T10:13:36Z</time>
      </trkpt>
      <trkpt lat="48.21394" lon="-3.15541">
        <ele>127</ele>
        <time>2016-02-04T10:13:40Z</time>
      </trkpt>
      <trkpt lat="48.21394" lon="-3.15547">
        <ele>127</ele>
        <time>2016-02-04T10:13:43Z</time>
      </trkpt>
      <trkpt lat="48.21394" lon="-3.15553">
        <ele>128</ele>
        <time>2016-02-04T10:13:46Z</time>
      </trkpt>
      <trkpt lat="48.21396" lon="-3.15559">
        <ele>129</ele>
        <time>2016-02-04T10:13:49Z</time>
      </trkpt>
      <trkpt lat="48.21397" lon="-3.15564">
        <ele>130</ele>
        <time>2016-02-04T10:13:52Z</time>
      </trkpt>
      <trkpt lat="48.21399" lon="-3.15571">
        <ele>130</ele>
        <time>2016-02-04T10:13:55Z</time>
      </trkpt>
      <trkpt lat="48.21401" lon="-3.15577">
        <ele>130</ele>
        <time>2016-02-04T10:13:58Z</time>
      </trkpt>
      <trkpt lat="48.21401" lon="-3.15582">
        <ele>130</ele>
        <time>2016-02-04T10:14:02Z</time>
      </trkpt>
      <trkpt lat="48.21403" lon="-3.15588">
        <ele>130</ele>
        <time>2016-02-04T10:14:05Z</time>
      </trkpt>
      <trkpt lat="48.21407" lon="-3.15595">
        <ele>130</ele>
        <time>2016-02-04T10:14:08Z</time>
      </trkpt>
      <trkpt lat="48.2141" lon="-3.15601">
        <ele>130</ele>
        <time>2016-02-04T10:14:11Z</time>
      </trkpt>
      <trkpt lat="48.21412" lon="-3.15605">
        <ele>130</ele>
        <time>2016-02-04T10:14:14Z</time>
      </trkpt>
      <trkpt lat="48.21416" lon="-3.15612">
        <ele>130</ele>
        <time>2016-02-04T10:14:18Z</time>
      </trkpt>
      <trkpt lat="48.21419" lon="-3.15613">
        <ele>130</ele>
        <time>2016-02-04T10:14:24Z</time>
      </trkpt>
      <trkpt lat="48.2142" lon="-3.15609">
        <ele>130</ele>
        <time>2016-02-04T10:14:28Z</time>
      </trkpt>
      <trkpt lat="48.21419" lon="-3.15604">
        <ele>130</ele>
        <time>2016-02-04T10:14:31Z</time>
      </trkpt>
      <trkpt lat="48.21419" lon="-3.15599">
        <ele>130</ele>
        <time>2016-02-04T10:14:34Z</time>
      </trkpt>
      <trkpt lat="48.21419" lon="-3.15594">
        <ele>130</ele>
        <time>2016-02-04T10:14:37Z</time>
      </trkpt>
      <trkpt lat="48.21419" lon="-3.15588">
        <ele>130</ele>
        <time>2016-02-04T10:14:40Z</time>
      </trkpt>
      <trkpt lat="48.21416" lon="-3.15579">
        <ele>130</ele>
        <time>2016-02-04T10:14:43Z</time>
      </trkpt>
      <trkpt lat="48.21414" lon="-3.15572">
        <ele>130</ele>
        <time>2016-02-04T10:14:46Z</time>
      </trkpt>
      <trkpt lat="48.21415" lon="-3.15566">
        <ele>130</ele>
        <time>2016-02-04T10:14:50Z</time>
      </trkpt>
      <trkpt lat="48.21414" lon="-3.15558">
        <ele>130</ele>
        <time>2016-02-04T10:14:54Z</time>
      </trkpt>
      <trkpt lat="48.21414" lon="-3.15552">
        <ele>130</ele>
        <time>2016-02-04T10:14:57Z</time>
      </trkpt>
      <trkpt lat="48.21414" lon="-3.15545">
        <ele>130</ele>
        <time>2016-02-04T10:15:00Z</time>
      </trkpt>
      <trkpt lat="48.21415" lon="-3.15539">
        <ele>130</ele>
        <time>2016-02-04T10:15:03Z</time>
      </trkpt>
      <trkpt lat="48.21418" lon="-3.15534">
        <ele>131</ele>
        <time>2016-02-04T10:15:07Z</time>
      </trkpt>
      <trkpt lat="48.21423" lon="-3.15538">
        <ele>131</ele>
        <time>2016-02-04T10:15:11Z</time>
      </trkpt>
      <trkpt lat="48.21423" lon="-3.15543">
        <ele>131</ele>
        <time>2016-02-04T10:15:14Z</time>
      </trkpt>
      <trkpt lat="48.21423" lon="-3.15549">
        <ele>131</ele>
        <time>2016-02-04T10:15:18Z</time>
      </trkpt>
      <trkpt lat="48.21424" lon="-3.15557">
        <ele>131</ele>
        <time>2016-02-04T10:15:22Z</time>
      </trkpt>
      <trkpt lat="48.21425" lon="-3.15563">
        <ele>131</ele>
        <time>2016-02-04T10:15:25Z</time>
      </trkpt>
      <trkpt lat="48.21424" lon="-3.15568">
        <ele>133</ele>
        <time>2016-02-04T10:15:30Z</time>
      </trkpt>
      <trkpt lat="48.21425" lon="-3.15577">
        <ele>135</ele>
        <time>2016-02-04T10:15:34Z</time>
      </trkpt>
      <trkpt lat="48.21425" lon="-3.15586">
        <ele>135</ele>
        <time>2016-02-04T10:15:38Z</time>
      </trkpt>
      <trkpt lat="48.21424" lon="-3.15592">
        <ele>135</ele>
        <time>2016-02-04T10:15:41Z</time>
      </trkpt>
      <trkpt lat="48.21425" lon="-3.15599">
        <ele>135</ele>
        <time>2016-02-04T10:15:44Z</time>
      </trkpt>
      <trkpt lat="48.21426" lon="-3.15607">
        <ele>135</ele>
        <time>2016-02-04T10:15:48Z</time>
      </trkpt>
      <trkpt lat="48.21426" lon="-3.15613">
        <ele>135</ele>
        <time>2016-02-04T10:15:51Z</time>
      </trkpt>
      <trkpt lat="48.21427" lon="-3.1562">
        <ele>135</ele>
        <time>2016-02-04T10:15:54Z</time>
      </trkpt>
      <trkpt lat="48.21426" lon="-3.15626">
        <ele>135</ele>
        <time>2016-02-04T10:15:57Z</time>
      </trkpt>
      <trkpt lat="48.21425" lon="-3.15634">
        <ele>135</ele>
        <time>2016-02-04T10:16:00Z</time>
      </trkpt>
      <trkpt lat="48.21424" lon="-3.1564">
        <ele>136</ele>
        <time>2016-02-04T10:16:04Z</time>
      </trkpt>
      <trkpt lat="48.21424" lon="-3.15645">
        <ele>137</ele>
        <time>2016-02-04T10:16:07Z</time>
      </trkpt>
      <trkpt lat="48.21424" lon="-3.15654">
        <ele>137</ele>
        <time>2016-02-04T10:16:11Z</time>
      </trkpt>
      <trkpt lat="48.21426" lon="-3.15661">
        <ele>137</ele>
        <time>2016-02-04T10:16:14Z</time>
      </trkpt>
      <trkpt lat="48.21427" lon="-3.15668">
        <ele>137</ele>
        <time>2016-02-04T10:16:18Z</time>
      </trkpt>
      <trkpt lat="48.21428" lon="-3.15677">
        <ele>137</ele>
        <time>2016-02-04T10:16:21Z</time>
      </trkpt>
      <trkpt lat="48.21429" lon="-3.15684">
        <ele>137</ele>
        <time>2016-02-04T10:16:24Z</time>
      </trkpt>
      <trkpt lat="48.21431" lon="-3.1569">
        <ele>137</ele>
        <time>2016-02-04T10:16:28Z</time>
      </trkpt>
      <trkpt lat="48.21432" lon="-3.15697">
        <ele>137</ele>
        <time>2016-02-04T10:16:31Z</time>
      </trkpt>
      <trkpt lat="48.21432" lon="-3.15704">
        <ele>137</ele>
        <time>2016-02-04T10:16:34Z</time>
      </trkpt>
      <trkpt lat="48.21434" lon="-3.15712">
        <ele>136</ele>
        <time>2016-02-04T10:16:37Z</time>
      </trkpt>
      <trkpt lat="48.21434" lon="-3.15719">
        <ele>135</ele>
        <time>2016-02-04T10:16:40Z</time>
      </trkpt>
      <trkpt lat="48.21434" lon="-3.15725">
        <ele>135</ele>
        <time>2016-02-04T10:16:44Z</time>
      </trkpt>
      <trkpt lat="48.21435" lon="-3.15732">
        <ele>134</ele>
        <time>2016-02-04T10:16:47Z</time>
      </trkpt>
      <trkpt lat="48.21437" lon="-3.15739">
        <ele>134</ele>
        <time>2016-02-04T10:16:50Z</time>
      </trkpt>
      <trkpt lat="48.21439" lon="-3.15749">
        <ele>134</ele>
        <time>2016-02-04T10:16:53Z</time>
      </trkpt>
      <trkpt lat="48.21441" lon="-3.15756">
        <ele>134</ele>
        <time>2016-02-04T10:16:56Z</time>
      </trkpt>
      <trkpt lat="48.21441" lon="-3.15762">
        <ele>134</ele>
        <time>2016-02-04T10:16:59Z</time>
      </trkpt>
      <trkpt lat="48.21442" lon="-3.15769">
        <ele>134</ele>
        <time>2016-02-04T10:17:02Z</time>
      </trkpt>
      <trkpt lat="48.21443" lon="-3.15775">
        <ele>134</ele>
        <time>2016-02-04T10:17:06Z</time>
      </trkpt>
      <trkpt lat="48.21444" lon="-3.15784">
        <ele>134</ele>
        <time>2016-02-04T10:17:09Z</time>
      </trkpt>
      <trkpt lat="48.21445" lon="-3.1579">
        <ele>134</ele>
        <time>2016-02-04T10:17:12Z</time>
      </trkpt>
      <trkpt lat="48.21445" lon="-3.15796">
        <ele>134</ele>
        <time>2016-02-04T10:17:15Z</time>
      </trkpt>
      <trkpt lat="48.21446" lon="-3.15802">
        <ele>134</ele>
        <time>2016-02-04T10:17:18Z</time>
      </trkpt>
      <trkpt lat="48.21447" lon="-3.15808">
        <ele>134</ele>
        <time>2016-02-04T10:17:22Z</time>
      </trkpt>
      <trkpt lat="48.21449" lon="-3.15815">
        <ele>134</ele>
        <time>2016-02-04T10:17:25Z</time>
      </trkpt>
      <trkpt lat="48.2145" lon="-3.15821">
        <ele>134</ele>
        <time>2016-02-04T10:17:28Z</time>
      </trkpt>
      <trkpt lat="48.21451" lon="-3.15827">
        <ele>134</ele>
        <time>2016-02-04T10:17:32Z</time>
      </trkpt>
      <trkpt lat="48.21452" lon="-3.15834">
        <ele>134</ele>
        <time>2016-02-04T10:17:36Z</time>
      </trkpt>
      <trkpt lat="48.21453" lon="-3.15842">
        <ele>134</ele>
        <time>2016-02-04T10:17:39Z</time>
      </trkpt>
      <trkpt lat="48.21455" lon="-3.15847">
        <ele>133</ele>
        <time>2016-02-04T10:17:42Z</time>
      </trkpt>
      <trkpt lat="48.21456" lon="-3.15853">
        <ele>132</ele>
        <time>2016-02-04T10:17:45Z</time>
      </trkpt>
      <trkpt lat="48.21458" lon="-3.1586">
        <ele>131</ele>
        <time>2016-02-04T10:17:49Z</time>
      </trkpt>
      <trkpt lat="48.2146" lon="-3.15864">
        <ele>131</ele>
        <time>2016-02-04T10:17:52Z</time>
      </trkpt>
      <trkpt lat="48.21462" lon="-3.15869">
        <ele>131</ele>
        <time>2016-02-04T10:17:55Z</time>
      </trkpt>
      <trkpt lat="48.21464" lon="-3.15874">
        <ele>131</ele>
        <time>2016-02-04T10:17:58Z</time>
      </trkpt>
      <trkpt lat="48.21466" lon="-3.15879">
        <ele>131</ele>
        <time>2016-02-04T10:18:02Z</time>
      </trkpt>
      <trkpt lat="48.21469" lon="-3.15885">
        <ele>131</ele>
        <time>2016-02-04T10:18:05Z</time>
      </trkpt>
      <trkpt lat="48.2147" lon="-3.15892">
        <ele>131</ele>
        <time>2016-02-04T10:18:08Z</time>
      </trkpt>
      <trkpt lat="48.21472" lon="-3.15896">
        <ele>131</ele>
        <time>2016-02-04T10:18:12Z</time>
      </trkpt>
      <trkpt lat="48.21476" lon="-3.15903">
        <ele>131</ele>
        <time>2016-02-04T10:18:15Z</time>
      </trkpt>
      <trkpt lat="48.21478" lon="-3.15909">
        <ele>131</ele>
        <time>2016-02-04T10:18:18Z</time>
      </trkpt>
      <trkpt lat="48.2148" lon="-3.15914">
        <ele>131</ele>
        <time>2016-02-04T10:18:21Z</time>
      </trkpt>
      <trkpt lat="48.21483" lon="-3.15919">
        <ele>131</ele>
        <time>2016-02-04T10:18:24Z</time>
      </trkpt>
      <trkpt lat="48.21486" lon="-3.15923">
        <ele>131</ele>
        <time>2016-02-04T10:18:27Z</time>
      </trkpt>
      <trkpt lat="48.21489" lon="-3.15928">
        <ele>131</ele>
        <time>2016-02-04T10:18:30Z</time>
      </trkpt>
      <trkpt lat="48.21491" lon="-3.15934">
        <ele>131</ele>
        <time>2016-02-04T10:18:33Z</time>
      </trkpt>
      <trkpt lat="48.21495" lon="-3.1594">
        <ele>131</ele>
        <time>2016-02-04T10:18:37Z</time>
      </trkpt>
      <trkpt lat="48.21497" lon="-3.15945">
        <ele>131</ele>
        <time>2016-02-04T10:18:40Z</time>
      </trkpt>
      <trkpt lat="48.215" lon="-3.15951">
        <ele>131</ele>
        <time>2016-02-04T10:18:44Z</time>
      </trkpt>
      <trkpt lat="48.21504" lon="-3.15955">
        <ele>131</ele>
        <time>2016-02-04T10:18:47Z</time>
      </trkpt>
      <trkpt lat="48.21507" lon="-3.15959">
        <ele>131</ele>
        <time>2016-02-04T10:18:50Z</time>
      </trkpt>
      <trkpt lat="48.2151" lon="-3.15964">
        <ele>131</ele>
        <time>2016-02-04T10:18:53Z</time>
      </trkpt>
      <trkpt lat="48.21513" lon="-3.15968">
        <ele>131</ele>
        <time>2016-02-04T10:18:56Z</time>
      </trkpt>
      <trkpt lat="48.21517" lon="-3.15973">
        <ele>131</ele>
        <time>2016-02-04T10:18:59Z</time>
      </trkpt>
      <trkpt lat="48.21519" lon="-3.15978">
        <ele>131</ele>
        <time>2016-02-04T10:19:02Z</time>
      </trkpt>
      <trkpt lat="48.21524" lon="-3.15981">
        <ele>131</ele>
        <time>2016-02-04T10:19:05Z</time>
      </trkpt>
      <trkpt lat="48.21528" lon="-3.15985">
        <ele>131</ele>
        <time>2016-02-04T10:19:08Z</time>
      </trkpt>
      <trkpt lat="48.21531" lon="-3.15989">
        <ele>131</ele>
        <time>2016-02-04T10:19:11Z</time>
      </trkpt>
      <trkpt lat="48.21534" lon="-3.15993">
        <ele>131</ele>
        <time>2016-02-04T10:19:14Z</time>
      </trkpt>
      <trkpt lat="48.21537" lon="-3.15996">
        <ele>131</ele>
        <time>2016-02-04T10:19:17Z</time>
      </trkpt>
      <trkpt lat="48.21542" lon="-3.15999">
        <ele>131</ele>
        <time>2016-02-04T10:19:20Z</time>
      </trkpt>
      <trkpt lat="48.21545" lon="-3.16002">
        <ele>131</ele>
        <time>2016-02-04T10:19:23Z</time>
      </trkpt>
      <trkpt lat="48.21549" lon="-3.16005">
        <ele>131</ele>
        <time>2016-02-04T10:19:26Z</time>
      </trkpt>
      <trkpt lat="48.21553" lon="-3.16008">
        <ele>131</ele>
        <time>2016-02-04T10:19:29Z</time>
      </trkpt>
      <trkpt lat="48.21557" lon="-3.16011">
        <ele>131</ele>
        <time>2016-02-04T10:19:32Z</time>
      </trkpt>
      <trkpt lat="48.21561" lon="-3.16014">
        <ele>131</ele>
        <time>2016-02-04T10:19:35Z</time>
      </trkpt>
      <trkpt lat="48.21565" lon="-3.16016">
        <ele>131</ele>
        <time>2016-02-04T10:19:38Z</time>
      </trkpt>
      <trkpt lat="48.21569" lon="-3.16018">
        <ele>131</ele>
        <time>2016-02-04T10:19:41Z</time>
      </trkpt>
      <trkpt lat="48.21574" lon="-3.16021">
        <ele>131</ele>
        <time>2016-02-04T10:19:44Z</time>
      </trkpt>
      <trkpt lat="48.21577" lon="-3.16023">
        <ele>131</ele>
        <time>2016-02-04T10:19:47Z</time>
      </trkpt>
      <trkpt lat="48.21581" lon="-3.16024">
        <ele>131</ele>
        <time>2016-02-04T10:19:50Z</time>
      </trkpt>
      <trkpt lat="48.21584" lon="-3.16026">
        <ele>131</ele>
        <time>2016-02-04T10:19:53Z</time>
      </trkpt>
      <trkpt lat="48.21589" lon="-3.16029">
        <ele>131</ele>
        <time>2016-02-04T10:19:57Z</time>
      </trkpt>
      <trkpt lat="48.21593" lon="-3.1603">
        <ele>131</ele>
        <time>2016-02-04T10:20:00Z</time>
      </trkpt>
      <trkpt lat="48.21598" lon="-3.16031">
        <ele>131</ele>
        <time>2016-02-04T10:20:03Z</time>
      </trkpt>
      <trkpt lat="48.21602" lon="-3.16031">
        <ele>131</ele>
        <time>2016-02-04T10:20:06Z</time>
      </trkpt>
      <trkpt lat="48.21607" lon="-3.16032">
        <ele>131</ele>
        <time>2016-02-04T10:20:09Z</time>
      </trkpt>
      <trkpt lat="48.21611" lon="-3.16032">
        <ele>131</ele>
        <time>2016-02-04T10:20:12Z</time>
      </trkpt>
      <trkpt lat="48.21617" lon="-3.16033">
        <ele>131</ele>
        <time>2016-02-04T10:20:15Z</time>
      </trkpt>
      <trkpt lat="48.21622" lon="-3.16033">
        <ele>131</ele>
        <time>2016-02-04T10:20:18Z</time>
      </trkpt>
      <trkpt lat="48.21626" lon="-3.16033">
        <ele>131</ele>
        <time>2016-02-04T10:20:22Z</time>
      </trkpt>
      <trkpt lat="48.21629" lon="-3.16033">
        <ele>131</ele>
        <time>2016-02-04T10:20:25Z</time>
      </trkpt>
      <trkpt lat="48.21633" lon="-3.16034">
        <ele>131</ele>
        <time>2016-02-04T10:20:28Z</time>
      </trkpt>
      <trkpt lat="48.21638" lon="-3.16033">
        <ele>131</ele>
        <time>2016-02-04T10:20:31Z</time>
      </trkpt>
      <trkpt lat="48.21643" lon="-3.16032">
        <ele>131</ele>
        <time>2016-02-04T10:20:34Z</time>
      </trkpt>
      <trkpt lat="48.21646" lon="-3.1603">
        <ele>131</ele>
        <time>2016-02-04T10:20:37Z</time>
      </trkpt>
      <trkpt lat="48.21649" lon="-3.16029">
        <ele>131</ele>
        <time>2016-02-04T10:20:40Z</time>
      </trkpt>
      <trkpt lat="48.21653" lon="-3.16026">
        <ele>131</ele>
        <time>2016-02-04T10:20:44Z</time>
      </trkpt>
      <trkpt lat="48.21658" lon="-3.16026">
        <ele>131</ele>
        <time>2016-02-04T10:20:48Z</time>
      </trkpt>
      <trkpt lat="48.21658" lon="-3.16023">
        <ele>131</ele>
        <time>2016-02-04T10:20:53Z</time>
      </trkpt>
      <trkpt lat="48.21659" lon="-3.16022">
        <ele>133</ele>
        <time>2016-02-04T10:21:01Z</time>
      </trkpt>
      <trkpt lat="48.21661" lon="-3.16022">
        <ele>135</ele>
        <time>2016-02-04T10:21:05Z</time>
      </trkpt>
      <trkpt lat="48.21666" lon="-3.16021">
        <ele>137</ele>
        <time>2016-02-04T10:21:08Z</time>
      </trkpt>
      <trkpt lat="48.21671" lon="-3.16021">
        <ele>138</ele>
        <time>2016-02-04T10:21:11Z</time>
      </trkpt>
      <trkpt lat="48.21677" lon="-3.16019">
        <ele>141</ele>
        <time>2016-02-04T10:21:15Z</time>
      </trkpt>
      <trkpt lat="48.2168" lon="-3.16017">
        <ele>142</ele>
        <time>2016-02-04T10:21:19Z</time>
      </trkpt>
      <trkpt lat="48.21681" lon="-3.16016">
        <ele>142</ele>
        <time>2016-02-04T10:21:23Z</time>
      </trkpt>
      <trkpt lat="48.21682" lon="-3.16014">
        <ele>141</ele>
        <time>2016-02-04T10:21:26Z</time>
      </trkpt>
      <trkpt lat="48.21685" lon="-3.16013">
        <ele>139</ele>
        <time>2016-02-04T10:21:29Z</time>
      </trkpt>
      <trkpt lat="48.2169" lon="-3.1601">
        <ele>138</ele>
        <time>2016-02-04T10:21:33Z</time>
      </trkpt>
      <trkpt lat="48.21693" lon="-3.16008">
        <ele>137</ele>
        <time>2016-02-04T10:21:36Z</time>
      </trkpt>
      <trkpt lat="48.21698" lon="-3.16007">
        <ele>136</ele>
        <time>2016-02-04T10:21:39Z</time>
      </trkpt>
      <trkpt lat="48.21703" lon="-3.16006">
        <ele>136</ele>
        <time>2016-02-04T10:21:42Z</time>
      </trkpt>
      <trkpt lat="48.21707" lon="-3.16004">
        <ele>136</ele>
        <time>2016-02-04T10:21:45Z</time>
      </trkpt>
      <trkpt lat="48.21711" lon="-3.16002">
        <ele>136</ele>
        <time>2016-02-04T10:21:48Z</time>
      </trkpt>
      <trkpt lat="48.21716" lon="-3.16001">
        <ele>136</ele>
        <time>2016-02-04T10:21:51Z</time>
      </trkpt>
      <trkpt lat="48.21719" lon="-3.15999">
        <ele>136</ele>
        <time>2016-02-04T10:21:54Z</time>
      </trkpt>
      <trkpt lat="48.21723" lon="-3.15998">
        <ele>136</ele>
        <time>2016-02-04T10:21:58Z</time>
      </trkpt>
      <trkpt lat="48.21726" lon="-3.15997">
        <ele>135</ele>
        <time>2016-02-04T10:22:02Z</time>
      </trkpt>
      <trkpt lat="48.2173" lon="-3.15997">
        <ele>135</ele>
        <time>2016-02-04T10:22:06Z</time>
      </trkpt>
      <trkpt lat="48.21734" lon="-3.15995">
        <ele>138</ele>
        <time>2016-02-04T10:22:10Z</time>
      </trkpt>
      <trkpt lat="48.21737" lon="-3.15993">
        <ele>138</ele>
        <time>2016-02-04T10:22:13Z</time>
      </trkpt>
      <trkpt lat="48.2174" lon="-3.15992">
        <ele>138</ele>
        <time>2016-02-04T10:22:18Z</time>
      </trkpt>
      <trkpt lat="48.21743" lon="-3.15988">
        <ele>138</ele>
        <time>2016-02-04T10:22:22Z</time>
      </trkpt>
      <trkpt lat="48.21746" lon="-3.15986">
        <ele>138</ele>
        <time>2016-02-04T10:22:26Z</time>
      </trkpt>
      <trkpt lat="48.2175" lon="-3.15985">
        <ele>138</ele>
        <time>2016-02-04T10:22:30Z</time>
      </trkpt>
      <trkpt lat="48.21755" lon="-3.15985">
        <ele>138</ele>
        <time>2016-02-04T10:22:34Z</time>
      </trkpt>
      <trkpt lat="48.21756" lon="-3.15984">
        <ele>138</ele>
        <time>2016-02-04T10:22:40Z</time>
      </trkpt>
      <trkpt lat="48.2176" lon="-3.15981">
        <ele>138</ele>
        <time>2016-02-04T10:22:43Z</time>
      </trkpt>
      <trkpt lat="48.21762" lon="-3.15976">
        <ele>135</ele>
        <time>2016-02-04T10:22:47Z</time>
      </trkpt>
      <trkpt lat="48.21766" lon="-3.15975">
        <ele>133</ele>
        <time>2016-02-04T10:22:50Z</time>
      </trkpt>
      <trkpt lat="48.21771" lon="-3.15975">
        <ele>133</ele>
        <time>2016-02-04T10:22:53Z</time>
      </trkpt>
      <trkpt lat="48.21775" lon="-3.15974">
        <ele>133</ele>
        <time>2016-02-04T10:22:56Z</time>
      </trkpt>
      <trkpt lat="48.21781" lon="-3.15972">
        <ele>135</ele>
        <time>2016-02-04T10:22:59Z</time>
      </trkpt>
      <trkpt lat="48.21787" lon="-3.15971">
        <ele>137</ele>
        <time>2016-02-04T10:23:02Z</time>
      </trkpt>
      <trkpt lat="48.21792" lon="-3.15969">
        <ele>139</ele>
        <time>2016-02-04T10:23:05Z</time>
      </trkpt>
      <trkpt lat="48.21798" lon="-3.15968">
        <ele>141</ele>
        <time>2016-02-04T10:23:08Z</time>
      </trkpt>
      <trkpt lat="48.21799" lon="-3.15965">
        <ele>141</ele>
        <time>2016-02-04T10:23:11Z</time>
      </trkpt>
      <trkpt lat="48.21803" lon="-3.15963">
        <ele>141</ele>
        <time>2016-02-04T10:23:14Z</time>
      </trkpt>
      <trkpt lat="48.21809" lon="-3.15961">
        <ele>141</ele>
        <time>2016-02-04T10:23:18Z</time>
      </trkpt>
      <trkpt lat="48.21812" lon="-3.15957">
        <ele>141</ele>
        <time>2016-02-04T10:23:22Z</time>
      </trkpt>
      <trkpt lat="48.21815" lon="-3.15955">
        <ele>140</ele>
        <time>2016-02-04T10:23:25Z</time>
      </trkpt>
      <trkpt lat="48.21819" lon="-3.15954">
        <ele>138</ele>
        <time>2016-02-04T10:23:29Z</time>
      </trkpt>
      <trkpt lat="48.21824" lon="-3.15953">
        <ele>137</ele>
        <time>2016-02-04T10:23:33Z</time>
      </trkpt>
      <trkpt lat="48.21827" lon="-3.15951">
        <ele>136</ele>
        <time>2016-02-04T10:23:36Z</time>
      </trkpt>
      <trkpt lat="48.21832" lon="-3.1595">
        <ele>135</ele>
        <time>2016-02-04T10:23:39Z</time>
      </trkpt>
      <trkpt lat="48.21835" lon="-3.15949">
        <ele>135</ele>
        <time>2016-02-04T10:23:42Z</time>
      </trkpt>
      <trkpt lat="48.21838" lon="-3.15947">
        <ele>135</ele>
        <time>2016-02-04T10:23:45Z</time>
      </trkpt>
      <trkpt lat="48.21842" lon="-3.15945">
        <ele>135</ele>
        <time>2016-02-04T10:23:48Z</time>
      </trkpt>
      <trkpt lat="48.21845" lon="-3.15944">
        <ele>135</ele>
        <time>2016-02-04T10:23:51Z</time>
      </trkpt>
      <trkpt lat="48.21851" lon="-3.15943">
        <ele>135</ele>
        <time>2016-02-04T10:23:54Z</time>
      </trkpt>
      <trkpt lat="48.21856" lon="-3.15943">
        <ele>135</ele>
        <time>2016-02-04T10:23:57Z</time>
      </trkpt>
      <trkpt lat="48.2186" lon="-3.15942">
        <ele>135</ele>
        <time>2016-02-04T10:24:00Z</time>
      </trkpt>
      <trkpt lat="48.21865" lon="-3.15943">
        <ele>135</ele>
        <time>2016-02-04T10:24:04Z</time>
      </trkpt>
      <trkpt lat="48.21869" lon="-3.15943">
        <ele>134</ele>
        <time>2016-02-04T10:24:07Z</time>
      </trkpt>
      <trkpt lat="48.21873" lon="-3.15943">
        <ele>134</ele>
        <time>2016-02-04T10:24:10Z</time>
      </trkpt>
      <trkpt lat="48.21878" lon="-3.15945">
        <ele>134</ele>
        <time>2016-02-04T10:24:14Z</time>
      </trkpt>
      <trkpt lat="48.2188" lon="-3.15944">
        <ele>134</ele>
        <time>2016-02-04T10:24:17Z</time>
      </trkpt>
      <trkpt lat="48.21884" lon="-3.15943">
        <ele>133</ele>
        <time>2016-02-04T10:24:21Z</time>
      </trkpt>
      <trkpt lat="48.21888" lon="-3.1594">
        <ele>133</ele>
        <time>2016-02-04T10:24:24Z</time>
      </trkpt>
      <trkpt lat="48.21892" lon="-3.15937">
        <ele>132</ele>
        <time>2016-02-04T10:24:27Z</time>
      </trkpt>
      <trkpt lat="48.21895" lon="-3.15934">
        <ele>132</ele>
        <time>2016-02-04T10:24:30Z</time>
      </trkpt>
      <trkpt lat="48.21899" lon="-3.15932">
        <ele>132</ele>
        <time>2016-02-04T10:24:34Z</time>
      </trkpt>
      <trkpt lat="48.21903" lon="-3.1593">
        <ele>131</ele>
        <time>2016-02-04T10:24:38Z</time>
      </trkpt>
      <trkpt lat="48.21904" lon="-3.15931">
        <ele>131</ele>
        <time>2016-02-04T10:24:45Z</time>
      </trkpt>
      <trkpt lat="48.21908" lon="-3.15937">
        <ele>131</ele>
        <time>2016-02-04T10:24:48Z</time>
      </trkpt>
      <trkpt lat="48.21909" lon="-3.15941">
        <ele>131</ele>
        <time>2016-02-04T10:24:52Z</time>
      </trkpt>
      <trkpt lat="48.21912" lon="-3.15943">
        <ele>131</ele>
        <time>2016-02-04T10:24:56Z</time>
      </trkpt>
      <trkpt lat="48.21915" lon="-3.15943">
        <ele>131</ele>
        <time>2016-02-04T10:24:59Z</time>
      </trkpt>
      <trkpt lat="48.21919" lon="-3.15943">
        <ele>131</ele>
        <time>2016-02-04T10:25:02Z</time>
      </trkpt>
      <trkpt lat="48.21923" lon="-3.15944">
        <ele>131</ele>
        <time>2016-02-04T10:25:05Z</time>
      </trkpt>
      <trkpt lat="48.21927" lon="-3.15946">
        <ele>131</ele>
        <time>2016-02-04T10:25:09Z</time>
      </trkpt>
      <trkpt lat="48.21931" lon="-3.15947">
        <ele>131</ele>
        <time>2016-02-04T10:25:13Z</time>
      </trkpt>
      <trkpt lat="48.21935" lon="-3.15949">
        <ele>131</ele>
        <time>2016-02-04T10:25:16Z</time>
      </trkpt>
      <trkpt lat="48.21939" lon="-3.1595">
        <ele>131</ele>
        <time>2016-02-04T10:25:19Z</time>
      </trkpt>
      <trkpt lat="48.21944" lon="-3.15951">
        <ele>131</ele>
        <time>2016-02-04T10:25:22Z</time>
      </trkpt>
      <trkpt lat="48.21948" lon="-3.15952">
        <ele>131</ele>
        <time>2016-02-04T10:25:25Z</time>
      </trkpt>
      <trkpt lat="48.21952" lon="-3.15954">
        <ele>131</ele>
        <time>2016-02-04T10:25:28Z</time>
      </trkpt>
      <trkpt lat="48.21957" lon="-3.15955">
        <ele>131</ele>
        <time>2016-02-04T10:25:31Z</time>
      </trkpt>
      <trkpt lat="48.21961" lon="-3.15957">
        <ele>132</ele>
        <time>2016-02-04T10:25:34Z</time>
      </trkpt>
      <trkpt lat="48.21965" lon="-3.1596">
        <ele>132</ele>
        <time>2016-02-04T10:25:37Z</time>
      </trkpt>
      <trkpt lat="48.21968" lon="-3.15961">
        <ele>132</ele>
        <time>2016-02-04T10:25:41Z</time>
      </trkpt>
      <trkpt lat="48.21971" lon="-3.15959">
        <ele>132</ele>
        <time>2016-02-04T10:25:44Z</time>
      </trkpt>
      <trkpt lat="48.21972" lon="-3.15955">
        <ele>132</ele>
        <time>2016-02-04T10:25:47Z</time>
      </trkpt>
      <trkpt lat="48.21972" lon="-3.15951">
        <ele>132</ele>
        <time>2016-02-04T10:25:50Z</time>
      </trkpt>
      <trkpt lat="48.21972" lon="-3.15949">
        <ele>133</ele>
        <time>2016-02-04T10:25:54Z</time>
      </trkpt>
      <trkpt lat="48.2197" lon="-3.15949">
        <ele>133</ele>
        <time>2016-02-04T10:26:00Z</time>
      </trkpt>
      <trkpt lat="48.21971" lon="-3.15947">
        <ele>133</ele>
        <time>2016-02-04T10:26:03Z</time>
      </trkpt>
      <trkpt lat="48.2197" lon="-3.15944">
        <ele>133</ele>
        <time>2016-02-04T10:26:12Z</time>
      </trkpt>
      <trkpt lat="48.21969" lon="-3.15943">
        <ele>133</ele>
        <time>2016-02-04T10:26:15Z</time>
      </trkpt>
      <trkpt lat="48.21969" lon="-3.15938">
        <ele>133</ele>
        <time>2016-02-04T10:26:19Z</time>
      </trkpt>
      <trkpt lat="48.21968" lon="-3.15934">
        <ele>135</ele>
        <time>2016-02-04T10:26:23Z</time>
      </trkpt>
      <trkpt lat="48.21967" lon="-3.15931">
        <ele>136</ele>
        <time>2016-02-04T10:26:26Z</time>
      </trkpt>
      <trkpt lat="48.21965" lon="-3.15926">
        <ele>138</ele>
        <time>2016-02-04T10:26:29Z</time>
      </trkpt>
      <trkpt lat="48.21964" lon="-3.15926">
        <ele>140</ele>
        <time>2016-02-04T10:26:34Z</time>
      </trkpt>
      <trkpt lat="48.21963" lon="-3.15928">
        <ele>140</ele>
        <time>2016-02-04T10:26:37Z</time>
      </trkpt>
      <trkpt lat="48.21962" lon="-3.15927">
        <ele>142</ele>
        <time>2016-02-04T10:26:40Z</time>
      </trkpt>
      <trkpt lat="48.21962" lon="-3.15922">
        <ele>144</ele>
        <time>2016-02-04T10:26:43Z</time>
      </trkpt>
      <trkpt lat="48.21962" lon="-3.15916">
        <ele>144</ele>
        <time>2016-02-04T10:26:46Z</time>
      </trkpt>
      <trkpt lat="48.21961" lon="-3.1591">
        <ele>145</ele>
        <time>2016-02-04T10:26:50Z</time>
      </trkpt>
      <trkpt lat="48.2196" lon="-3.15905">
        <ele>146</ele>
        <time>2016-02-04T10:26:53Z</time>
      </trkpt>
      <trkpt lat="48.21958" lon="-3.15902">
        <ele>148</ele>
        <time>2016-02-04T10:26:57Z</time>
      </trkpt>
      <trkpt lat="48.21956" lon="-3.15901">
        <ele>148</ele>
        <time>2016-02-04T10:27:01Z</time>
      </trkpt>
      <trkpt lat="48.21954" lon="-3.159">
        <ele>150</ele>
        <time>2016-02-04T10:27:09Z</time>
      </trkpt>
      <trkpt lat="48.2195" lon="-3.15902">
        <ele>150</ele>
        <time>2016-02-04T10:27:12Z</time>
      </trkpt>
      <trkpt lat="48.21947" lon="-3.159">
        <ele>150</ele>
        <time>2016-02-04T10:27:15Z</time>
      </trkpt>
      <trkpt lat="48.21943" lon="-3.15899">
        <ele>150</ele>
        <time>2016-02-04T10:27:18Z</time>
      </trkpt>
      <trkpt lat="48.2194" lon="-3.15898">
        <ele>150</ele>
        <time>2016-02-04T10:27:21Z</time>
      </trkpt>
      <trkpt lat="48.21936" lon="-3.15898">
        <ele>150</ele>
        <time>2016-02-04T10:27:24Z</time>
      </trkpt>
      <trkpt lat="48.21932" lon="-3.15895">
        <ele>150</ele>
        <time>2016-02-04T10:27:28Z</time>
      </trkpt>
      <trkpt lat="48.21928" lon="-3.15895">
        <ele>150</ele>
        <time>2016-02-04T10:27:31Z</time>
      </trkpt>
      <trkpt lat="48.21925" lon="-3.15896">
        <ele>150</ele>
        <time>2016-02-04T10:27:34Z</time>
      </trkpt>
      <trkpt lat="48.21922" lon="-3.15891">
        <ele>150</ele>
        <time>2016-02-04T10:27:38Z</time>
      </trkpt>
      <trkpt lat="48.21922" lon="-3.15884">
        <ele>150</ele>
        <time>2016-02-04T10:27:42Z</time>
      </trkpt>
      <trkpt lat="48.21923" lon="-3.1588">
        <ele>150</ele>
        <time>2016-02-04T10:27:45Z</time>
      </trkpt>
      <trkpt lat="48.21925" lon="-3.15874">
        <ele>150</ele>
        <time>2016-02-04T10:27:48Z</time>
      </trkpt>
      <trkpt lat="48.21926" lon="-3.15869">
        <ele>151</ele>
        <time>2016-02-04T10:27:51Z</time>
      </trkpt>
      <trkpt lat="48.2193" lon="-3.15863">
        <ele>152</ele>
        <time>2016-02-04T10:27:55Z</time>
      </trkpt>
      <trkpt lat="48.21931" lon="-3.15858">
        <ele>152</ele>
        <time>2016-02-04T10:27:59Z</time>
      </trkpt>
      <trkpt lat="48.21928" lon="-3.15856">
        <ele>152</ele>
        <time>2016-02-04T10:28:03Z</time>
      </trkpt>
      <trkpt lat="48.21925" lon="-3.15857">
        <ele>153</ele>
        <time>2016-02-04T10:28:06Z</time>
      </trkpt>
      <trkpt lat="48.2192" lon="-3.15858">
        <ele>154</ele>
        <time>2016-02-04T10:28:10Z</time>
      </trkpt>
      <trkpt lat="48.21916" lon="-3.15859">
        <ele>154</ele>
        <time>2016-02-04T10:28:13Z</time>
      </trkpt>
      <trkpt lat="48.21912" lon="-3.15862">
        <ele>155</ele>
        <time>2016-02-04T10:28:16Z</time>
      </trkpt>
      <trkpt lat="48.21908" lon="-3.15863">
        <ele>155</ele>
        <time>2016-02-04T10:28:19Z</time>
      </trkpt>
      <trkpt lat="48.21905" lon="-3.15863">
        <ele>155</ele>
        <time>2016-02-04T10:28:22Z</time>
      </trkpt>
      <trkpt lat="48.21901" lon="-3.15863">
        <ele>155</ele>
        <time>2016-02-04T10:28:25Z</time>
      </trkpt>
      <trkpt lat="48.21897" lon="-3.15862">
        <ele>155</ele>
        <time>2016-02-04T10:28:28Z</time>
      </trkpt>
      <trkpt lat="48.21893" lon="-3.15866">
        <ele>155</ele>
        <time>2016-02-04T10:28:32Z</time>
      </trkpt>
      <trkpt lat="48.21889" lon="-3.1587">
        <ele>155</ele>
        <time>2016-02-04T10:28:35Z</time>
      </trkpt>
      <trkpt lat="48.21885" lon="-3.15871">
        <ele>155</ele>
        <time>2016-02-04T10:28:39Z</time>
      </trkpt>
      <trkpt lat="48.21881" lon="-3.15873">
        <ele>155</ele>
        <time>2016-02-04T10:28:42Z</time>
      </trkpt>
      <trkpt lat="48.21876" lon="-3.15878">
        <ele>155</ele>
        <time>2016-02-04T10:28:45Z</time>
      </trkpt>
      <trkpt lat="48.21872" lon="-3.15879">
        <ele>155</ele>
        <time>2016-02-04T10:28:48Z</time>
      </trkpt>
      <trkpt lat="48.21869" lon="-3.15877">
        <ele>155</ele>
        <time>2016-02-04T10:28:51Z</time>
      </trkpt>
      <trkpt lat="48.21869" lon="-3.15872">
        <ele>155</ele>
        <time>2016-02-04T10:28:54Z</time>
      </trkpt>
      <trkpt lat="48.2187" lon="-3.15868">
        <ele>156</ele>
        <time>2016-02-04T10:28:57Z</time>
      </trkpt>
      <trkpt lat="48.21872" lon="-3.15863">
        <ele>157</ele>
        <time>2016-02-04T10:29:00Z</time>
      </trkpt>
      <trkpt lat="48.21874" lon="-3.1586">
        <ele>158</ele>
        <time>2016-02-04T10:29:03Z</time>
      </trkpt>
      <trkpt lat="48.21875" lon="-3.15853">
        <ele>159</ele>
        <time>2016-02-04T10:29:07Z</time>
      </trkpt>
      <trkpt lat="48.21878" lon="-3.15847">
        <ele>159</ele>
        <time>2016-02-04T10:29:11Z</time>
      </trkpt>
      <trkpt lat="48.2188" lon="-3.15842">
        <ele>159</ele>
        <time>2016-02-04T10:29:14Z</time>
      </trkpt>
      <trkpt lat="48.21882" lon="-3.15835">
        <ele>160</ele>
        <time>2016-02-04T10:29:18Z</time>
      </trkpt>
      <trkpt lat="48.21887" lon="-3.1583">
        <ele>161</ele>
        <time>2016-02-04T10:29:22Z</time>
      </trkpt>
      <trkpt lat="48.2189" lon="-3.15824">
        <ele>161</ele>
        <time>2016-02-04T10:29:26Z</time>
      </trkpt>
      <trkpt lat="48.21891" lon="-3.15818">
        <ele>162</ele>
        <time>2016-02-04T10:29:29Z</time>
      </trkpt>
      <trkpt lat="48.21893" lon="-3.15812">
        <ele>164</ele>
        <time>2016-02-04T10:29:33Z</time>
      </trkpt>
      <trkpt lat="48.21892" lon="-3.15809">
        <ele>164</ele>
        <time>2016-02-04T10:29:37Z</time>
      </trkpt>
      <trkpt lat="48.21889" lon="-3.15809">
        <ele>164</ele>
        <time>2016-02-04T10:29:41Z</time>
      </trkpt>
      <trkpt lat="48.21885" lon="-3.15811">
        <ele>164</ele>
        <time>2016-02-04T10:29:44Z</time>
      </trkpt>
      <trkpt lat="48.21881" lon="-3.15814">
        <ele>164</ele>
        <time>2016-02-04T10:29:47Z</time>
      </trkpt>
      <trkpt lat="48.21876" lon="-3.15814">
        <ele>164</ele>
        <time>2016-02-04T10:29:51Z</time>
      </trkpt>
      <trkpt lat="48.21877" lon="-3.15809">
        <ele>164</ele>
        <time>2016-02-04T10:29:54Z</time>
      </trkpt>
      <trkpt lat="48.21876" lon="-3.15804">
        <ele>164</ele>
        <time>2016-02-04T10:29:58Z</time>
      </trkpt>
      <trkpt lat="48.21873" lon="-3.15806">
        <ele>164</ele>
        <time>2016-02-04T10:30:01Z</time>
      </trkpt>
      <trkpt lat="48.21869" lon="-3.15807">
        <ele>164</ele>
        <time>2016-02-04T10:30:04Z</time>
      </trkpt>
      <trkpt lat="48.21865" lon="-3.15812">
        <ele>164</ele>
        <time>2016-02-04T10:30:07Z</time>
      </trkpt>
      <trkpt lat="48.21863" lon="-3.15816">
        <ele>164</ele>
        <time>2016-02-04T10:30:10Z</time>
      </trkpt>
      <trkpt lat="48.21859" lon="-3.15821">
        <ele>164</ele>
        <time>2016-02-04T10:30:13Z</time>
      </trkpt>
      <trkpt lat="48.21858" lon="-3.15817">
        <ele>166</ele>
        <time>2016-02-04T10:30:16Z</time>
      </trkpt>
      <trkpt lat="48.2186" lon="-3.15811">
        <ele>167</ele>
        <time>2016-02-04T10:30:19Z</time>
      </trkpt>
      <trkpt lat="48.21862" lon="-3.15805">
        <ele>168</ele>
        <time>2016-02-04T10:30:22Z</time>
      </trkpt>
      <trkpt lat="48.21862" lon="-3.15798">
        <ele>169</ele>
        <time>2016-02-04T10:30:26Z</time>
      </trkpt>
      <trkpt lat="48.21862" lon="-3.15793">
        <ele>170</ele>
        <time>2016-02-04T10:30:29Z</time>
      </trkpt>
      <trkpt lat="48.21862" lon="-3.15787">
        <ele>170</ele>
        <time>2016-02-04T10:30:32Z</time>
      </trkpt>
      <trkpt lat="48.21862" lon="-3.15783">
        <ele>170</ele>
        <time>2016-02-04T10:30:35Z</time>
      </trkpt>
      <trkpt lat="48.2186" lon="-3.15785">
        <ele>171</ele>
        <time>2016-02-04T10:30:39Z</time>
      </trkpt>
      <trkpt lat="48.21858" lon="-3.15789">
        <ele>172</ele>
        <time>2016-02-04T10:30:42Z</time>
      </trkpt>
      <trkpt lat="48.21855" lon="-3.15792">
        <ele>173</ele>
        <time>2016-02-04T10:30:46Z</time>
      </trkpt>
      <trkpt lat="48.21854" lon="-3.15796">
        <ele>173</ele>
        <time>2016-02-04T10:30:49Z</time>
      </trkpt>
      <trkpt lat="48.21852" lon="-3.15802">
        <ele>173</ele>
        <time>2016-02-04T10:30:53Z</time>
      </trkpt>
      <trkpt lat="48.21849" lon="-3.15807">
        <ele>173</ele>
        <time>2016-02-04T10:30:57Z</time>
      </trkpt>
      <trkpt lat="48.21846" lon="-3.15812">
        <ele>173</ele>
        <time>2016-02-04T10:31:01Z</time>
      </trkpt>
      <trkpt lat="48.21844" lon="-3.15816">
        <ele>174</ele>
        <time>2016-02-04T10:31:05Z</time>
      </trkpt>
      <trkpt lat="48.21841" lon="-3.15816">
        <ele>176</ele>
        <time>2016-02-04T10:31:10Z</time>
      </trkpt>
      <trkpt lat="48.21842" lon="-3.15821">
        <ele>177</ele>
        <time>2016-02-04T10:31:14Z</time>
      </trkpt>
      <trkpt lat="48.21842" lon="-3.15826">
        <ele>179</ele>
        <time>2016-02-04T10:31:17Z</time>
      </trkpt>
      <trkpt lat="48.2184" lon="-3.15831">
        <ele>180</ele>
        <time>2016-02-04T10:31:21Z</time>
      </trkpt>
      <trkpt lat="48.21839" lon="-3.15835">
        <ele>181</ele>
        <time>2016-02-04T10:31:26Z</time>
      </trkpt>
      <trkpt lat="48.21839" lon="-3.15839">
        <ele>182</ele>
        <time>2016-02-04T10:31:30Z</time>
      </trkpt>
      <trkpt lat="48.21838" lon="-3.15839">
        <ele>182</ele>
        <time>2016-02-04T10:31:45Z</time>
      </trkpt>
      <trkpt lat="48.21837" lon="-3.15834">
        <ele>182</ele>
        <time>2016-02-04T10:31:48Z</time>
      </trkpt>
      <trkpt lat="48.21836" lon="-3.15829">
        <ele>182</ele>
        <time>2016-02-04T10:31:51Z</time>
      </trkpt>
      <trkpt lat="48.21834" lon="-3.15824">
        <ele>182</ele>
        <time>2016-02-04T10:31:54Z</time>
      </trkpt>
      <trkpt lat="48.21832" lon="-3.15819">
        <ele>182</ele>
        <time>2016-02-04T10:31:57Z</time>
      </trkpt>
      <trkpt lat="48.21834" lon="-3.15812">
        <ele>182</ele>
        <time>2016-02-04T10:32:00Z</time>
      </trkpt>
      <trkpt lat="48.21835" lon="-3.15805">
        <ele>182</ele>
        <time>2016-02-04T10:32:03Z</time>
      </trkpt>
      <trkpt lat="48.21837" lon="-3.15799">
        <ele>182</ele>
        <time>2016-02-04T10:32:06Z</time>
      </trkpt>
      <trkpt lat="48.21839" lon="-3.15793">
        <ele>182</ele>
        <time>2016-02-04T10:32:09Z</time>
      </trkpt>
      <trkpt lat="48.2184" lon="-3.15787">
        <ele>182</ele>
        <time>2016-02-04T10:32:12Z</time>
      </trkpt>
      <trkpt lat="48.2184" lon="-3.15781">
        <ele>182</ele>
        <time>2016-02-04T10:32:15Z</time>
      </trkpt>
      <trkpt lat="48.21841" lon="-3.15775">
        <ele>182</ele>
        <time>2016-02-04T10:32:18Z</time>
      </trkpt>
      <trkpt lat="48.21839" lon="-3.1577">
        <ele>182</ele>
        <time>2016-02-04T10:32:21Z</time>
      </trkpt>
      <trkpt lat="48.21836" lon="-3.15767">
        <ele>182</ele>
        <time>2016-02-04T10:32:24Z</time>
      </trkpt>
      <trkpt lat="48.21832" lon="-3.15764">
        <ele>182</ele>
        <time>2016-02-04T10:32:27Z</time>
      </trkpt>
      <trkpt lat="48.21827" lon="-3.15763">
        <ele>182</ele>
        <time>2016-02-04T10:32:30Z</time>
      </trkpt>
      <trkpt lat="48.21823" lon="-3.15761">
        <ele>182</ele>
        <time>2016-02-04T10:32:33Z</time>
      </trkpt>
      <trkpt lat="48.21819" lon="-3.15763">
        <ele>183</ele>
        <time>2016-02-04T10:32:36Z</time>
      </trkpt>
      <trkpt lat="48.21816" lon="-3.15766">
        <ele>184</ele>
        <time>2016-02-04T10:32:39Z</time>
      </trkpt>
      <trkpt lat="48.21813" lon="-3.15768">
        <ele>185</ele>
        <time>2016-02-04T10:32:42Z</time>
      </trkpt>
      <trkpt lat="48.21809" lon="-3.15771">
        <ele>185</ele>
        <time>2016-02-04T10:32:45Z</time>
      </trkpt>
      <trkpt lat="48.21806" lon="-3.15777">
        <ele>186</ele>
        <time>2016-02-04T10:32:49Z</time>
      </trkpt>
      <trkpt lat="48.21803" lon="-3.15782">
        <ele>187</ele>
        <time>2016-02-04T10:32:52Z</time>
      </trkpt>
      <trkpt lat="48.21797" lon="-3.15787">
        <ele>188</ele>
        <time>2016-02-04T10:32:55Z</time>
      </trkpt>
      <trkpt lat="48.21792" lon="-3.15789">
        <ele>190</ele>
        <time>2016-02-04T10:32:59Z</time>
      </trkpt>
      <trkpt lat="48.21788" lon="-3.15791">
        <ele>191</ele>
        <time>2016-02-04T10:33:03Z</time>
      </trkpt>
      <trkpt lat="48.21785" lon="-3.15793">
        <ele>192</ele>
        <time>2016-02-04T10:33:06Z</time>
      </trkpt>
      <trkpt lat="48.21782" lon="-3.15795">
        <ele>193</ele>
        <time>2016-02-04T10:33:09Z</time>
      </trkpt>
      <trkpt lat="48.21776" lon="-3.15799">
        <ele>194</ele>
        <time>2016-02-04T10:33:12Z</time>
      </trkpt>
      <trkpt lat="48.21772" lon="-3.15803">
        <ele>196</ele>
        <time>2016-02-04T10:33:16Z</time>
      </trkpt>
      <trkpt lat="48.2177" lon="-3.15805">
        <ele>197</ele>
        <time>2016-02-04T10:33:20Z</time>
      </trkpt>
      <trkpt lat="48.21767" lon="-3.15809">
        <ele>197</ele>
        <time>2016-02-04T10:33:24Z</time>
      </trkpt>
      <trkpt lat="48.21767" lon="-3.15804">
        <ele>198</ele>
        <time>2016-02-04T10:33:27Z</time>
      </trkpt>
      <trkpt lat="48.21769" lon="-3.15799">
        <ele>199</ele>
        <time>2016-02-04T10:33:30Z</time>
      </trkpt>
      <trkpt lat="48.21771" lon="-3.15794">
        <ele>199</ele>
        <time>2016-02-04T10:33:33Z</time>
      </trkpt>
      <trkpt lat="48.21774" lon="-3.15788">
        <ele>199</ele>
        <time>2016-02-04T10:33:36Z</time>
      </trkpt>
      <trkpt lat="48.21776" lon="-3.15783">
        <ele>199</ele>
        <time>2016-02-04T10:33:39Z</time>
      </trkpt>
      <trkpt lat="48.21777" lon="-3.15776">
        <ele>199</ele>
        <time>2016-02-04T10:33:42Z</time>
      </trkpt>
      <trkpt lat="48.21778" lon="-3.1577">
        <ele>199</ele>
        <time>2016-02-04T10:33:45Z</time>
      </trkpt>
      <trkpt lat="48.21778" lon="-3.15764">
        <ele>199</ele>
        <time>2016-02-04T10:33:48Z</time>
      </trkpt>
      <trkpt lat="48.21778" lon="-3.15758">
        <ele>199</ele>
        <time>2016-02-04T10:33:52Z</time>
      </trkpt>
      <trkpt lat="48.21778" lon="-3.15753">
        <ele>199</ele>
        <time>2016-02-04T10:33:55Z</time>
      </trkpt>
      <trkpt lat="48.21775" lon="-3.15748">
        <ele>199</ele>
        <time>2016-02-04T10:33:59Z</time>
      </trkpt>
      <trkpt lat="48.21773" lon="-3.15743">
        <ele>199</ele>
        <time>2016-02-04T10:34:03Z</time>
      </trkpt>
      <trkpt lat="48.21773" lon="-3.15742">
        <ele>199</ele>
        <time>2016-02-04T10:34:15Z</time>
      </trkpt>
      <trkpt lat="48.21774" lon="-3.1574">
        <ele>199</ele>
        <time>2016-02-04T10:34:40Z</time>
      </trkpt>
      <trkpt lat="48.21775" lon="-3.1574">
        <ele>199</ele>
        <time>2016-02-04T10:34:52Z</time>
      </trkpt>
      <trkpt lat="48.21777" lon="-3.15742">
        <ele>199</ele>
        <time>2016-02-04T10:34:57Z</time>
      </trkpt>
      <trkpt lat="48.21778" lon="-3.15746">
        <ele>199</ele>
        <time>2016-02-04T10:35:01Z</time>
      </trkpt>
      <trkpt lat="48.2178" lon="-3.15749">
        <ele>199</ele>
        <time>2016-02-04T10:35:06Z</time>
      </trkpt>
      <trkpt lat="48.21781" lon="-3.15751">
        <ele>199</ele>
        <time>2016-02-04T10:35:09Z</time>
      </trkpt>
      <trkpt lat="48.21782" lon="-3.15755">
        <ele>199</ele>
        <time>2016-02-04T10:35:12Z</time>
      </trkpt>
      <trkpt lat="48.21781" lon="-3.15754">
        <ele>199</ele>
        <time>2016-02-04T10:35:20Z</time>
      </trkpt>
      <trkpt lat="48.21778" lon="-3.15748">
        <ele>199</ele>
        <time>2016-02-04T10:35:24Z</time>
      </trkpt>
      <trkpt lat="48.21775" lon="-3.15744">
        <ele>199</ele>
        <time>2016-02-04T10:35:28Z</time>
      </trkpt>
      <trkpt lat="48.21772" lon="-3.15741">
        <ele>199</ele>
        <time>2016-02-04T10:35:34Z</time>
      </trkpt>
      <trkpt lat="48.21772" lon="-3.15743">
        <ele>199</ele>
        <time>2016-02-04T10:35:53Z</time>
      </trkpt>
      <trkpt lat="48.21773" lon="-3.15741">
        <ele>199</ele>
        <time>2016-02-04T10:36:09Z</time>
      </trkpt>
      <trkpt lat="48.21771" lon="-3.15741">
        <ele>199</ele>
        <time>2016-02-04T10:36:42Z</time>
      </trkpt>
      <trkpt lat="48.21767" lon="-3.15743">
        <ele>199</ele>
        <time>2016-02-04T10:36:45Z</time>
      </trkpt>
      <trkpt lat="48.21763" lon="-3.15744">
        <ele>199</ele>
        <time>2016-02-04T10:36:48Z</time>
      </trkpt>
      <trkpt lat="48.21758" lon="-3.15745">
        <ele>201</ele>
        <time>2016-02-04T10:36:51Z</time>
      </trkpt>
      <trkpt lat="48.21754" lon="-3.15745">
        <ele>202</ele>
        <time>2016-02-04T10:36:55Z</time>
      </trkpt>
      <trkpt lat="48.2175" lon="-3.15747">
        <ele>202</ele>
        <time>2016-02-04T10:36:59Z</time>
      </trkpt>
      <trkpt lat="48.21746" lon="-3.15747">
        <ele>202</ele>
        <time>2016-02-04T10:37:03Z</time>
      </trkpt>
      <trkpt lat="48.21742" lon="-3.15748">
        <ele>202</ele>
        <time>2016-02-04T10:37:06Z</time>
      </trkpt>
      <trkpt lat="48.21737" lon="-3.15749">
        <ele>203</ele>
        <time>2016-02-04T10:37:10Z</time>
      </trkpt>
      <trkpt lat="48.21734" lon="-3.15749">
        <ele>203</ele>
        <time>2016-02-04T10:37:13Z</time>
      </trkpt>
      <trkpt lat="48.2173" lon="-3.1575">
        <ele>203</ele>
        <time>2016-02-04T10:37:16Z</time>
      </trkpt>
      <trkpt lat="48.21726" lon="-3.15753">
        <ele>203</ele>
        <time>2016-02-04T10:37:20Z</time>
      </trkpt>
      <trkpt lat="48.21723" lon="-3.15757">
        <ele>203</ele>
        <time>2016-02-04T10:37:24Z</time>
      </trkpt>
      <trkpt lat="48.21721" lon="-3.15758">
        <ele>203</ele>
        <time>2016-02-04T10:37:27Z</time>
      </trkpt>
      <trkpt lat="48.21718" lon="-3.1576">
        <ele>203</ele>
        <time>2016-02-04T10:37:31Z</time>
      </trkpt>
      <trkpt lat="48.21718" lon="-3.15758">
        <ele>203</ele>
        <time>2016-02-04T10:37:37Z</time>
      </trkpt>
      <trkpt lat="48.21718" lon="-3.1576">
        <ele>203</ele>
        <time>2016-02-04T10:37:41Z</time>
      </trkpt>
      <trkpt lat="48.21714" lon="-3.15764">
        <ele>203</ele>
        <time>2016-02-04T10:37:45Z</time>
      </trkpt>
      <trkpt lat="48.21711" lon="-3.15768">
        <ele>203</ele>
        <time>2016-02-04T10:37:48Z</time>
      </trkpt>
      <trkpt lat="48.21708" lon="-3.15772">
        <ele>203</ele>
        <time>2016-02-04T10:37:51Z</time>
      </trkpt>
      <trkpt lat="48.21705" lon="-3.15776">
        <ele>203</ele>
        <time>2016-02-04T10:37:55Z</time>
      </trkpt>
      <trkpt lat="48.21701" lon="-3.15779">
        <ele>203</ele>
        <time>2016-02-04T10:37:59Z</time>
      </trkpt>
      <trkpt lat="48.21699" lon="-3.15775">
        <ele>203</ele>
        <time>2016-02-04T10:38:02Z</time>
      </trkpt>
      <trkpt lat="48.21698" lon="-3.15769">
        <ele>203</ele>
        <time>2016-02-04T10:38:06Z</time>
      </trkpt>
      <trkpt lat="48.21696" lon="-3.15764">
        <ele>203</ele>
        <time>2016-02-04T10:38:10Z</time>
      </trkpt>
      <trkpt lat="48.21695" lon="-3.1576">
        <ele>203</ele>
        <time>2016-02-04T10:38:14Z</time>
      </trkpt>
      <trkpt lat="48.21694" lon="-3.15757">
        <ele>203</ele>
        <time>2016-02-04T10:38:17Z</time>
      </trkpt>
      <trkpt lat="48.21691" lon="-3.15752">
        <ele>203</ele>
        <time>2016-02-04T10:38:21Z</time>
      </trkpt>
      <trkpt lat="48.21689" lon="-3.15747">
        <ele>203</ele>
        <time>2016-02-04T10:38:25Z</time>
      </trkpt>
      <trkpt lat="48.21688" lon="-3.15741">
        <ele>203</ele>
        <time>2016-02-04T10:38:29Z</time>
      </trkpt>
      <trkpt lat="48.21687" lon="-3.15737">
        <ele>203</ele>
        <time>2016-02-04T10:38:33Z</time>
      </trkpt>
      <trkpt lat="48.21685" lon="-3.15733">
        <ele>203</ele>
        <time>2016-02-04T10:38:39Z</time>
      </trkpt>
      <trkpt lat="48.21683" lon="-3.15728">
        <ele>203</ele>
        <time>2016-02-04T10:38:43Z</time>
      </trkpt>
      <trkpt lat="48.2168" lon="-3.15723">
        <ele>204</ele>
        <time>2016-02-04T10:38:47Z</time>
      </trkpt>
      <trkpt lat="48.21679" lon="-3.15718">
        <ele>204</ele>
        <time>2016-02-04T10:38:50Z</time>
      </trkpt>
      <trkpt lat="48.21676" lon="-3.15713">
        <ele>204</ele>
        <time>2016-02-04T10:38:53Z</time>
      </trkpt>
      <trkpt lat="48.21672" lon="-3.15709">
        <ele>205</ele>
        <time>2016-02-04T10:38:57Z</time>
      </trkpt>
      <trkpt lat="48.21669" lon="-3.15703">
        <ele>205</ele>
        <time>2016-02-04T10:39:01Z</time>
      </trkpt>
      <trkpt lat="48.21667" lon="-3.15698">
        <ele>205</ele>
        <time>2016-02-04T10:39:05Z</time>
      </trkpt>
      <trkpt lat="48.21668" lon="-3.15692">
        <ele>206</ele>
        <time>2016-02-04T10:39:08Z</time>
      </trkpt>
      <trkpt lat="48.21668" lon="-3.15686">
        <ele>206</ele>
        <time>2016-02-04T10:39:11Z</time>
      </trkpt>
      <trkpt lat="48.21668" lon="-3.1568">
        <ele>206</ele>
        <time>2016-02-04T10:39:15Z</time>
      </trkpt>
      <trkpt lat="48.21668" lon="-3.15674">
        <ele>206</ele>
        <time>2016-02-04T10:39:18Z</time>
      </trkpt>
      <trkpt lat="48.21669" lon="-3.1567">
        <ele>206</ele>
        <time>2016-02-04T10:39:21Z</time>
      </trkpt>
      <trkpt lat="48.21669" lon="-3.15665">
        <ele>206</ele>
        <time>2016-02-04T10:39:24Z</time>
      </trkpt>
      <trkpt lat="48.21669" lon="-3.1566">
        <ele>207</ele>
        <time>2016-02-04T10:39:27Z</time>
      </trkpt>
      <trkpt lat="48.2167" lon="-3.15654">
        <ele>207</ele>
        <time>2016-02-04T10:39:31Z</time>
      </trkpt>
      <trkpt lat="48.21672" lon="-3.15648">
        <ele>207</ele>
        <time>2016-02-04T10:39:35Z</time>
      </trkpt>
      <trkpt lat="48.21674" lon="-3.15642">
        <ele>208</ele>
        <time>2016-02-04T10:39:39Z</time>
      </trkpt>
      <trkpt lat="48.21676" lon="-3.15637">
        <ele>208</ele>
        <time>2016-02-04T10:39:43Z</time>
      </trkpt>
      <trkpt lat="48.21677" lon="-3.15632">
        <ele>208</ele>
        <time>2016-02-04T10:39:46Z</time>
      </trkpt>
      <trkpt lat="48.21679" lon="-3.15626">
        <ele>208</ele>
        <time>2016-02-04T10:39:50Z</time>
      </trkpt>
      <trkpt lat="48.2168" lon="-3.15622">
        <ele>208</ele>
        <time>2016-02-04T10:39:53Z</time>
      </trkpt>
      <trkpt lat="48.2168" lon="-3.15617">
        <ele>208</ele>
        <time>2016-02-04T10:39:56Z</time>
      </trkpt>
      <trkpt lat="48.2168" lon="-3.15612">
        <ele>208</ele>
        <time>2016-02-04T10:39:59Z</time>
      </trkpt>
      <trkpt lat="48.21682" lon="-3.15606">
        <ele>208</ele>
        <time>2016-02-04T10:40:03Z</time>
      </trkpt>
      <trkpt lat="48.21685" lon="-3.156">
        <ele>208</ele>
        <time>2016-02-04T10:40:07Z</time>
      </trkpt>
      <trkpt lat="48.21687" lon="-3.15595">
        <ele>208</ele>
        <time>2016-02-04T10:40:10Z</time>
      </trkpt>
      <trkpt lat="48.21688" lon="-3.15589">
        <ele>208</ele>
        <time>2016-02-04T10:40:13Z</time>
      </trkpt>
      <trkpt lat="48.2169" lon="-3.15583">
        <ele>208</ele>
        <time>2016-02-04T10:40:17Z</time>
      </trkpt>
      <trkpt lat="48.21693" lon="-3.15578">
        <ele>208</ele>
        <time>2016-02-04T10:40:21Z</time>
      </trkpt>
      <trkpt lat="48.21695" lon="-3.15573">
        <ele>208</ele>
        <time>2016-02-04T10:40:24Z</time>
      </trkpt>
      <trkpt lat="48.21697" lon="-3.15568">
        <ele>208</ele>
        <time>2016-02-04T10:40:27Z</time>
      </trkpt>
      <trkpt lat="48.21698" lon="-3.15562">
        <ele>208</ele>
        <time>2016-02-04T10:40:31Z</time>
      </trkpt>
      <trkpt lat="48.21701" lon="-3.15555">
        <ele>208</ele>
        <time>2016-02-04T10:40:35Z</time>
      </trkpt>
      <trkpt lat="48.21702" lon="-3.15549">
        <ele>208</ele>
        <time>2016-02-04T10:40:38Z</time>
      </trkpt>
      <trkpt lat="48.21703" lon="-3.15545">
        <ele>208</ele>
        <time>2016-02-04T10:40:41Z</time>
      </trkpt>
      <trkpt lat="48.21704" lon="-3.1554">
        <ele>208</ele>
        <time>2016-02-04T10:40:44Z</time>
      </trkpt>
      <trkpt lat="48.21705" lon="-3.15534">
        <ele>208</ele>
        <time>2016-02-04T10:40:47Z</time>
      </trkpt>
      <trkpt lat="48.21706" lon="-3.15529">
        <ele>208</ele>
        <time>2016-02-04T10:40:50Z</time>
      </trkpt>
      <trkpt lat="48.21707" lon="-3.15523">
        <ele>208</ele>
        <time>2016-02-04T10:40:54Z</time>
      </trkpt>
      <trkpt lat="48.21709" lon="-3.15518">
        <ele>208</ele>
        <time>2016-02-04T10:40:57Z</time>
      </trkpt>
      <trkpt lat="48.2171" lon="-3.15514">
        <ele>208</ele>
        <time>2016-02-04T10:41:00Z</time>
      </trkpt>
      <trkpt lat="48.21709" lon="-3.15508">
        <ele>208</ele>
        <time>2016-02-04T10:41:03Z</time>
      </trkpt>
      <trkpt lat="48.2171" lon="-3.15503">
        <ele>208</ele>
        <time>2016-02-04T10:41:06Z</time>
      </trkpt>
      <trkpt lat="48.2171" lon="-3.15498">
        <ele>208</ele>
        <time>2016-02-04T10:41:09Z</time>
      </trkpt>
      <trkpt lat="48.21711" lon="-3.15492">
        <ele>208</ele>
        <time>2016-02-04T10:41:12Z</time>
      </trkpt>
      <trkpt lat="48.21712" lon="-3.15488">
        <ele>208</ele>
        <time>2016-02-04T10:41:15Z</time>
      </trkpt>
      <trkpt lat="48.21713" lon="-3.15483">
        <ele>208</ele>
        <time>2016-02-04T10:41:18Z</time>
      </trkpt>
      <trkpt lat="48.21715" lon="-3.15477">
        <ele>208</ele>
        <time>2016-02-04T10:41:22Z</time>
      </trkpt>
      <trkpt lat="48.21716" lon="-3.15472">
        <ele>209</ele>
        <time>2016-02-04T10:41:25Z</time>
      </trkpt>
      <trkpt lat="48.21717" lon="-3.15467">
        <ele>209</ele>
        <time>2016-02-04T10:41:29Z</time>
      </trkpt>
      <trkpt lat="48.21719" lon="-3.15462">
        <ele>210</ele>
        <time>2016-02-04T10:41:32Z</time>
      </trkpt>
      <trkpt lat="48.21721" lon="-3.15457">
        <ele>211</ele>
        <time>2016-02-04T10:41:36Z</time>
      </trkpt>
      <trkpt lat="48.21722" lon="-3.15453">
        <ele>212</ele>
        <time>2016-02-04T10:41:39Z</time>
      </trkpt>
      <trkpt lat="48.21724" lon="-3.15449">
        <ele>214</ele>
        <time>2016-02-04T10:41:42Z</time>
      </trkpt>
      <trkpt lat="48.21725" lon="-3.15444">
        <ele>215</ele>
        <time>2016-02-04T10:41:46Z</time>
      </trkpt>
      <trkpt lat="48.21725" lon="-3.1544">
        <ele>215</ele>
        <time>2016-02-04T10:41:50Z</time>
      </trkpt>
      <trkpt lat="48.21724" lon="-3.15435">
        <ele>217</ele>
        <time>2016-02-04T10:41:53Z</time>
      </trkpt>
      <trkpt lat="48.21724" lon="-3.15433">
        <ele>218</ele>
        <time>2016-02-04T10:41:57Z</time>
      </trkpt>
      <trkpt lat="48.21726" lon="-3.15431">
        <ele>219</ele>
        <time>2016-02-04T10:42:01Z</time>
      </trkpt>
      <trkpt lat="48.21725" lon="-3.1543">
        <ele>223</ele>
        <time>2016-02-04T10:42:31Z</time>
      </trkpt>
      <trkpt lat="48.21725" lon="-3.15428">
        <ele>223</ele>
        <time>2016-02-04T10:42:50Z</time>
      </trkpt>
      <trkpt lat="48.21725" lon="-3.15426">
        <ele>223</ele>
        <time>2016-02-04T10:42:53Z</time>
      </trkpt>
      <trkpt lat="48.21727" lon="-3.15423">
        <ele>223</ele>
        <time>2016-02-04T10:42:57Z</time>
      </trkpt>
      <trkpt lat="48.21728" lon="-3.15418">
        <ele>223</ele>
        <time>2016-02-04T10:43:01Z</time>
      </trkpt>
      <trkpt lat="48.21729" lon="-3.15412">
        <ele>223</ele>
        <time>2016-02-04T10:43:05Z</time>
      </trkpt>
      <trkpt lat="48.21729" lon="-3.15407">
        <ele>223</ele>
        <time>2016-02-04T10:43:08Z</time>
      </trkpt>
      <trkpt lat="48.2173" lon="-3.15403">
        <ele>223</ele>
        <time>2016-02-04T10:43:11Z</time>
      </trkpt>
      <trkpt lat="48.21731" lon="-3.15398">
        <ele>223</ele>
        <time>2016-02-04T10:43:14Z</time>
      </trkpt>
      <trkpt lat="48.21732" lon="-3.15392">
        <ele>223</ele>
        <time>2016-02-04T10:43:18Z</time>
      </trkpt>
      <trkpt lat="48.2173" lon="-3.15387">
        <ele>223</ele>
        <time>2016-02-04T10:43:21Z</time>
      </trkpt>
      <trkpt lat="48.21729" lon="-3.15382">
        <ele>223</ele>
        <time>2016-02-04T10:43:25Z</time>
      </trkpt>
      <trkpt lat="48.21729" lon="-3.15376">
        <ele>223</ele>
        <time>2016-02-04T10:43:29Z</time>
      </trkpt>
      <trkpt lat="48.21727" lon="-3.15371">
        <ele>223</ele>
        <time>2016-02-04T10:43:33Z</time>
      </trkpt>
      <trkpt lat="48.21724" lon="-3.15367">
        <ele>223</ele>
        <time>2016-02-04T10:43:37Z</time>
      </trkpt>
      <trkpt lat="48.21723" lon="-3.15363">
        <ele>223</ele>
        <time>2016-02-04T10:43:40Z</time>
      </trkpt>
      <trkpt lat="48.21723" lon="-3.15358">
        <ele>223</ele>
        <time>2016-02-04T10:43:50Z</time>
      </trkpt>
      <trkpt lat="48.21724" lon="-3.15353">
        <ele>223</ele>
        <time>2016-02-04T10:43:54Z</time>
      </trkpt>
      <trkpt lat="48.21725" lon="-3.15348">
        <ele>223</ele>
        <time>2016-02-04T10:43:57Z</time>
      </trkpt>
      <trkpt lat="48.21726" lon="-3.15341">
        <ele>223</ele>
        <time>2016-02-04T10:44:01Z</time>
      </trkpt>
      <trkpt lat="48.21727" lon="-3.15335">
        <ele>223</ele>
        <time>2016-02-04T10:44:04Z</time>
      </trkpt>
      <trkpt lat="48.21727" lon="-3.15329">
        <ele>223</ele>
        <time>2016-02-04T10:44:07Z</time>
      </trkpt>
      <trkpt lat="48.21728" lon="-3.15324">
        <ele>223</ele>
        <time>2016-02-04T10:44:10Z</time>
      </trkpt>
      <trkpt lat="48.2173" lon="-3.15319">
        <ele>223</ele>
        <time>2016-02-04T10:44:13Z</time>
      </trkpt>
      <trkpt lat="48.21732" lon="-3.15314">
        <ele>223</ele>
        <time>2016-02-04T10:44:17Z</time>
      </trkpt>
      <trkpt lat="48.21735" lon="-3.15309">
        <ele>223</ele>
        <time>2016-02-04T10:44:21Z</time>
      </trkpt>
      <trkpt lat="48.21737" lon="-3.15304">
        <ele>223</ele>
        <time>2016-02-04T10:44:25Z</time>
      </trkpt>
      <trkpt lat="48.21739" lon="-3.15299">
        <ele>223</ele>
        <time>2016-02-04T10:44:29Z</time>
      </trkpt>
      <trkpt lat="48.2174" lon="-3.15293">
        <ele>223</ele>
        <time>2016-02-04T10:44:33Z</time>
      </trkpt>
      <trkpt lat="48.21741" lon="-3.15289">
        <ele>223</ele>
        <time>2016-02-04T10:44:36Z</time>
      </trkpt>
      <trkpt lat="48.21743" lon="-3.15284">
        <ele>223</ele>
        <time>2016-02-04T10:44:39Z</time>
      </trkpt>
      <trkpt lat="48.21743" lon="-3.15278">
        <ele>223</ele>
        <time>2016-02-04T10:44:43Z</time>
      </trkpt>
      <trkpt lat="48.21742" lon="-3.15271">
        <ele>223</ele>
        <time>2016-02-04T10:44:47Z</time>
      </trkpt>
      <trkpt lat="48.2174" lon="-3.15266">
        <ele>223</ele>
        <time>2016-02-04T10:44:50Z</time>
      </trkpt>
      <trkpt lat="48.21739" lon="-3.15261">
        <ele>223</ele>
        <time>2016-02-04T10:44:53Z</time>
      </trkpt>
      <trkpt lat="48.21739" lon="-3.15255">
        <ele>223</ele>
        <time>2016-02-04T10:44:56Z</time>
      </trkpt>
      <trkpt lat="48.2174" lon="-3.15249">
        <ele>223</ele>
        <time>2016-02-04T10:45:00Z</time>
      </trkpt>
      <trkpt lat="48.21739" lon="-3.15243">
        <ele>223</ele>
        <time>2016-02-04T10:45:04Z</time>
      </trkpt>
      <trkpt lat="48.21738" lon="-3.15237">
        <ele>223</ele>
        <time>2016-02-04T10:45:08Z</time>
      </trkpt>
      <trkpt lat="48.21739" lon="-3.15231">
        <ele>223</ele>
        <time>2016-02-04T10:45:12Z</time>
      </trkpt>
      <trkpt lat="48.2174" lon="-3.15225">
        <ele>223</ele>
        <time>2016-02-04T10:45:16Z</time>
      </trkpt>
      <trkpt lat="48.21741" lon="-3.15219">
        <ele>223</ele>
        <time>2016-02-04T10:45:20Z</time>
      </trkpt>
      <trkpt lat="48.21742" lon="-3.15215">
        <ele>223</ele>
        <time>2016-02-04T10:45:25Z</time>
      </trkpt>
      <trkpt lat="48.21742" lon="-3.15211">
        <ele>223</ele>
        <time>2016-02-04T10:45:28Z</time>
      </trkpt>
      <trkpt lat="48.21743" lon="-3.15206">
        <ele>223</ele>
        <time>2016-02-04T10:45:31Z</time>
      </trkpt>
      <trkpt lat="48.21745" lon="-3.15201">
        <ele>223</ele>
        <time>2016-02-04T10:45:34Z</time>
      </trkpt>
      <trkpt lat="48.21747" lon="-3.15195">
        <ele>223</ele>
        <time>2016-02-04T10:45:38Z</time>
      </trkpt>
      <trkpt lat="48.21748" lon="-3.1519">
        <ele>223</ele>
        <time>2016-02-04T10:45:41Z</time>
      </trkpt>
      <trkpt lat="48.21748" lon="-3.15184">
        <ele>223</ele>
        <time>2016-02-04T10:45:44Z</time>
      </trkpt>
      <trkpt lat="48.21747" lon="-3.15178">
        <ele>223</ele>
        <time>2016-02-04T10:45:47Z</time>
      </trkpt>
      <trkpt lat="48.21748" lon="-3.15174">
        <ele>223</ele>
        <time>2016-02-04T10:45:50Z</time>
      </trkpt>
      <trkpt lat="48.21748" lon="-3.15167">
        <ele>223</ele>
        <time>2016-02-04T10:45:54Z</time>
      </trkpt>
      <trkpt lat="48.21748" lon="-3.15162">
        <ele>222</ele>
        <time>2016-02-04T10:45:57Z</time>
      </trkpt>
      <trkpt lat="48.21748" lon="-3.15156">
        <ele>222</ele>
        <time>2016-02-04T10:46:01Z</time>
      </trkpt>
      <trkpt lat="48.21749" lon="-3.15151">
        <ele>222</ele>
        <time>2016-02-04T10:46:04Z</time>
      </trkpt>
      <trkpt lat="48.2175" lon="-3.15146">
        <ele>221</ele>
        <time>2016-02-04T10:46:07Z</time>
      </trkpt>
      <trkpt lat="48.21751" lon="-3.15142">
        <ele>221</ele>
        <time>2016-02-04T10:46:10Z</time>
      </trkpt>
      <trkpt lat="48.21751" lon="-3.15135">
        <ele>221</ele>
        <time>2016-02-04T10:46:14Z</time>
      </trkpt>
      <trkpt lat="48.21752" lon="-3.1513">
        <ele>221</ele>
        <time>2016-02-04T10:46:17Z</time>
      </trkpt>
      <trkpt lat="48.21753" lon="-3.15124">
        <ele>221</ele>
        <time>2016-02-04T10:46:21Z</time>
      </trkpt>
      <trkpt lat="48.21754" lon="-3.15118">
        <ele>221</ele>
        <time>2016-02-04T10:46:25Z</time>
      </trkpt>
      <trkpt lat="48.21756" lon="-3.15112">
        <ele>221</ele>
        <time>2016-02-04T10:46:29Z</time>
      </trkpt>
      <trkpt lat="48.21757" lon="-3.15107">
        <ele>221</ele>
        <time>2016-02-04T10:46:33Z</time>
      </trkpt>
      <trkpt lat="48.21757" lon="-3.15101">
        <ele>221</ele>
        <time>2016-02-04T10:46:37Z</time>
      </trkpt>
      <trkpt lat="48.21757" lon="-3.15095">
        <ele>221</ele>
        <time>2016-02-04T10:46:41Z</time>
      </trkpt>
      <trkpt lat="48.21758" lon="-3.1509">
        <ele>220</ele>
        <time>2016-02-04T10:46:44Z</time>
      </trkpt>
      <trkpt lat="48.21759" lon="-3.15086">
        <ele>220</ele>
        <time>2016-02-04T10:46:47Z</time>
      </trkpt>
      <trkpt lat="48.21759" lon="-3.15081">
        <ele>220</ele>
        <time>2016-02-04T10:46:50Z</time>
      </trkpt>
      <trkpt lat="48.21759" lon="-3.15075">
        <ele>220</ele>
        <time>2016-02-04T10:46:54Z</time>
      </trkpt>
      <trkpt lat="48.21759" lon="-3.1507">
        <ele>220</ele>
        <time>2016-02-04T10:46:57Z</time>
      </trkpt>
      <trkpt lat="48.21759" lon="-3.15065">
        <ele>220</ele>
        <time>2016-02-04T10:47:00Z</time>
      </trkpt>
      <trkpt lat="48.21759" lon="-3.15061">
        <ele>220</ele>
        <time>2016-02-04T10:47:03Z</time>
      </trkpt>
      <trkpt lat="48.21758" lon="-3.15055">
        <ele>220</ele>
        <time>2016-02-04T10:47:07Z</time>
      </trkpt>
      <trkpt lat="48.21758" lon="-3.15048">
        <ele>220</ele>
        <time>2016-02-04T10:47:11Z</time>
      </trkpt>
      <trkpt lat="48.21757" lon="-3.15044">
        <ele>220</ele>
        <time>2016-02-04T10:47:14Z</time>
      </trkpt>
      <trkpt lat="48.21757" lon="-3.15039">
        <ele>220</ele>
        <time>2016-02-04T10:47:17Z</time>
      </trkpt>
      <trkpt lat="48.21756" lon="-3.15033">
        <ele>220</ele>
        <time>2016-02-04T10:47:21Z</time>
      </trkpt>
      <trkpt lat="48.21756" lon="-3.15029">
        <ele>219</ele>
        <time>2016-02-04T10:47:24Z</time>
      </trkpt>
      <trkpt lat="48.21756" lon="-3.15023">
        <ele>219</ele>
        <time>2016-02-04T10:47:28Z</time>
      </trkpt>
      <trkpt lat="48.21755" lon="-3.15017">
        <ele>219</ele>
        <time>2016-02-04T10:47:32Z</time>
      </trkpt>
      <trkpt lat="48.21755" lon="-3.15011">
        <ele>218</ele>
        <time>2016-02-04T10:47:36Z</time>
      </trkpt>
      <trkpt lat="48.21755" lon="-3.15005">
        <ele>217</ele>
        <time>2016-02-04T10:47:40Z</time>
      </trkpt>
      <trkpt lat="48.21755" lon="-3.15">
        <ele>216</ele>
        <time>2016-02-04T10:47:44Z</time>
      </trkpt>
      <trkpt lat="48.21755" lon="-3.14994">
        <ele>216</ele>
        <time>2016-02-04T10:47:48Z</time>
      </trkpt>
      <trkpt lat="48.21755" lon="-3.14989">
        <ele>216</ele>
        <time>2016-02-04T10:47:51Z</time>
      </trkpt>
      <trkpt lat="48.21755" lon="-3.14984">
        <ele>215</ele>
        <time>2016-02-04T10:47:54Z</time>
      </trkpt>
      <trkpt lat="48.21754" lon="-3.14979">
        <ele>214</ele>
        <time>2016-02-04T10:47:58Z</time>
      </trkpt>
      <trkpt lat="48.21754" lon="-3.14973">
        <ele>214</ele>
        <time>2016-02-04T10:48:02Z</time>
      </trkpt>
      <trkpt lat="48.21753" lon="-3.14969">
        <ele>213</ele>
        <time>2016-02-04T10:48:05Z</time>
      </trkpt>
      <trkpt lat="48.21752" lon="-3.14964">
        <ele>213</ele>
        <time>2016-02-04T10:48:08Z</time>
      </trkpt>
      <trkpt lat="48.21752" lon="-3.14959">
        <ele>213</ele>
        <time>2016-02-04T10:48:11Z</time>
      </trkpt>
      <trkpt lat="48.21752" lon="-3.14954">
        <ele>213</ele>
        <time>2016-02-04T10:48:14Z</time>
      </trkpt>
      <trkpt lat="48.21753" lon="-3.1495">
        <ele>213</ele>
        <time>2016-02-04T10:48:17Z</time>
      </trkpt>
      <trkpt lat="48.21755" lon="-3.14946">
        <ele>213</ele>
        <time>2016-02-04T10:48:21Z</time>
      </trkpt>
      <trkpt lat="48.21756" lon="-3.1494">
        <ele>213</ele>
        <time>2016-02-04T10:48:25Z</time>
      </trkpt>
      <trkpt lat="48.21757" lon="-3.14936">
        <ele>213</ele>
        <time>2016-02-04T10:48:28Z</time>
      </trkpt>
      <trkpt lat="48.21758" lon="-3.14931">
        <ele>213</ele>
        <time>2016-02-04T10:48:31Z</time>
      </trkpt>
      <trkpt lat="48.21759" lon="-3.14925">
        <ele>213</ele>
        <time>2016-02-04T10:48:35Z</time>
      </trkpt>
      <trkpt lat="48.21761" lon="-3.1492">
        <ele>213</ele>
        <time>2016-02-04T10:48:38Z</time>
      </trkpt>
      <trkpt lat="48.21762" lon="-3.14915">
        <ele>213</ele>
        <time>2016-02-04T10:48:42Z</time>
      </trkpt>
      <trkpt lat="48.21763" lon="-3.1491">
        <ele>213</ele>
        <time>2016-02-04T10:48:46Z</time>
      </trkpt>
      <trkpt lat="48.21764" lon="-3.14905">
        <ele>213</ele>
        <time>2016-02-04T10:48:50Z</time>
      </trkpt>
      <trkpt lat="48.21764" lon="-3.149">
        <ele>213</ele>
        <time>2016-02-04T10:48:54Z</time>
      </trkpt>
      <trkpt lat="48.21766" lon="-3.14895">
        <ele>213</ele>
        <time>2016-02-04T10:48:58Z</time>
      </trkpt>
      <trkpt lat="48.21767" lon="-3.14891">
        <ele>213</ele>
        <time>2016-02-04T10:49:02Z</time>
      </trkpt>
      <trkpt lat="48.21767" lon="-3.14887">
        <ele>213</ele>
        <time>2016-02-04T10:49:06Z</time>
      </trkpt>
      <trkpt lat="48.21768" lon="-3.14881">
        <ele>213</ele>
        <time>2016-02-04T10:49:10Z</time>
      </trkpt>
      <trkpt lat="48.21768" lon="-3.14878">
        <ele>213</ele>
        <time>2016-02-04T10:49:13Z</time>
      </trkpt>
      <trkpt lat="48.21769" lon="-3.14873">
        <ele>213</ele>
        <time>2016-02-04T10:49:17Z</time>
      </trkpt>
      <trkpt lat="48.21769" lon="-3.14869">
        <ele>213</ele>
        <time>2016-02-04T10:49:21Z</time>
      </trkpt>
      <trkpt lat="48.21769" lon="-3.14864">
        <ele>213</ele>
        <time>2016-02-04T10:49:25Z</time>
      </trkpt>
      <trkpt lat="48.2177" lon="-3.1486">
        <ele>213</ele>
        <time>2016-02-04T10:49:29Z</time>
      </trkpt>
      <trkpt lat="48.21771" lon="-3.14855">
        <ele>213</ele>
        <time>2016-02-04T10:49:33Z</time>
      </trkpt>
      <trkpt lat="48.2177" lon="-3.1485">
        <ele>213</ele>
        <time>2016-02-04T10:49:37Z</time>
      </trkpt>
      <trkpt lat="48.21771" lon="-3.14844">
        <ele>213</ele>
        <time>2016-02-04T10:49:41Z</time>
      </trkpt>
      <trkpt lat="48.21772" lon="-3.14839">
        <ele>213</ele>
        <time>2016-02-04T10:49:44Z</time>
      </trkpt>
      <trkpt lat="48.21772" lon="-3.14834">
        <ele>213</ele>
        <time>2016-02-04T10:49:48Z</time>
      </trkpt>
      <trkpt lat="48.21772" lon="-3.14829">
        <ele>213</ele>
        <time>2016-02-04T10:49:52Z</time>
      </trkpt>
      <trkpt lat="48.21772" lon="-3.14824">
        <ele>213</ele>
        <time>2016-02-04T10:49:56Z</time>
      </trkpt>
      <trkpt lat="48.21772" lon="-3.14817">
        <ele>213</ele>
        <time>2016-02-04T10:50:00Z</time>
      </trkpt>
      <trkpt lat="48.21771" lon="-3.14812">
        <ele>214</ele>
        <time>2016-02-04T10:50:04Z</time>
      </trkpt>
      <trkpt lat="48.21771" lon="-3.14807">
        <ele>215</ele>
        <time>2016-02-04T10:50:08Z</time>
      </trkpt>
      <trkpt lat="48.2177" lon="-3.14801">
        <ele>216</ele>
        <time>2016-02-04T10:50:12Z</time>
      </trkpt>
      <trkpt lat="48.2177" lon="-3.14796">
        <ele>216</ele>
        <time>2016-02-04T10:50:16Z</time>
      </trkpt>
      <trkpt lat="48.2177" lon="-3.14794">
        <ele>216</ele>
        <time>2016-02-04T10:50:19Z</time>
      </trkpt>
      <trkpt lat="48.21771" lon="-3.14788">
        <ele>217</ele>
        <time>2016-02-04T10:50:23Z</time>
      </trkpt>
      <trkpt lat="48.21772" lon="-3.14783">
        <ele>217</ele>
        <time>2016-02-04T10:50:27Z</time>
      </trkpt>
      <trkpt lat="48.21772" lon="-3.14778">
        <ele>218</ele>
        <time>2016-02-04T10:50:31Z</time>
      </trkpt>
      <trkpt lat="48.21772" lon="-3.14773">
        <ele>218</ele>
        <time>2016-02-04T10:50:35Z</time>
      </trkpt>
      <trkpt lat="48.21773" lon="-3.14768">
        <ele>219</ele>
        <time>2016-02-04T10:50:39Z</time>
      </trkpt>
      <trkpt lat="48.21773" lon="-3.14762">
        <ele>220</ele>
        <time>2016-02-04T10:50:43Z</time>
      </trkpt>
      <trkpt lat="48.21774" lon="-3.14757">
        <ele>221</ele>
        <time>2016-02-04T10:50:47Z</time>
      </trkpt>
      <trkpt lat="48.21774" lon="-3.14752">
        <ele>221</ele>
        <time>2016-02-04T10:50:50Z</time>
      </trkpt>
      <trkpt lat="48.21775" lon="-3.14747">
        <ele>223</ele>
        <time>2016-02-04T10:50:54Z</time>
      </trkpt>
      <trkpt lat="48.21777" lon="-3.14743">
        <ele>224</ele>
        <time>2016-02-04T10:50:58Z</time>
      </trkpt>
      <trkpt lat="48.21778" lon="-3.14738">
        <ele>224</ele>
        <time>2016-02-04T10:51:02Z</time>
      </trkpt>
      <trkpt lat="48.2178" lon="-3.14733">
        <ele>225</ele>
        <time>2016-02-04T10:51:06Z</time>
      </trkpt>
      <trkpt lat="48.21782" lon="-3.14729">
        <ele>226</ele>
        <time>2016-02-04T10:51:10Z</time>
      </trkpt>
      <trkpt lat="48.21784" lon="-3.14725">
        <ele>226</ele>
        <time>2016-02-04T10:51:14Z</time>
      </trkpt>
      <trkpt lat="48.21785" lon="-3.14723">
        <ele>226</ele>
        <time>2016-02-04T10:51:17Z</time>
      </trkpt>
      <trkpt lat="48.21786" lon="-3.14719">
        <ele>227</ele>
        <time>2016-02-04T10:51:21Z</time>
      </trkpt>
      <trkpt lat="48.21788" lon="-3.14715">
        <ele>227</ele>
        <time>2016-02-04T10:51:24Z</time>
      </trkpt>
      <trkpt lat="48.21788" lon="-3.14711">
        <ele>227</ele>
        <time>2016-02-04T10:51:27Z</time>
      </trkpt>
      <trkpt lat="48.21789" lon="-3.14705">
        <ele>228</ele>
        <time>2016-02-04T10:51:31Z</time>
      </trkpt>
      <trkpt lat="48.2179" lon="-3.147">
        <ele>228</ele>
        <time>2016-02-04T10:51:35Z</time>
      </trkpt>
      <trkpt lat="48.2179" lon="-3.14696">
        <ele>228</ele>
        <time>2016-02-04T10:51:39Z</time>
      </trkpt>
      <trkpt lat="48.2179" lon="-3.1469">
        <ele>228</ele>
        <time>2016-02-04T10:51:43Z</time>
      </trkpt>
      <trkpt lat="48.2179" lon="-3.14685">
        <ele>228</ele>
        <time>2016-02-04T10:51:47Z</time>
      </trkpt>
      <trkpt lat="48.2179" lon="-3.1468">
        <ele>229</ele>
        <time>2016-02-04T10:51:51Z</time>
      </trkpt>
      <trkpt lat="48.21791" lon="-3.14675">
        <ele>229</ele>
        <time>2016-02-04T10:51:55Z</time>
      </trkpt>
      <trkpt lat="48.21791" lon="-3.1467">
        <ele>229</ele>
        <time>2016-02-04T10:51:59Z</time>
      </trkpt>
      <trkpt lat="48.21793" lon="-3.14666">
        <ele>229</ele>
        <time>2016-02-04T10:52:04Z</time>
      </trkpt>
      <trkpt lat="48.21795" lon="-3.14662">
        <ele>230</ele>
        <time>2016-02-04T10:52:08Z</time>
      </trkpt>
      <trkpt lat="48.21796" lon="-3.1466">
        <ele>230</ele>
        <time>2016-02-04T10:52:11Z</time>
      </trkpt>
      <trkpt lat="48.21798" lon="-3.14656">
        <ele>230</ele>
        <time>2016-02-04T10:52:15Z</time>
      </trkpt>
      <trkpt lat="48.21798" lon="-3.14652">
        <ele>231</ele>
        <time>2016-02-04T10:52:19Z</time>
      </trkpt>
      <trkpt lat="48.21799" lon="-3.14647">
        <ele>231</ele>
        <time>2016-02-04T10:52:23Z</time>
      </trkpt>
      <trkpt lat="48.21798" lon="-3.14644">
        <ele>233</ele>
        <time>2016-02-04T10:52:30Z</time>
      </trkpt>
      <trkpt lat="48.21797" lon="-3.14643">
        <ele>236</ele>
        <time>2016-02-04T10:53:00Z</time>
      </trkpt>
      <trkpt lat="48.21797" lon="-3.14641">
        <ele>236</ele>
        <time>2016-02-04T10:53:07Z</time>
      </trkpt>
      <trkpt lat="48.21798" lon="-3.14641">
        <ele>236</ele>
        <time>2016-02-04T10:53:10Z</time>
      </trkpt>
      <trkpt lat="48.21799" lon="-3.14644">
        <ele>236</ele>
        <time>2016-02-04T10:53:23Z</time>
      </trkpt>
      <trkpt lat="48.21798" lon="-3.14648">
        <ele>236</ele>
        <time>2016-02-04T10:53:27Z</time>
      </trkpt>
      <trkpt lat="48.21801" lon="-3.14651">
        <ele>236</ele>
        <time>2016-02-04T10:53:31Z</time>
      </trkpt>
      <trkpt lat="48.21803" lon="-3.14653">
        <ele>236</ele>
        <time>2016-02-04T10:53:35Z</time>
      </trkpt>
      <trkpt lat="48.21806" lon="-3.14654">
        <ele>236</ele>
        <time>2016-02-04T10:53:39Z</time>
      </trkpt>
      <trkpt lat="48.21807" lon="-3.14654">
        <ele>236</ele>
        <time>2016-02-04T10:53:42Z</time>
      </trkpt>
      <trkpt lat="48.21805" lon="-3.14654">
        <ele>237</ele>
        <time>2016-02-04T10:54:06Z</time>
      </trkpt>
      <trkpt lat="48.21804" lon="-3.14653">
        <ele>237</ele>
        <time>2016-02-04T10:54:11Z</time>
      </trkpt>
      <trkpt lat="48.21805" lon="-3.14653">
        <ele>237</ele>
        <time>2016-02-04T10:54:21Z</time>
      </trkpt>
      <trkpt lat="48.21804" lon="-3.14654">
        <ele>237</ele>
        <time>2016-02-04T10:54:33Z</time>
      </trkpt>
      <trkpt lat="48.21801" lon="-3.14651">
        <ele>237</ele>
        <time>2016-02-04T10:54:37Z</time>
      </trkpt>
      <trkpt lat="48.21798" lon="-3.14646">
        <ele>237</ele>
        <time>2016-02-04T10:54:41Z</time>
      </trkpt>
      <trkpt lat="48.21797" lon="-3.14642">
        <ele>237</ele>
        <time>2016-02-04T10:54:44Z</time>
      </trkpt>
      <trkpt lat="48.21798" lon="-3.14637">
        <ele>237</ele>
        <time>2016-02-04T10:54:48Z</time>
      </trkpt>
      <trkpt lat="48.21798" lon="-3.14632">
        <ele>237</ele>
        <time>2016-02-04T10:54:51Z</time>
      </trkpt>
      <trkpt lat="48.21798" lon="-3.14626">
        <ele>237</ele>
        <time>2016-02-04T10:54:54Z</time>
      </trkpt>
      <trkpt lat="48.218" lon="-3.14621">
        <ele>237</ele>
        <time>2016-02-04T10:54:57Z</time>
      </trkpt>
      <trkpt lat="48.21799" lon="-3.14617">
        <ele>237</ele>
        <time>2016-02-04T10:55:01Z</time>
      </trkpt>
      <trkpt lat="48.21799" lon="-3.14615">
        <ele>237</ele>
        <time>2016-02-04T10:55:06Z</time>
      </trkpt>
      <trkpt lat="48.21798" lon="-3.14608">
        <ele>238</ele>
        <time>2016-02-04T10:55:10Z</time>
      </trkpt>
      <trkpt lat="48.21798" lon="-3.14603">
        <ele>238</ele>
        <time>2016-02-04T10:55:14Z</time>
      </trkpt>
      <trkpt lat="48.21798" lon="-3.14597">
        <ele>239</ele>
        <time>2016-02-04T10:55:18Z</time>
      </trkpt>
      <trkpt lat="48.21799" lon="-3.14593">
        <ele>239</ele>
        <time>2016-02-04T10:55:21Z</time>
      </trkpt>
      <trkpt lat="48.21801" lon="-3.14589">
        <ele>239</ele>
        <time>2016-02-04T10:55:25Z</time>
      </trkpt>
      <trkpt lat="48.21804" lon="-3.14585">
        <ele>240</ele>
        <time>2016-02-04T10:55:29Z</time>
      </trkpt>
      <trkpt lat="48.21806" lon="-3.14581">
        <ele>240</ele>
        <time>2016-02-04T10:55:33Z</time>
      </trkpt>
      <trkpt lat="48.21808" lon="-3.14577">
        <ele>240</ele>
        <time>2016-02-04T10:55:37Z</time>
      </trkpt>
      <trkpt lat="48.21808" lon="-3.14573">
        <ele>241</ele>
        <time>2016-02-04T10:55:41Z</time>
      </trkpt>
      <trkpt lat="48.21809" lon="-3.14568">
        <ele>241</ele>
        <time>2016-02-04T10:55:44Z</time>
      </trkpt>
      <trkpt lat="48.21809" lon="-3.14563">
        <ele>241</ele>
        <time>2016-02-04T10:55:47Z</time>
      </trkpt>
      <trkpt lat="48.21809" lon="-3.14557">
        <ele>241</ele>
        <time>2016-02-04T10:55:50Z</time>
      </trkpt>
      <trkpt lat="48.2181" lon="-3.1455">
        <ele>241</ele>
        <time>2016-02-04T10:55:54Z</time>
      </trkpt>
      <trkpt lat="48.21811" lon="-3.14546">
        <ele>241</ele>
        <time>2016-02-04T10:55:57Z</time>
      </trkpt>
      <trkpt lat="48.21813" lon="-3.14542">
        <ele>241</ele>
        <time>2016-02-04T10:56:01Z</time>
      </trkpt>
      <trkpt lat="48.21811" lon="-3.14536">
        <ele>241</ele>
        <time>2016-02-04T10:56:05Z</time>
      </trkpt>
      <trkpt lat="48.21808" lon="-3.14532">
        <ele>241</ele>
        <time>2016-02-04T10:56:09Z</time>
      </trkpt>
      <trkpt lat="48.21806" lon="-3.14527">
        <ele>241</ele>
        <time>2016-02-04T10:56:13Z</time>
      </trkpt>
      <trkpt lat="48.21805" lon="-3.14522">
        <ele>240</ele>
        <time>2016-02-04T10:56:17Z</time>
      </trkpt>
      <trkpt lat="48.21803" lon="-3.14517">
        <ele>239</ele>
        <time>2016-02-04T10:56:21Z</time>
      </trkpt>
      <trkpt lat="48.21801" lon="-3.14512">
        <ele>239</ele>
        <time>2016-02-04T10:56:24Z</time>
      </trkpt>
      <trkpt lat="48.21799" lon="-3.14506">
        <ele>238</ele>
        <time>2016-02-04T10:56:28Z</time>
      </trkpt>
      <trkpt lat="48.21798" lon="-3.14501">
        <ele>238</ele>
        <time>2016-02-04T10:56:31Z</time>
      </trkpt>
      <trkpt lat="48.21797" lon="-3.14495">
        <ele>237</ele>
        <time>2016-02-04T10:56:35Z</time>
      </trkpt>
      <trkpt lat="48.21797" lon="-3.1449">
        <ele>237</ele>
        <time>2016-02-04T10:56:38Z</time>
      </trkpt>
      <trkpt lat="48.21796" lon="-3.14485">
        <ele>236</ele>
        <time>2016-02-04T10:56:41Z</time>
      </trkpt>
      <trkpt lat="48.21796" lon="-3.1448">
        <ele>236</ele>
        <time>2016-02-04T10:56:44Z</time>
      </trkpt>
      <trkpt lat="48.21797" lon="-3.14476">
        <ele>236</ele>
        <time>2016-02-04T10:56:51Z</time>
      </trkpt>
      <trkpt lat="48.21797" lon="-3.1447">
        <ele>235</ele>
        <time>2016-02-04T10:56:54Z</time>
      </trkpt>
      <trkpt lat="48.21796" lon="-3.14465">
        <ele>235</ele>
        <time>2016-02-04T10:56:57Z</time>
      </trkpt>
      <trkpt lat="48.21796" lon="-3.14458">
        <ele>234</ele>
        <time>2016-02-04T10:57:00Z</time>
      </trkpt>
      <trkpt lat="48.21796" lon="-3.14452">
        <ele>234</ele>
        <time>2016-02-04T10:57:03Z</time>
      </trkpt>
      <trkpt lat="48.21796" lon="-3.14446">
        <ele>234</ele>
        <time>2016-02-04T10:57:06Z</time>
      </trkpt>
      <trkpt lat="48.21795" lon="-3.1444">
        <ele>234</ele>
        <time>2016-02-04T10:57:09Z</time>
      </trkpt>
      <trkpt lat="48.21796" lon="-3.14435">
        <ele>233</ele>
        <time>2016-02-04T10:57:12Z</time>
      </trkpt>
      <trkpt lat="48.21799" lon="-3.14428">
        <ele>233</ele>
        <time>2016-02-04T10:57:16Z</time>
      </trkpt>
      <trkpt lat="48.21801" lon="-3.14423">
        <ele>233</ele>
        <time>2016-02-04T10:57:19Z</time>
      </trkpt>
      <trkpt lat="48.21802" lon="-3.1442">
        <ele>233</ele>
        <time>2016-02-04T10:57:22Z</time>
      </trkpt>
      <trkpt lat="48.21802" lon="-3.14416">
        <ele>233</ele>
        <time>2016-02-04T10:57:26Z</time>
      </trkpt>
      <trkpt lat="48.21799" lon="-3.1441">
        <ele>232</ele>
        <time>2016-02-04T10:57:30Z</time>
      </trkpt>
      <trkpt lat="48.21796" lon="-3.14404">
        <ele>231</ele>
        <time>2016-02-04T10:57:34Z</time>
      </trkpt>
      <trkpt lat="48.21796" lon="-3.14399">
        <ele>231</ele>
        <time>2016-02-04T10:57:37Z</time>
      </trkpt>
      <trkpt lat="48.21797" lon="-3.14394">
        <ele>230</ele>
        <time>2016-02-04T10:57:40Z</time>
      </trkpt>
      <trkpt lat="48.21798" lon="-3.14388">
        <ele>229</ele>
        <time>2016-02-04T10:57:43Z</time>
      </trkpt>
      <trkpt lat="48.21799" lon="-3.14383">
        <ele>228</ele>
        <time>2016-02-04T10:57:46Z</time>
      </trkpt>
      <trkpt lat="48.21801" lon="-3.14378">
        <ele>227</ele>
        <time>2016-02-04T10:57:50Z</time>
      </trkpt>
      <trkpt lat="48.21805" lon="-3.14373">
        <ele>227</ele>
        <time>2016-02-04T10:57:54Z</time>
      </trkpt>
      <trkpt lat="48.21808" lon="-3.1437">
        <ele>227</ele>
        <time>2016-02-04T10:57:57Z</time>
      </trkpt>
      <trkpt lat="48.2181" lon="-3.14365">
        <ele>226</ele>
        <time>2016-02-04T10:58:01Z</time>
      </trkpt>
      <trkpt lat="48.2181" lon="-3.1436">
        <ele>226</ele>
        <time>2016-02-04T10:58:04Z</time>
      </trkpt>
      <trkpt lat="48.21809" lon="-3.14354">
        <ele>226</ele>
        <time>2016-02-04T10:58:07Z</time>
      </trkpt>
      <trkpt lat="48.21809" lon="-3.14348">
        <ele>226</ele>
        <time>2016-02-04T10:58:10Z</time>
      </trkpt>
      <trkpt lat="48.21808" lon="-3.14342">
        <ele>226</ele>
        <time>2016-02-04T10:58:13Z</time>
      </trkpt>
      <trkpt lat="48.21809" lon="-3.14336">
        <ele>225</ele>
        <time>2016-02-04T10:58:16Z</time>
      </trkpt>
      <trkpt lat="48.21811" lon="-3.1433">
        <ele>225</ele>
        <time>2016-02-04T10:58:19Z</time>
      </trkpt>
      <trkpt lat="48.21811" lon="-3.14324">
        <ele>225</ele>
        <time>2016-02-04T10:58:22Z</time>
      </trkpt>
      <trkpt lat="48.21812" lon="-3.14318">
        <ele>225</ele>
        <time>2016-02-04T10:58:25Z</time>
      </trkpt>
      <trkpt lat="48.21813" lon="-3.14313">
        <ele>225</ele>
        <time>2016-02-04T10:58:29Z</time>
      </trkpt>
      <trkpt lat="48.21813" lon="-3.14308">
        <ele>225</ele>
        <time>2016-02-04T10:58:32Z</time>
      </trkpt>
      <trkpt lat="48.21812" lon="-3.14302">
        <ele>224</ele>
        <time>2016-02-04T10:58:35Z</time>
      </trkpt>
      <trkpt lat="48.2181" lon="-3.14298">
        <ele>224</ele>
        <time>2016-02-04T10:58:38Z</time>
      </trkpt>
      <trkpt lat="48.21809" lon="-3.14292">
        <ele>224</ele>
        <time>2016-02-04T10:58:41Z</time>
      </trkpt>
      <trkpt lat="48.21809" lon="-3.14286">
        <ele>224</ele>
        <time>2016-02-04T10:58:44Z</time>
      </trkpt>
      <trkpt lat="48.2181" lon="-3.14281">
        <ele>224</ele>
        <time>2016-02-04T10:58:47Z</time>
      </trkpt>
      <trkpt lat="48.2181" lon="-3.14275">
        <ele>224</ele>
        <time>2016-02-04T10:58:50Z</time>
      </trkpt>
      <trkpt lat="48.2181" lon="-3.1427">
        <ele>224</ele>
        <time>2016-02-04T10:58:53Z</time>
      </trkpt>
      <trkpt lat="48.21811" lon="-3.14266">
        <ele>224</ele>
        <time>2016-02-04T10:58:57Z</time>
      </trkpt>
      <trkpt lat="48.21809" lon="-3.14263">
        <ele>224</ele>
        <time>2016-02-04T10:59:02Z</time>
      </trkpt>
      <trkpt lat="48.21808" lon="-3.14258">
        <ele>224</ele>
        <time>2016-02-04T10:59:06Z</time>
      </trkpt>
      <trkpt lat="48.21807" lon="-3.14253">
        <ele>224</ele>
        <time>2016-02-04T10:59:09Z</time>
      </trkpt>
      <trkpt lat="48.21806" lon="-3.14247">
        <ele>223</ele>
        <time>2016-02-04T10:59:13Z</time>
      </trkpt>
      <trkpt lat="48.21804" lon="-3.14243">
        <ele>222</ele>
        <time>2016-02-04T10:59:16Z</time>
      </trkpt>
      <trkpt lat="48.21803" lon="-3.14238">
        <ele>221</ele>
        <time>2016-02-04T10:59:19Z</time>
      </trkpt>
      <trkpt lat="48.21802" lon="-3.14233">
        <ele>221</ele>
        <time>2016-02-04T10:59:22Z</time>
      </trkpt>
      <trkpt lat="48.21802" lon="-3.14227">
        <ele>220</ele>
        <time>2016-02-04T10:59:25Z</time>
      </trkpt>
      <trkpt lat="48.21802" lon="-3.14221">
        <ele>220</ele>
        <time>2016-02-04T10:59:28Z</time>
      </trkpt>
      <trkpt lat="48.21803" lon="-3.14216">
        <ele>220</ele>
        <time>2016-02-04T10:59:31Z</time>
      </trkpt>
      <trkpt lat="48.21803" lon="-3.14209">
        <ele>219</ele>
        <time>2016-02-04T10:59:34Z</time>
      </trkpt>
      <trkpt lat="48.21804" lon="-3.14203">
        <ele>219</ele>
        <time>2016-02-04T10:59:37Z</time>
      </trkpt>
      <trkpt lat="48.21805" lon="-3.14198">
        <ele>219</ele>
        <time>2016-02-04T10:59:40Z</time>
      </trkpt>
      <trkpt lat="48.21805" lon="-3.14192">
        <ele>219</ele>
        <time>2016-02-04T10:59:43Z</time>
      </trkpt>
      <trkpt lat="48.21806" lon="-3.14187">
        <ele>219</ele>
        <time>2016-02-04T10:59:46Z</time>
      </trkpt>
      <trkpt lat="48.21806" lon="-3.14183">
        <ele>218</ele>
        <time>2016-02-04T10:59:49Z</time>
      </trkpt>
      <trkpt lat="48.21806" lon="-3.14176">
        <ele>217</ele>
        <time>2016-02-04T10:59:52Z</time>
      </trkpt>
      <trkpt lat="48.21806" lon="-3.14168">
        <ele>217</ele>
        <time>2016-02-04T10:59:56Z</time>
      </trkpt>
      <trkpt lat="48.21806" lon="-3.14163">
        <ele>217</ele>
        <time>2016-02-04T10:59:59Z</time>
      </trkpt>
      <trkpt lat="48.21807" lon="-3.14157">
        <ele>217</ele>
        <time>2016-02-04T11:00:02Z</time>
      </trkpt>
      <trkpt lat="48.21807" lon="-3.14151">
        <ele>217</ele>
        <time>2016-02-04T11:00:05Z</time>
      </trkpt>
      <trkpt lat="48.21807" lon="-3.14142">
        <ele>217</ele>
        <time>2016-02-04T11:00:09Z</time>
      </trkpt>
      <trkpt lat="48.21807" lon="-3.14135">
        <ele>215</ele>
        <time>2016-02-04T11:00:14Z</time>
      </trkpt>
      <trkpt lat="48.21808" lon="-3.14128">
        <ele>214</ele>
        <time>2016-02-04T11:00:17Z</time>
      </trkpt>
      <trkpt lat="48.21809" lon="-3.14122">
        <ele>213</ele>
        <time>2016-02-04T11:00:20Z</time>
      </trkpt>
      <trkpt lat="48.21809" lon="-3.14113">
        <ele>213</ele>
        <time>2016-02-04T11:00:24Z</time>
      </trkpt>
      <trkpt lat="48.21809" lon="-3.14108">
        <ele>213</ele>
        <time>2016-02-04T11:00:27Z</time>
      </trkpt>
      <trkpt lat="48.21812" lon="-3.14104">
        <ele>213</ele>
        <time>2016-02-04T11:00:31Z</time>
      </trkpt>
      <trkpt lat="48.21814" lon="-3.141">
        <ele>213</ele>
        <time>2016-02-04T11:00:34Z</time>
      </trkpt>
      <trkpt lat="48.21814" lon="-3.14095">
        <ele>213</ele>
        <time>2016-02-04T11:00:37Z</time>
      </trkpt>
      <trkpt lat="48.21814" lon="-3.14088">
        <ele>212</ele>
        <time>2016-02-04T11:00:41Z</time>
      </trkpt>
      <trkpt lat="48.21815" lon="-3.14081">
        <ele>212</ele>
        <time>2016-02-04T11:00:45Z</time>
      </trkpt>
      <trkpt lat="48.21815" lon="-3.14075">
        <ele>212</ele>
        <time>2016-02-04T11:00:48Z</time>
      </trkpt>
      <trkpt lat="48.21816" lon="-3.14069">
        <ele>212</ele>
        <time>2016-02-04T11:00:52Z</time>
      </trkpt>
      <trkpt lat="48.21817" lon="-3.14062">
        <ele>211</ele>
        <time>2016-02-04T11:00:55Z</time>
      </trkpt>
      <trkpt lat="48.21819" lon="-3.14058">
        <ele>210</ele>
        <time>2016-02-04T11:00:58Z</time>
      </trkpt>
      <trkpt lat="48.21822" lon="-3.14052">
        <ele>209</ele>
        <time>2016-02-04T11:01:02Z</time>
      </trkpt>
      <trkpt lat="48.21822" lon="-3.14047">
        <ele>209</ele>
        <time>2016-02-04T11:01:05Z</time>
      </trkpt>
      <trkpt lat="48.21823" lon="-3.14041">
        <ele>209</ele>
        <time>2016-02-04T11:01:08Z</time>
      </trkpt>
      <trkpt lat="48.21824" lon="-3.14036">
        <ele>208</ele>
        <time>2016-02-04T11:01:11Z</time>
      </trkpt>
      <trkpt lat="48.21824" lon="-3.14031">
        <ele>208</ele>
        <time>2016-02-04T11:01:15Z</time>
      </trkpt>
      <trkpt lat="48.21825" lon="-3.14025">
        <ele>207</ele>
        <time>2016-02-04T11:01:19Z</time>
      </trkpt>
      <trkpt lat="48.21826" lon="-3.14019">
        <ele>207</ele>
        <time>2016-02-04T11:01:24Z</time>
      </trkpt>
      <trkpt lat="48.21825" lon="-3.14012">
        <ele>206</ele>
        <time>2016-02-04T11:01:29Z</time>
      </trkpt>
      <trkpt lat="48.21826" lon="-3.14005">
        <ele>206</ele>
        <time>2016-02-04T11:01:33Z</time>
      </trkpt>
      <trkpt lat="48.21826" lon="-3.14">
        <ele>206</ele>
        <time>2016-02-04T11:01:36Z</time>
      </trkpt>
      <trkpt lat="48.21827" lon="-3.13996">
        <ele>206</ele>
        <time>2016-02-04T11:01:39Z</time>
      </trkpt>
      <trkpt lat="48.21827" lon="-3.13991">
        <ele>206</ele>
        <time>2016-02-04T11:01:42Z</time>
      </trkpt>
      <trkpt lat="48.21827" lon="-3.13987">
        <ele>206</ele>
        <time>2016-02-04T11:01:45Z</time>
      </trkpt>
      <trkpt lat="48.21828" lon="-3.13982">
        <ele>206</ele>
        <time>2016-02-04T11:01:48Z</time>
      </trkpt>
      <trkpt lat="48.21828" lon="-3.13977">
        <ele>206</ele>
        <time>2016-02-04T11:01:51Z</time>
      </trkpt>
      <trkpt lat="48.2183" lon="-3.13967">
        <ele>206</ele>
        <time>2016-02-04T11:01:55Z</time>
      </trkpt>
      <trkpt lat="48.21831" lon="-3.13961">
        <ele>206</ele>
        <time>2016-02-04T11:01:59Z</time>
      </trkpt>
      <trkpt lat="48.21833" lon="-3.13958">
        <ele>210</ele>
        <time>2016-02-04T11:02:03Z</time>
      </trkpt>
      <trkpt lat="48.21838" lon="-3.13954">
        <ele>213</ele>
        <time>2016-02-04T11:02:07Z</time>
      </trkpt>
      <trkpt lat="48.21843" lon="-3.13948">
        <ele>213</ele>
        <time>2016-02-04T11:02:13Z</time>
      </trkpt>
      <trkpt lat="48.21845" lon="-3.13947">
        <ele>213</ele>
        <time>2016-02-04T11:02:18Z</time>
      </trkpt>
      <trkpt lat="48.21848" lon="-3.13943">
        <ele>213</ele>
        <time>2016-02-04T11:02:22Z</time>
      </trkpt>
      <trkpt lat="48.2185" lon="-3.13941">
        <ele>213</ele>
        <time>2016-02-04T11:02:25Z</time>
      </trkpt>
      <trkpt lat="48.21853" lon="-3.13936">
        <ele>213</ele>
        <time>2016-02-04T11:02:30Z</time>
      </trkpt>
      <trkpt lat="48.21856" lon="-3.13934">
        <ele>213</ele>
        <time>2016-02-04T11:02:34Z</time>
      </trkpt>
      <trkpt lat="48.21857" lon="-3.1393">
        <ele>216</ele>
        <time>2016-02-04T11:02:39Z</time>
      </trkpt>
      <trkpt lat="48.21861" lon="-3.13927">
        <ele>216</ele>
        <time>2016-02-04T11:02:44Z</time>
      </trkpt>
      <trkpt lat="48.21863" lon="-3.13924">
        <ele>216</ele>
        <time>2016-02-04T11:02:48Z</time>
      </trkpt>
      <trkpt lat="48.21867" lon="-3.1392">
        <ele>217</ele>
        <time>2016-02-04T11:02:52Z</time>
      </trkpt>
      <trkpt lat="48.21869" lon="-3.13915">
        <ele>219</ele>
        <time>2016-02-04T11:02:56Z</time>
      </trkpt>
      <trkpt lat="48.2187" lon="-3.13911">
        <ele>221</ele>
        <time>2016-02-04T11:02:59Z</time>
      </trkpt>
      <trkpt lat="48.21873" lon="-3.13909">
        <ele>221</ele>
        <time>2016-02-04T11:03:03Z</time>
      </trkpt>
      <trkpt lat="48.21875" lon="-3.13904">
        <ele>221</ele>
        <time>2016-02-04T11:03:08Z</time>
      </trkpt>
      <trkpt lat="48.21876" lon="-3.139">
        <ele>221</ele>
        <time>2016-02-04T11:03:13Z</time>
      </trkpt>
      <trkpt lat="48.21879" lon="-3.13899">
        <ele>221</ele>
        <time>2016-02-04T11:03:24Z</time>
      </trkpt>
      <trkpt lat="48.2188" lon="-3.13897">
        <ele>221</ele>
        <time>2016-02-04T11:03:33Z</time>
      </trkpt>
      <trkpt lat="48.21883" lon="-3.13899">
        <ele>222</ele>
        <time>2016-02-04T11:03:43Z</time>
      </trkpt>
      <trkpt lat="48.21882" lon="-3.13896">
        <ele>222</ele>
        <time>2016-02-04T11:03:56Z</time>
      </trkpt>
      <trkpt lat="48.21883" lon="-3.13895">
        <ele>222</ele>
        <time>2016-02-04T11:04:00Z</time>
      </trkpt>
      <trkpt lat="48.21882" lon="-3.13889">
        <ele>222</ele>
        <time>2016-02-04T11:04:04Z</time>
      </trkpt>
      <trkpt lat="48.21881" lon="-3.13884">
        <ele>222</ele>
        <time>2016-02-04T11:04:07Z</time>
      </trkpt>
      <trkpt lat="48.21882" lon="-3.13877">
        <ele>222</ele>
        <time>2016-02-04T11:04:11Z</time>
      </trkpt>
      <trkpt lat="48.21884" lon="-3.13873">
        <ele>222</ele>
        <time>2016-02-04T11:04:15Z</time>
      </trkpt>
      <trkpt lat="48.21886" lon="-3.13868">
        <ele>223</ele>
        <time>2016-02-04T11:04:19Z</time>
      </trkpt>
      <trkpt lat="48.21887" lon="-3.13862">
        <ele>225</ele>
        <time>2016-02-04T11:04:25Z</time>
      </trkpt>
      <trkpt lat="48.21891" lon="-3.13859">
        <ele>225</ele>
        <time>2016-02-04T11:04:29Z</time>
      </trkpt>
      <trkpt lat="48.21893" lon="-3.13855">
        <ele>225</ele>
        <time>2016-02-04T11:04:33Z</time>
      </trkpt>
      <trkpt lat="48.21895" lon="-3.13853">
        <ele>225</ele>
        <time>2016-02-04T11:04:36Z</time>
      </trkpt>
      <trkpt lat="48.219" lon="-3.13849">
        <ele>225</ele>
        <time>2016-02-04T11:04:41Z</time>
      </trkpt>
      <trkpt lat="48.21904" lon="-3.13845">
        <ele>225</ele>
        <time>2016-02-04T11:04:45Z</time>
      </trkpt>
      <trkpt lat="48.21906" lon="-3.13841">
        <ele>225</ele>
        <time>2016-02-04T11:04:48Z</time>
      </trkpt>
      <trkpt lat="48.21907" lon="-3.13837">
        <ele>225</ele>
        <time>2016-02-04T11:04:51Z</time>
      </trkpt>
      <trkpt lat="48.21911" lon="-3.13832">
        <ele>225</ele>
        <time>2016-02-04T11:04:55Z</time>
      </trkpt>
      <trkpt lat="48.21914" lon="-3.13828">
        <ele>225</ele>
        <time>2016-02-04T11:04:59Z</time>
      </trkpt>
      <trkpt lat="48.21915" lon="-3.1382">
        <ele>225</ele>
        <time>2016-02-04T11:05:02Z</time>
      </trkpt>
      <trkpt lat="48.21915" lon="-3.13814">
        <ele>225</ele>
        <time>2016-02-04T11:05:06Z</time>
      </trkpt>
      <trkpt lat="48.21916" lon="-3.13807">
        <ele>225</ele>
        <time>2016-02-04T11:05:10Z</time>
      </trkpt>
      <trkpt lat="48.21916" lon="-3.13802">
        <ele>225</ele>
        <time>2016-02-04T11:05:13Z</time>
      </trkpt>
      <trkpt lat="48.21917" lon="-3.13795">
        <ele>225</ele>
        <time>2016-02-04T11:05:18Z</time>
      </trkpt>
      <trkpt lat="48.21918" lon="-3.13787">
        <ele>225</ele>
        <time>2016-02-04T11:05:22Z</time>
      </trkpt>
      <trkpt lat="48.21921" lon="-3.13782">
        <ele>225</ele>
        <time>2016-02-04T11:05:26Z</time>
      </trkpt>
      <trkpt lat="48.21924" lon="-3.13779">
        <ele>225</ele>
        <time>2016-02-04T11:05:29Z</time>
      </trkpt>
      <trkpt lat="48.21928" lon="-3.13773">
        <ele>225</ele>
        <time>2016-02-04T11:05:34Z</time>
      </trkpt>
      <trkpt lat="48.21932" lon="-3.13771">
        <ele>225</ele>
        <time>2016-02-04T11:05:38Z</time>
      </trkpt>
      <trkpt lat="48.21935" lon="-3.13768">
        <ele>226</ele>
        <time>2016-02-04T11:05:42Z</time>
      </trkpt>
      <trkpt lat="48.21938" lon="-3.13765">
        <ele>226</ele>
        <time>2016-02-04T11:05:45Z</time>
      </trkpt>
      <trkpt lat="48.21943" lon="-3.13762">
        <ele>227</ele>
        <time>2016-02-04T11:05:49Z</time>
      </trkpt>
      <trkpt lat="48.21947" lon="-3.13761">
        <ele>228</ele>
        <time>2016-02-04T11:05:52Z</time>
      </trkpt>
      <trkpt lat="48.21951" lon="-3.13758">
        <ele>229</ele>
        <time>2016-02-04T11:05:56Z</time>
      </trkpt>
      <trkpt lat="48.21954" lon="-3.13755">
        <ele>229</ele>
        <time>2016-02-04T11:06:00Z</time>
      </trkpt>
      <trkpt lat="48.21956" lon="-3.13752">
        <ele>229</ele>
        <time>2016-02-04T11:06:03Z</time>
      </trkpt>
      <trkpt lat="48.21958" lon="-3.13748">
        <ele>230</ele>
        <time>2016-02-04T11:06:07Z</time>
      </trkpt>
      <trkpt lat="48.21961" lon="-3.13744">
        <ele>231</ele>
        <time>2016-02-04T11:06:11Z</time>
      </trkpt>
      <trkpt lat="48.21964" lon="-3.1374">
        <ele>231</ele>
        <time>2016-02-04T11:06:15Z</time>
      </trkpt>
      <trkpt lat="48.21967" lon="-3.13738">
        <ele>231</ele>
        <time>2016-02-04T11:06:19Z</time>
      </trkpt>
      <trkpt lat="48.2197" lon="-3.13736">
        <ele>231</ele>
        <time>2016-02-04T11:06:23Z</time>
      </trkpt>
      <trkpt lat="48.21973" lon="-3.13733">
        <ele>231</ele>
        <time>2016-02-04T11:06:27Z</time>
      </trkpt>
      <trkpt lat="48.21976" lon="-3.1373">
        <ele>231</ele>
        <time>2016-02-04T11:06:31Z</time>
      </trkpt>
      <trkpt lat="48.21978" lon="-3.13724">
        <ele>231</ele>
        <time>2016-02-04T11:06:36Z</time>
      </trkpt>
      <trkpt lat="48.21979" lon="-3.1372">
        <ele>231</ele>
        <time>2016-02-04T11:06:40Z</time>
      </trkpt>
      <trkpt lat="48.21979" lon="-3.13715">
        <ele>231</ele>
        <time>2016-02-04T11:06:44Z</time>
      </trkpt>
      <trkpt lat="48.21977" lon="-3.13709">
        <ele>231</ele>
        <time>2016-02-04T11:06:48Z</time>
      </trkpt>
      <trkpt lat="48.21976" lon="-3.13703">
        <ele>231</ele>
        <time>2016-02-04T11:06:52Z</time>
      </trkpt>
      <trkpt lat="48.21975" lon="-3.13696">
        <ele>231</ele>
        <time>2016-02-04T11:06:56Z</time>
      </trkpt>
      <trkpt lat="48.21973" lon="-3.1369">
        <ele>231</ele>
        <time>2016-02-04T11:07:00Z</time>
      </trkpt>
      <trkpt lat="48.21973" lon="-3.13684">
        <ele>232</ele>
        <time>2016-02-04T11:07:03Z</time>
      </trkpt>
      <trkpt lat="48.21972" lon="-3.13679">
        <ele>232</ele>
        <time>2016-02-04T11:07:07Z</time>
      </trkpt>
      <trkpt lat="48.21972" lon="-3.13673">
        <ele>232</ele>
        <time>2016-02-04T11:07:11Z</time>
      </trkpt>
      <trkpt lat="48.21972" lon="-3.13668">
        <ele>232</ele>
        <time>2016-02-04T11:07:14Z</time>
      </trkpt>
      <trkpt lat="48.21972" lon="-3.13662">
        <ele>232</ele>
        <time>2016-02-04T11:07:18Z</time>
      </trkpt>
      <trkpt lat="48.21972" lon="-3.13656">
        <ele>232</ele>
        <time>2016-02-04T11:07:22Z</time>
      </trkpt>
      <trkpt lat="48.21971" lon="-3.13652">
        <ele>232</ele>
        <time>2016-02-04T11:07:25Z</time>
      </trkpt>
      <trkpt lat="48.2197" lon="-3.13646">
        <ele>232</ele>
        <time>2016-02-04T11:07:29Z</time>
      </trkpt>
      <trkpt lat="48.21968" lon="-3.1364">
        <ele>232</ele>
        <time>2016-02-04T11:07:32Z</time>
      </trkpt>
      <trkpt lat="48.21967" lon="-3.13635">
        <ele>233</ele>
        <time>2016-02-04T11:07:35Z</time>
      </trkpt>
      <trkpt lat="48.21967" lon="-3.1363">
        <ele>233</ele>
        <time>2016-02-04T11:07:38Z</time>
      </trkpt>
      <trkpt lat="48.21965" lon="-3.13625">
        <ele>233</ele>
        <time>2016-02-04T11:07:41Z</time>
      </trkpt>
      <trkpt lat="48.21964" lon="-3.13617">
        <ele>234</ele>
        <time>2016-02-04T11:07:46Z</time>
      </trkpt>
      <trkpt lat="48.21963" lon="-3.13611">
        <ele>234</ele>
        <time>2016-02-04T11:07:50Z</time>
      </trkpt>
      <trkpt lat="48.21962" lon="-3.13607">
        <ele>234</ele>
        <time>2016-02-04T11:07:53Z</time>
      </trkpt>
      <trkpt lat="48.21962" lon="-3.13602">
        <ele>235</ele>
        <time>2016-02-04T11:07:56Z</time>
      </trkpt>
      <trkpt lat="48.21962" lon="-3.13596">
        <ele>235</ele>
        <time>2016-02-04T11:08:00Z</time>
      </trkpt>
      <trkpt lat="48.21963" lon="-3.13591">
        <ele>235</ele>
        <time>2016-02-04T11:08:03Z</time>
      </trkpt>
      <trkpt lat="48.21963" lon="-3.13584">
        <ele>235</ele>
        <time>2016-02-04T11:08:07Z</time>
      </trkpt>
      <trkpt lat="48.21962" lon="-3.13579">
        <ele>236</ele>
        <time>2016-02-04T11:08:11Z</time>
      </trkpt>
      <trkpt lat="48.21961" lon="-3.13573">
        <ele>236</ele>
        <time>2016-02-04T11:08:15Z</time>
      </trkpt>
      <trkpt lat="48.2196" lon="-3.13567">
        <ele>236</ele>
        <time>2016-02-04T11:08:18Z</time>
      </trkpt>
      <trkpt lat="48.2196" lon="-3.13563">
        <ele>236</ele>
        <time>2016-02-04T11:08:21Z</time>
      </trkpt>
      <trkpt lat="48.21959" lon="-3.13558">
        <ele>236</ele>
        <time>2016-02-04T11:08:24Z</time>
      </trkpt>
      <trkpt lat="48.21958" lon="-3.13552">
        <ele>237</ele>
        <time>2016-02-04T11:08:28Z</time>
      </trkpt>
      <trkpt lat="48.21958" lon="-3.13547">
        <ele>237</ele>
        <time>2016-02-04T11:08:31Z</time>
      </trkpt>
      <trkpt lat="48.21957" lon="-3.13543">
        <ele>237</ele>
        <time>2016-02-04T11:08:34Z</time>
      </trkpt>
      <trkpt lat="48.21956" lon="-3.13537">
        <ele>237</ele>
        <time>2016-02-04T11:08:38Z</time>
      </trkpt>
      <trkpt lat="48.21954" lon="-3.13531">
        <ele>237</ele>
        <time>2016-02-04T11:08:42Z</time>
      </trkpt>
      <trkpt lat="48.21953" lon="-3.13526">
        <ele>237</ele>
        <time>2016-02-04T11:08:46Z</time>
      </trkpt>
      <trkpt lat="48.2195" lon="-3.13521">
        <ele>237</ele>
        <time>2016-02-04T11:08:50Z</time>
      </trkpt>
      <trkpt lat="48.21947" lon="-3.13517">
        <ele>237</ele>
        <time>2016-02-04T11:08:54Z</time>
      </trkpt>
      <trkpt lat="48.21944" lon="-3.13513">
        <ele>237</ele>
        <time>2016-02-04T11:08:58Z</time>
      </trkpt>
      <trkpt lat="48.2194" lon="-3.13509">
        <ele>238</ele>
        <time>2016-02-04T11:09:02Z</time>
      </trkpt>
      <trkpt lat="48.21938" lon="-3.13504">
        <ele>238</ele>
        <time>2016-02-04T11:09:06Z</time>
      </trkpt>
      <trkpt lat="48.21935" lon="-3.13499">
        <ele>238</ele>
        <time>2016-02-04T11:09:10Z</time>
      </trkpt>
      <trkpt lat="48.21933" lon="-3.13493">
        <ele>238</ele>
        <time>2016-02-04T11:09:14Z</time>
      </trkpt>
      <trkpt lat="48.21931" lon="-3.13488">
        <ele>238</ele>
        <time>2016-02-04T11:09:18Z</time>
      </trkpt>
      <trkpt lat="48.21929" lon="-3.13482">
        <ele>238</ele>
        <time>2016-02-04T11:09:22Z</time>
      </trkpt>
      <trkpt lat="48.21927" lon="-3.13478">
        <ele>238</ele>
        <time>2016-02-04T11:09:25Z</time>
      </trkpt>
      <trkpt lat="48.21925" lon="-3.13473">
        <ele>238</ele>
        <time>2016-02-04T11:09:29Z</time>
      </trkpt>
      <trkpt lat="48.21924" lon="-3.13468">
        <ele>238</ele>
        <time>2016-02-04T11:09:32Z</time>
      </trkpt>
      <trkpt lat="48.21924" lon="-3.13462">
        <ele>238</ele>
        <time>2016-02-04T11:09:36Z</time>
      </trkpt>
      <trkpt lat="48.21923" lon="-3.13456">
        <ele>238</ele>
        <time>2016-02-04T11:09:40Z</time>
      </trkpt>
      <trkpt lat="48.21923" lon="-3.13452">
        <ele>238</ele>
        <time>2016-02-04T11:09:43Z</time>
      </trkpt>
      <trkpt lat="48.21923" lon="-3.13445">
        <ele>238</ele>
        <time>2016-02-04T11:09:47Z</time>
      </trkpt>
      <trkpt lat="48.21924" lon="-3.13441">
        <ele>238</ele>
        <time>2016-02-04T11:09:50Z</time>
      </trkpt>
      <trkpt lat="48.21925" lon="-3.13435">
        <ele>238</ele>
        <time>2016-02-04T11:09:54Z</time>
      </trkpt>
      <trkpt lat="48.21925" lon="-3.1343">
        <ele>238</ele>
        <time>2016-02-04T11:09:57Z</time>
      </trkpt>
      <trkpt lat="48.21924" lon="-3.13425">
        <ele>238</ele>
        <time>2016-02-04T11:10:00Z</time>
      </trkpt>
      <trkpt lat="48.21924" lon="-3.13421">
        <ele>238</ele>
        <time>2016-02-04T11:10:03Z</time>
      </trkpt>
      <trkpt lat="48.21925" lon="-3.13415">
        <ele>238</ele>
        <time>2016-02-04T11:10:06Z</time>
      </trkpt>
      <trkpt lat="48.21926" lon="-3.1341">
        <ele>238</ele>
        <time>2016-02-04T11:10:10Z</time>
      </trkpt>
      <trkpt lat="48.21927" lon="-3.13404">
        <ele>238</ele>
        <time>2016-02-04T11:10:14Z</time>
      </trkpt>
      <trkpt lat="48.21927" lon="-3.13399">
        <ele>238</ele>
        <time>2016-02-04T11:10:18Z</time>
      </trkpt>
      <trkpt lat="48.21926" lon="-3.13394">
        <ele>238</ele>
        <time>2016-02-04T11:10:21Z</time>
      </trkpt>
      <trkpt lat="48.21926" lon="-3.13389">
        <ele>238</ele>
        <time>2016-02-04T11:10:24Z</time>
      </trkpt>
      <trkpt lat="48.21928" lon="-3.13383">
        <ele>238</ele>
        <time>2016-02-04T11:10:28Z</time>
      </trkpt>
      <trkpt lat="48.21929" lon="-3.13377">
        <ele>238</ele>
        <time>2016-02-04T11:10:32Z</time>
      </trkpt>
      <trkpt lat="48.21931" lon="-3.13371">
        <ele>238</ele>
        <time>2016-02-04T11:10:36Z</time>
      </trkpt>
      <trkpt lat="48.21932" lon="-3.13367">
        <ele>238</ele>
        <time>2016-02-04T11:10:39Z</time>
      </trkpt>
      <trkpt lat="48.21934" lon="-3.13362">
        <ele>238</ele>
        <time>2016-02-04T11:10:43Z</time>
      </trkpt>
      <trkpt lat="48.21936" lon="-3.13358">
        <ele>238</ele>
        <time>2016-02-04T11:10:47Z</time>
      </trkpt>
      <trkpt lat="48.21936" lon="-3.13352">
        <ele>238</ele>
        <time>2016-02-04T11:10:50Z</time>
      </trkpt>
      <trkpt lat="48.21937" lon="-3.13346">
        <ele>239</ele>
        <time>2016-02-04T11:10:54Z</time>
      </trkpt>
      <trkpt lat="48.21938" lon="-3.13341">
        <ele>239</ele>
        <time>2016-02-04T11:10:57Z</time>
      </trkpt>
      <trkpt lat="48.21938" lon="-3.13335">
        <ele>239</ele>
        <time>2016-02-04T11:11:00Z</time>
      </trkpt>
      <trkpt lat="48.21938" lon="-3.13331">
        <ele>239</ele>
        <time>2016-02-04T11:11:03Z</time>
      </trkpt>
      <trkpt lat="48.21938" lon="-3.13326">
        <ele>239</ele>
        <time>2016-02-04T11:11:06Z</time>
      </trkpt>
      <trkpt lat="48.21938" lon="-3.13321">
        <ele>239</ele>
        <time>2016-02-04T11:11:09Z</time>
      </trkpt>
      <trkpt lat="48.21939" lon="-3.13316">
        <ele>239</ele>
        <time>2016-02-04T11:11:13Z</time>
      </trkpt>
      <trkpt lat="48.2194" lon="-3.13312">
        <ele>239</ele>
        <time>2016-02-04T11:11:17Z</time>
      </trkpt>
      <trkpt lat="48.2194" lon="-3.13307">
        <ele>239</ele>
        <time>2016-02-04T11:11:20Z</time>
      </trkpt>
      <trkpt lat="48.21939" lon="-3.13302">
        <ele>239</ele>
        <time>2016-02-04T11:11:23Z</time>
      </trkpt>
      <trkpt lat="48.21938" lon="-3.13297">
        <ele>239</ele>
        <time>2016-02-04T11:11:26Z</time>
      </trkpt>
      <trkpt lat="48.21938" lon="-3.13292">
        <ele>239</ele>
        <time>2016-02-04T11:11:29Z</time>
      </trkpt>
      <trkpt lat="48.21937" lon="-3.13285">
        <ele>239</ele>
        <time>2016-02-04T11:11:33Z</time>
      </trkpt>
      <trkpt lat="48.21936" lon="-3.13281">
        <ele>239</ele>
        <time>2016-02-04T11:11:36Z</time>
      </trkpt>
      <trkpt lat="48.21936" lon="-3.13275">
        <ele>239</ele>
        <time>2016-02-04T11:11:40Z</time>
      </trkpt>
      <trkpt lat="48.21935" lon="-3.1327">
        <ele>239</ele>
        <time>2016-02-04T11:11:43Z</time>
      </trkpt>
      <trkpt lat="48.21935" lon="-3.13265">
        <ele>239</ele>
        <time>2016-02-04T11:11:46Z</time>
      </trkpt>
      <trkpt lat="48.21935" lon="-3.13261">
        <ele>239</ele>
        <time>2016-02-04T11:11:49Z</time>
      </trkpt>
      <trkpt lat="48.21934" lon="-3.13256">
        <ele>239</ele>
        <time>2016-02-04T11:11:52Z</time>
      </trkpt>
      <trkpt lat="48.21933" lon="-3.13252">
        <ele>239</ele>
        <time>2016-02-04T11:11:55Z</time>
      </trkpt>
      <trkpt lat="48.21933" lon="-3.13247">
        <ele>239</ele>
        <time>2016-02-04T11:11:59Z</time>
      </trkpt>
      <trkpt lat="48.21931" lon="-3.13241">
        <ele>239</ele>
        <time>2016-02-04T11:12:03Z</time>
      </trkpt>
      <trkpt lat="48.2193" lon="-3.13235">
        <ele>239</ele>
        <time>2016-02-04T11:12:07Z</time>
      </trkpt>
      <trkpt lat="48.21929" lon="-3.1323">
        <ele>239</ele>
        <time>2016-02-04T11:12:11Z</time>
      </trkpt>
      <trkpt lat="48.21929" lon="-3.13223">
        <ele>239</ele>
        <time>2016-02-04T11:12:15Z</time>
      </trkpt>
      <trkpt lat="48.21929" lon="-3.13219">
        <ele>239</ele>
        <time>2016-02-04T11:12:18Z</time>
      </trkpt>
      <trkpt lat="48.21929" lon="-3.13214">
        <ele>239</ele>
        <time>2016-02-04T11:12:21Z</time>
      </trkpt>
      <trkpt lat="48.21928" lon="-3.1321">
        <ele>239</ele>
        <time>2016-02-04T11:12:24Z</time>
      </trkpt>
      <trkpt lat="48.21928" lon="-3.13208">
        <ele>239</ele>
        <time>2016-02-04T11:12:29Z</time>
      </trkpt>
      <trkpt lat="48.21929" lon="-3.13203">
        <ele>238</ele>
        <time>2016-02-04T11:12:32Z</time>
      </trkpt>
      <trkpt lat="48.21929" lon="-3.13197">
        <ele>238</ele>
        <time>2016-02-04T11:12:36Z</time>
      </trkpt>
      <trkpt lat="48.21929" lon="-3.13194">
        <ele>238</ele>
        <time>2016-02-04T11:12:39Z</time>
      </trkpt>
      <trkpt lat="48.21929" lon="-3.13188">
        <ele>238</ele>
        <time>2016-02-04T11:12:42Z</time>
      </trkpt>
      <trkpt lat="48.21929" lon="-3.13182">
        <ele>238</ele>
        <time>2016-02-04T11:12:45Z</time>
      </trkpt>
      <trkpt lat="48.21929" lon="-3.13176">
        <ele>238</ele>
        <time>2016-02-04T11:12:48Z</time>
      </trkpt>
      <trkpt lat="48.21928" lon="-3.1317">
        <ele>238</ele>
        <time>2016-02-04T11:12:52Z</time>
      </trkpt>
      <trkpt lat="48.21927" lon="-3.13165">
        <ele>238</ele>
        <time>2016-02-04T11:12:55Z</time>
      </trkpt>
      <trkpt lat="48.21927" lon="-3.13158">
        <ele>237</ele>
        <time>2016-02-04T11:12:59Z</time>
      </trkpt>
      <trkpt lat="48.21927" lon="-3.13155">
        <ele>237</ele>
        <time>2016-02-04T11:13:03Z</time>
      </trkpt>
      <trkpt lat="48.21925" lon="-3.13148">
        <ele>237</ele>
        <time>2016-02-04T11:13:07Z</time>
      </trkpt>
      <trkpt lat="48.21927" lon="-3.13143">
        <ele>237</ele>
        <time>2016-02-04T11:13:11Z</time>
      </trkpt>
      <trkpt lat="48.2193" lon="-3.13138">
        <ele>237</ele>
        <time>2016-02-04T11:13:15Z</time>
      </trkpt>
      <trkpt lat="48.21932" lon="-3.13133">
        <ele>237</ele>
        <time>2016-02-04T11:13:19Z</time>
      </trkpt>
      <trkpt lat="48.21933" lon="-3.13128">
        <ele>237</ele>
        <time>2016-02-04T11:13:22Z</time>
      </trkpt>
      <trkpt lat="48.21933" lon="-3.13123">
        <ele>237</ele>
        <time>2016-02-04T11:13:25Z</time>
      </trkpt>
      <trkpt lat="48.21935" lon="-3.13118">
        <ele>237</ele>
        <time>2016-02-04T11:13:28Z</time>
      </trkpt>
      <trkpt lat="48.21936" lon="-3.13113">
        <ele>237</ele>
        <time>2016-02-04T11:13:31Z</time>
      </trkpt>
      <trkpt lat="48.21938" lon="-3.13109">
        <ele>237</ele>
        <time>2016-02-04T11:13:34Z</time>
      </trkpt>
      <trkpt lat="48.21941" lon="-3.13105">
        <ele>237</ele>
        <time>2016-02-04T11:13:37Z</time>
      </trkpt>
      <trkpt lat="48.21944" lon="-3.13099">
        <ele>237</ele>
        <time>2016-02-04T11:13:41Z</time>
      </trkpt>
      <trkpt lat="48.21946" lon="-3.13095">
        <ele>237</ele>
        <time>2016-02-04T11:13:45Z</time>
      </trkpt>
      <trkpt lat="48.21948" lon="-3.1309">
        <ele>237</ele>
        <time>2016-02-04T11:13:48Z</time>
      </trkpt>
      <trkpt lat="48.2195" lon="-3.13084">
        <ele>237</ele>
        <time>2016-02-04T11:13:52Z</time>
      </trkpt>
      <trkpt lat="48.21951" lon="-3.13079">
        <ele>237</ele>
        <time>2016-02-04T11:13:55Z</time>
      </trkpt>
      <trkpt lat="48.21952" lon="-3.13074">
        <ele>237</ele>
        <time>2016-02-04T11:13:58Z</time>
      </trkpt>
      <trkpt lat="48.21955" lon="-3.13069">
        <ele>237</ele>
        <time>2016-02-04T11:14:02Z</time>
      </trkpt>
      <trkpt lat="48.21958" lon="-3.13064">
        <ele>237</ele>
        <time>2016-02-04T11:14:06Z</time>
      </trkpt>
      <trkpt lat="48.2196" lon="-3.13058">
        <ele>237</ele>
        <time>2016-02-04T11:14:10Z</time>
      </trkpt>
      <trkpt lat="48.21962" lon="-3.13054">
        <ele>237</ele>
        <time>2016-02-04T11:14:14Z</time>
      </trkpt>
      <trkpt lat="48.21963" lon="-3.13049">
        <ele>237</ele>
        <time>2016-02-04T11:14:17Z</time>
      </trkpt>
      <trkpt lat="48.21963" lon="-3.13043">
        <ele>237</ele>
        <time>2016-02-04T11:14:21Z</time>
      </trkpt>
      <trkpt lat="48.21965" lon="-3.13036">
        <ele>237</ele>
        <time>2016-02-04T11:14:25Z</time>
      </trkpt>
      <trkpt lat="48.21968" lon="-3.13032">
        <ele>237</ele>
        <time>2016-02-04T11:14:29Z</time>
      </trkpt>
      <trkpt lat="48.21971" lon="-3.13027">
        <ele>237</ele>
        <time>2016-02-04T11:14:33Z</time>
      </trkpt>
      <trkpt lat="48.21974" lon="-3.13022">
        <ele>237</ele>
        <time>2016-02-04T11:14:37Z</time>
      </trkpt>
      <trkpt lat="48.21977" lon="-3.13017">
        <ele>237</ele>
        <time>2016-02-04T11:14:41Z</time>
      </trkpt>
      <trkpt lat="48.21981" lon="-3.13012">
        <ele>237</ele>
        <time>2016-02-04T11:14:45Z</time>
      </trkpt>
      <trkpt lat="48.21984" lon="-3.13008">
        <ele>237</ele>
        <time>2016-02-04T11:14:49Z</time>
      </trkpt>
      <trkpt lat="48.21988" lon="-3.13005">
        <ele>237</ele>
        <time>2016-02-04T11:14:53Z</time>
      </trkpt>
      <trkpt lat="48.21991" lon="-3.13">
        <ele>237</ele>
        <time>2016-02-04T11:14:57Z</time>
      </trkpt>
      <trkpt lat="48.21993" lon="-3.12995">
        <ele>237</ele>
        <time>2016-02-04T11:15:01Z</time>
      </trkpt>
      <trkpt lat="48.21993" lon="-3.12989">
        <ele>237</ele>
        <time>2016-02-04T11:15:05Z</time>
      </trkpt>
      <trkpt lat="48.21994" lon="-3.12984">
        <ele>237</ele>
        <time>2016-02-04T11:15:09Z</time>
      </trkpt>
      <trkpt lat="48.21996" lon="-3.12979">
        <ele>237</ele>
        <time>2016-02-04T11:15:13Z</time>
      </trkpt>
      <trkpt lat="48.21998" lon="-3.12975">
        <ele>238</ele>
        <time>2016-02-04T11:15:17Z</time>
      </trkpt>
      <trkpt lat="48.22001" lon="-3.12976">
        <ele>238</ele>
        <time>2016-02-04T11:15:20Z</time>
      </trkpt>
      <trkpt lat="48.22004" lon="-3.12978">
        <ele>238</ele>
        <time>2016-02-04T11:15:24Z</time>
      </trkpt>
      <trkpt lat="48.22008" lon="-3.1298">
        <ele>239</ele>
        <time>2016-02-04T11:15:28Z</time>
      </trkpt>
      <trkpt lat="48.22012" lon="-3.12978">
        <ele>239</ele>
        <time>2016-02-04T11:15:32Z</time>
      </trkpt>
      <trkpt lat="48.22016" lon="-3.12975">
        <ele>239</ele>
        <time>2016-02-04T11:15:36Z</time>
      </trkpt>
      <trkpt lat="48.2202" lon="-3.12972">
        <ele>239</ele>
        <time>2016-02-04T11:15:40Z</time>
      </trkpt>
      <trkpt lat="48.22024" lon="-3.1297">
        <ele>239</ele>
        <time>2016-02-04T11:15:44Z</time>
      </trkpt>
      <trkpt lat="48.22028" lon="-3.12969">
        <ele>239</ele>
        <time>2016-02-04T11:15:47Z</time>
      </trkpt>
      <trkpt lat="48.22032" lon="-3.12969">
        <ele>239</ele>
        <time>2016-02-04T11:15:50Z</time>
      </trkpt>
      <trkpt lat="48.22036" lon="-3.12967">
        <ele>239</ele>
        <time>2016-02-04T11:15:54Z</time>
      </trkpt>
      <trkpt lat="48.22039" lon="-3.12966">
        <ele>239</ele>
        <time>2016-02-04T11:15:57Z</time>
      </trkpt>
      <trkpt lat="48.22043" lon="-3.12966">
        <ele>239</ele>
        <time>2016-02-04T11:16:00Z</time>
      </trkpt>
      <trkpt lat="48.22046" lon="-3.12966">
        <ele>239</ele>
        <time>2016-02-04T11:16:03Z</time>
      </trkpt>
      <trkpt lat="48.2205" lon="-3.12964">
        <ele>239</ele>
        <time>2016-02-04T11:16:06Z</time>
      </trkpt>
      <trkpt lat="48.22054" lon="-3.12962">
        <ele>239</ele>
        <time>2016-02-04T11:16:10Z</time>
      </trkpt>
      <trkpt lat="48.22059" lon="-3.12961">
        <ele>239</ele>
        <time>2016-02-04T11:16:14Z</time>
      </trkpt>
      <trkpt lat="48.22061" lon="-3.12958">
        <ele>241</ele>
        <time>2016-02-04T11:16:44Z</time>
      </trkpt>
      <trkpt lat="48.22061" lon="-3.12952">
        <ele>241</ele>
        <time>2016-02-04T11:16:47Z</time>
      </trkpt>
      <trkpt lat="48.22063" lon="-3.12946">
        <ele>241</ele>
        <time>2016-02-04T11:16:51Z</time>
      </trkpt>
      <trkpt lat="48.22067" lon="-3.12942">
        <ele>241</ele>
        <time>2016-02-04T11:16:55Z</time>
      </trkpt>
      <trkpt lat="48.22069" lon="-3.12938">
        <ele>241</ele>
        <time>2016-02-04T11:17:05Z</time>
      </trkpt>
      <trkpt lat="48.2207" lon="-3.12937">
        <ele>241</ele>
        <time>2016-02-04T11:17:14Z</time>
      </trkpt>
      <trkpt lat="48.2207" lon="-3.12936">
        <ele>241</ele>
        <time>2016-02-04T11:17:26Z</time>
      </trkpt>
      <trkpt lat="48.22075" lon="-3.12936">
        <ele>241</ele>
        <time>2016-02-04T11:17:30Z</time>
      </trkpt>
      <trkpt lat="48.22079" lon="-3.12942">
        <ele>241</ele>
        <time>2016-02-04T11:17:34Z</time>
      </trkpt>
      <trkpt lat="48.22081" lon="-3.12946">
        <ele>241</ele>
        <time>2016-02-04T11:17:37Z</time>
      </trkpt>
      <trkpt lat="48.22084" lon="-3.12948">
        <ele>241</ele>
        <time>2016-02-04T11:17:40Z</time>
      </trkpt>
      <trkpt lat="48.22087" lon="-3.12948">
        <ele>241</ele>
        <time>2016-02-04T11:17:43Z</time>
      </trkpt>
      <trkpt lat="48.22091" lon="-3.12946">
        <ele>241</ele>
        <time>2016-02-04T11:17:46Z</time>
      </trkpt>
      <trkpt lat="48.22094" lon="-3.12944">
        <ele>241</ele>
        <time>2016-02-04T11:17:49Z</time>
      </trkpt>
      <trkpt lat="48.22098" lon="-3.12943">
        <ele>241</ele>
        <time>2016-02-04T11:17:52Z</time>
      </trkpt>
      <trkpt lat="48.22102" lon="-3.12941">
        <ele>241</ele>
        <time>2016-02-04T11:17:55Z</time>
      </trkpt>
      <trkpt lat="48.22106" lon="-3.12939">
        <ele>241</ele>
        <time>2016-02-04T11:17:59Z</time>
      </trkpt>
      <trkpt lat="48.2211" lon="-3.12937">
        <ele>241</ele>
        <time>2016-02-04T11:18:02Z</time>
      </trkpt>
      <trkpt lat="48.22113" lon="-3.12932">
        <ele>241</ele>
        <time>2016-02-04T11:18:06Z</time>
      </trkpt>
      <trkpt lat="48.22117" lon="-3.12928">
        <ele>241</ele>
        <time>2016-02-04T11:18:10Z</time>
      </trkpt>
      <trkpt lat="48.2212" lon="-3.12924">
        <ele>241</ele>
        <time>2016-02-04T11:18:14Z</time>
      </trkpt>
      <trkpt lat="48.22124" lon="-3.12919">
        <ele>241</ele>
        <time>2016-02-04T11:18:18Z</time>
      </trkpt>
      <trkpt lat="48.22128" lon="-3.12916">
        <ele>241</ele>
        <time>2016-02-04T11:18:21Z</time>
      </trkpt>
      <trkpt lat="48.22131" lon="-3.12912">
        <ele>241</ele>
        <time>2016-02-04T11:18:24Z</time>
      </trkpt>
      <trkpt lat="48.22134" lon="-3.12907">
        <ele>241</ele>
        <time>2016-02-04T11:18:28Z</time>
      </trkpt>
      <trkpt lat="48.22138" lon="-3.12903">
        <ele>241</ele>
        <time>2016-02-04T11:18:32Z</time>
      </trkpt>
      <trkpt lat="48.22141" lon="-3.12901">
        <ele>241</ele>
        <time>2016-02-04T11:18:35Z</time>
      </trkpt>
      <trkpt lat="48.22145" lon="-3.12898">
        <ele>241</ele>
        <time>2016-02-04T11:18:38Z</time>
      </trkpt>
      <trkpt lat="48.22149" lon="-3.12896">
        <ele>241</ele>
        <time>2016-02-04T11:18:42Z</time>
      </trkpt>
      <trkpt lat="48.22152" lon="-3.12894">
        <ele>241</ele>
        <time>2016-02-04T11:18:45Z</time>
      </trkpt>
      <trkpt lat="48.22155" lon="-3.12894">
        <ele>241</ele>
        <time>2016-02-04T11:18:48Z</time>
      </trkpt>
      <trkpt lat="48.22158" lon="-3.12896">
        <ele>241</ele>
        <time>2016-02-04T11:18:53Z</time>
      </trkpt>
      <trkpt lat="48.2216" lon="-3.12898">
        <ele>241</ele>
        <time>2016-02-04T11:18:56Z</time>
      </trkpt>
      <trkpt lat="48.2216" lon="-3.129">
        <ele>241</ele>
        <time>2016-02-04T11:18:59Z</time>
      </trkpt>
      <trkpt lat="48.22158" lon="-3.12901">
        <ele>241</ele>
        <time>2016-02-04T11:19:10Z</time>
      </trkpt>
      <trkpt lat="48.22157" lon="-3.12905">
        <ele>241</ele>
        <time>2016-02-04T11:19:15Z</time>
      </trkpt>
      <trkpt lat="48.22158" lon="-3.12907">
        <ele>241</ele>
        <time>2016-02-04T11:19:22Z</time>
      </trkpt>
      <trkpt lat="48.22157" lon="-3.12906">
        <ele>241</ele>
        <time>2016-02-04T11:19:41Z</time>
      </trkpt>
      <trkpt lat="48.22158" lon="-3.12899">
        <ele>241</ele>
        <time>2016-02-04T11:19:45Z</time>
      </trkpt>
      <trkpt lat="48.22161" lon="-3.12895">
        <ele>241</ele>
        <time>2016-02-04T11:19:49Z</time>
      </trkpt>
      <trkpt lat="48.22164" lon="-3.12892">
        <ele>241</ele>
        <time>2016-02-04T11:19:53Z</time>
      </trkpt>
      <trkpt lat="48.22167" lon="-3.12893">
        <ele>241</ele>
        <time>2016-02-04T11:19:59Z</time>
      </trkpt>
      <trkpt lat="48.22166" lon="-3.12895">
        <ele>240</ele>
        <time>2016-02-04T11:20:05Z</time>
      </trkpt>
      <trkpt lat="48.22163" lon="-3.12894">
        <ele>240</ele>
        <time>2016-02-04T11:20:10Z</time>
      </trkpt>
      <trkpt lat="48.22161" lon="-3.12894">
        <ele>240</ele>
        <time>2016-02-04T11:20:13Z</time>
      </trkpt>
      <trkpt lat="48.22158" lon="-3.12894">
        <ele>240</ele>
        <time>2016-02-04T11:20:17Z</time>
      </trkpt>
      <trkpt lat="48.22155" lon="-3.12893">
        <ele>240</ele>
        <time>2016-02-04T11:20:20Z</time>
      </trkpt>
      <trkpt lat="48.22152" lon="-3.12889">
        <ele>240</ele>
        <time>2016-02-04T11:20:25Z</time>
      </trkpt>
      <trkpt lat="48.22148" lon="-3.1289">
        <ele>240</ele>
        <time>2016-02-04T11:20:28Z</time>
      </trkpt>
      <trkpt lat="48.22144" lon="-3.12893">
        <ele>240</ele>
        <time>2016-02-04T11:20:31Z</time>
      </trkpt>
      <trkpt lat="48.22141" lon="-3.12895">
        <ele>240</ele>
        <time>2016-02-04T11:20:34Z</time>
      </trkpt>
      <trkpt lat="48.22138" lon="-3.12898">
        <ele>240</ele>
        <time>2016-02-04T11:20:37Z</time>
      </trkpt>
      <trkpt lat="48.22135" lon="-3.12902">
        <ele>240</ele>
        <time>2016-02-04T11:20:40Z</time>
      </trkpt>
      <trkpt lat="48.22131" lon="-3.12908">
        <ele>240</ele>
        <time>2016-02-04T11:20:44Z</time>
      </trkpt>
      <trkpt lat="48.22128" lon="-3.12913">
        <ele>240</ele>
        <time>2016-02-04T11:20:47Z</time>
      </trkpt>
      <trkpt lat="48.22124" lon="-3.12919">
        <ele>240</ele>
        <time>2016-02-04T11:20:51Z</time>
      </trkpt>
      <trkpt lat="48.22121" lon="-3.12921">
        <ele>240</ele>
        <time>2016-02-04T11:20:54Z</time>
      </trkpt>
      <trkpt lat="48.22116" lon="-3.12926">
        <ele>240</ele>
        <time>2016-02-04T11:20:57Z</time>
      </trkpt>
      <trkpt lat="48.22113" lon="-3.12931">
        <ele>240</ele>
        <time>2016-02-04T11:21:01Z</time>
      </trkpt>
      <trkpt lat="48.2211" lon="-3.12936">
        <ele>240</ele>
        <time>2016-02-04T11:21:05Z</time>
      </trkpt>
      <trkpt lat="48.22108" lon="-3.12938">
        <ele>240</ele>
        <time>2016-02-04T11:21:09Z</time>
      </trkpt>
      <trkpt lat="48.22105" lon="-3.1294">
        <ele>240</ele>
        <time>2016-02-04T11:21:12Z</time>
      </trkpt>
      <trkpt lat="48.22101" lon="-3.12942">
        <ele>240</ele>
        <time>2016-02-04T11:21:15Z</time>
      </trkpt>
      <trkpt lat="48.22098" lon="-3.12944">
        <ele>240</ele>
        <time>2016-02-04T11:21:18Z</time>
      </trkpt>
      <trkpt lat="48.22093" lon="-3.12946">
        <ele>240</ele>
        <time>2016-02-04T11:21:21Z</time>
      </trkpt>
      <trkpt lat="48.2209" lon="-3.12948">
        <ele>240</ele>
        <time>2016-02-04T11:21:24Z</time>
      </trkpt>
      <trkpt lat="48.22086" lon="-3.12949">
        <ele>240</ele>
        <time>2016-02-04T11:21:27Z</time>
      </trkpt>
      <trkpt lat="48.22082" lon="-3.1295">
        <ele>240</ele>
        <time>2016-02-04T11:21:30Z</time>
      </trkpt>
      <trkpt lat="48.22078" lon="-3.12947">
        <ele>241</ele>
        <time>2016-02-04T11:21:34Z</time>
      </trkpt>
      <trkpt lat="48.22076" lon="-3.12941">
        <ele>241</ele>
        <time>2016-02-04T11:21:38Z</time>
      </trkpt>
      <trkpt lat="48.22072" lon="-3.12937">
        <ele>241</ele>
        <time>2016-02-04T11:21:42Z</time>
      </trkpt>
      <trkpt lat="48.22069" lon="-3.12936">
        <ele>241</ele>
        <time>2016-02-04T11:21:46Z</time>
      </trkpt>
      <trkpt lat="48.22068" lon="-3.12937">
        <ele>241</ele>
        <time>2016-02-04T11:21:50Z</time>
      </trkpt>
      <trkpt lat="48.22066" lon="-3.12938">
        <ele>241</ele>
        <time>2016-02-04T11:21:53Z</time>
      </trkpt>
      <trkpt lat="48.22062" lon="-3.12934">
        <ele>242</ele>
        <time>2016-02-04T11:21:57Z</time>
      </trkpt>
      <trkpt lat="48.2206" lon="-3.12929">
        <ele>242</ele>
        <time>2016-02-04T11:22:00Z</time>
      </trkpt>
      <trkpt lat="48.22058" lon="-3.12923">
        <ele>242</ele>
        <time>2016-02-04T11:22:03Z</time>
      </trkpt>
      <trkpt lat="48.22057" lon="-3.12917">
        <ele>242</ele>
        <time>2016-02-04T11:22:06Z</time>
      </trkpt>
      <trkpt lat="48.22056" lon="-3.12912">
        <ele>242</ele>
        <time>2016-02-04T11:22:09Z</time>
      </trkpt>
      <trkpt lat="48.22056" lon="-3.12906">
        <ele>242</ele>
        <time>2016-02-04T11:22:12Z</time>
      </trkpt>
      <trkpt lat="48.22055" lon="-3.12901">
        <ele>242</ele>
        <time>2016-02-04T11:22:15Z</time>
      </trkpt>
      <trkpt lat="48.22055" lon="-3.12895">
        <ele>242</ele>
        <time>2016-02-04T11:22:18Z</time>
      </trkpt>
      <trkpt lat="48.22055" lon="-3.1289">
        <ele>242</ele>
        <time>2016-02-04T11:22:21Z</time>
      </trkpt>
      <trkpt lat="48.22055" lon="-3.12884">
        <ele>242</ele>
        <time>2016-02-04T11:22:24Z</time>
      </trkpt>
      <trkpt lat="48.22055" lon="-3.12878">
        <ele>242</ele>
        <time>2016-02-04T11:22:27Z</time>
      </trkpt>
      <trkpt lat="48.22057" lon="-3.12873">
        <ele>242</ele>
        <time>2016-02-04T11:22:30Z</time>
      </trkpt>
      <trkpt lat="48.22058" lon="-3.12868">
        <ele>242</ele>
        <time>2016-02-04T11:22:34Z</time>
      </trkpt>
      <trkpt lat="48.22058" lon="-3.12863">
        <ele>241</ele>
        <time>2016-02-04T11:22:37Z</time>
      </trkpt>
      <trkpt lat="48.22058" lon="-3.12857">
        <ele>241</ele>
        <time>2016-02-04T11:22:40Z</time>
      </trkpt>
      <trkpt lat="48.22059" lon="-3.12852">
        <ele>240</ele>
        <time>2016-02-04T11:22:43Z</time>
      </trkpt>
      <trkpt lat="48.22059" lon="-3.12846">
        <ele>240</ele>
        <time>2016-02-04T11:22:46Z</time>
      </trkpt>
      <trkpt lat="48.22059" lon="-3.12841">
        <ele>240</ele>
        <time>2016-02-04T11:22:49Z</time>
      </trkpt>
      <trkpt lat="48.22059" lon="-3.12836">
        <ele>240</ele>
        <time>2016-02-04T11:22:52Z</time>
      </trkpt>
      <trkpt lat="48.2206" lon="-3.1283">
        <ele>240</ele>
        <time>2016-02-04T11:22:55Z</time>
      </trkpt>
      <trkpt lat="48.22061" lon="-3.12824">
        <ele>239</ele>
        <time>2016-02-04T11:22:58Z</time>
      </trkpt>
      <trkpt lat="48.22062" lon="-3.12819">
        <ele>239</ele>
        <time>2016-02-04T11:23:01Z</time>
      </trkpt>
      <trkpt lat="48.22064" lon="-3.12813">
        <ele>239</ele>
        <time>2016-02-04T11:23:05Z</time>
      </trkpt>
      <trkpt lat="48.22066" lon="-3.12808">
        <ele>239</ele>
        <time>2016-02-04T11:23:09Z</time>
      </trkpt>
      <trkpt lat="48.22068" lon="-3.12804">
        <ele>239</ele>
        <time>2016-02-04T11:23:13Z</time>
      </trkpt>
      <trkpt lat="48.22072" lon="-3.12802">
        <ele>239</ele>
        <time>2016-02-04T11:23:17Z</time>
      </trkpt>
      <trkpt lat="48.22073" lon="-3.12796">
        <ele>239</ele>
        <time>2016-02-04T11:23:21Z</time>
      </trkpt>
      <trkpt lat="48.22074" lon="-3.12791">
        <ele>239</ele>
        <time>2016-02-04T11:23:25Z</time>
      </trkpt>
      <trkpt lat="48.22075" lon="-3.12785">
        <ele>239</ele>
        <time>2016-02-04T11:23:29Z</time>
      </trkpt>
      <trkpt lat="48.22076" lon="-3.1278">
        <ele>239</ele>
        <time>2016-02-04T11:23:34Z</time>
      </trkpt>
      <trkpt lat="48.22079" lon="-3.12777">
        <ele>239</ele>
        <time>2016-02-04T11:23:37Z</time>
      </trkpt>
      <trkpt lat="48.22083" lon="-3.12777">
        <ele>239</ele>
        <time>2016-02-04T11:23:40Z</time>
      </trkpt>
      <trkpt lat="48.22087" lon="-3.12777">
        <ele>239</ele>
        <time>2016-02-04T11:23:43Z</time>
      </trkpt>
      <trkpt lat="48.22091" lon="-3.12778">
        <ele>239</ele>
        <time>2016-02-04T11:23:46Z</time>
      </trkpt>
      <trkpt lat="48.22095" lon="-3.12777">
        <ele>239</ele>
        <time>2016-02-04T11:23:49Z</time>
      </trkpt>
      <trkpt lat="48.22099" lon="-3.12774">
        <ele>239</ele>
        <time>2016-02-04T11:23:53Z</time>
      </trkpt>
      <trkpt lat="48.22102" lon="-3.1277">
        <ele>238</ele>
        <time>2016-02-04T11:23:56Z</time>
      </trkpt>
      <trkpt lat="48.22105" lon="-3.12765">
        <ele>238</ele>
        <time>2016-02-04T11:24:00Z</time>
      </trkpt>
      <trkpt lat="48.22109" lon="-3.1276">
        <ele>238</ele>
        <time>2016-02-04T11:24:03Z</time>
      </trkpt>
      <trkpt lat="48.22113" lon="-3.12756">
        <ele>237</ele>
        <time>2016-02-04T11:24:07Z</time>
      </trkpt>
      <trkpt lat="48.22116" lon="-3.12753">
        <ele>237</ele>
        <time>2016-02-04T11:24:10Z</time>
      </trkpt>
      <trkpt lat="48.22121" lon="-3.12749">
        <ele>237</ele>
        <time>2016-02-04T11:24:14Z</time>
      </trkpt>
      <trkpt lat="48.22126" lon="-3.12748">
        <ele>237</ele>
        <time>2016-02-04T11:24:17Z</time>
      </trkpt>
      <trkpt lat="48.22129" lon="-3.12745">
        <ele>237</ele>
        <time>2016-02-04T11:24:20Z</time>
      </trkpt>
      <trkpt lat="48.22134" lon="-3.12744">
        <ele>237</ele>
        <time>2016-02-04T11:24:23Z</time>
      </trkpt>
      <trkpt lat="48.22138" lon="-3.12743">
        <ele>237</ele>
        <time>2016-02-04T11:24:26Z</time>
      </trkpt>
      <trkpt lat="48.22141" lon="-3.1274">
        <ele>237</ele>
        <time>2016-02-04T11:24:29Z</time>
      </trkpt>
      <trkpt lat="48.22145" lon="-3.12738">
        <ele>237</ele>
        <time>2016-02-04T11:24:32Z</time>
      </trkpt>
      <trkpt lat="48.22149" lon="-3.12736">
        <ele>237</ele>
        <time>2016-02-04T11:24:35Z</time>
      </trkpt>
      <trkpt lat="48.22152" lon="-3.12734">
        <ele>237</ele>
        <time>2016-02-04T11:24:38Z</time>
      </trkpt>
      <trkpt lat="48.22155" lon="-3.12732">
        <ele>237</ele>
        <time>2016-02-04T11:24:41Z</time>
      </trkpt>
      <trkpt lat="48.22158" lon="-3.12729">
        <ele>237</ele>
        <time>2016-02-04T11:24:44Z</time>
      </trkpt>
      <trkpt lat="48.22161" lon="-3.12724">
        <ele>237</ele>
        <time>2016-02-04T11:24:48Z</time>
      </trkpt>
      <trkpt lat="48.22165" lon="-3.12719">
        <ele>237</ele>
        <time>2016-02-04T11:24:52Z</time>
      </trkpt>
      <trkpt lat="48.22167" lon="-3.12715">
        <ele>237</ele>
        <time>2016-02-04T11:24:55Z</time>
      </trkpt>
      <trkpt lat="48.22171" lon="-3.1271">
        <ele>236</ele>
        <time>2016-02-04T11:24:58Z</time>
      </trkpt>
      <trkpt lat="48.22174" lon="-3.12707">
        <ele>236</ele>
        <time>2016-02-04T11:25:01Z</time>
      </trkpt>
      <trkpt lat="48.22178" lon="-3.12705">
        <ele>236</ele>
        <time>2016-02-04T11:25:04Z</time>
      </trkpt>
      <trkpt lat="48.22182" lon="-3.12703">
        <ele>236</ele>
        <time>2016-02-04T11:25:07Z</time>
      </trkpt>
      <trkpt lat="48.22187" lon="-3.12702">
        <ele>236</ele>
        <time>2016-02-04T11:25:10Z</time>
      </trkpt>
      <trkpt lat="48.2219" lon="-3.127">
        <ele>236</ele>
        <time>2016-02-04T11:25:13Z</time>
      </trkpt>
      <trkpt lat="48.22194" lon="-3.12694">
        <ele>236</ele>
        <time>2016-02-04T11:25:17Z</time>
      </trkpt>
      <trkpt lat="48.22197" lon="-3.12691">
        <ele>236</ele>
        <time>2016-02-04T11:25:20Z</time>
      </trkpt>
      <trkpt lat="48.222" lon="-3.12687">
        <ele>236</ele>
        <time>2016-02-04T11:25:23Z</time>
      </trkpt>
      <trkpt lat="48.22204" lon="-3.12685">
        <ele>236</ele>
        <time>2016-02-04T11:25:26Z</time>
      </trkpt>
      <trkpt lat="48.22207" lon="-3.12682">
        <ele>236</ele>
        <time>2016-02-04T11:25:30Z</time>
      </trkpt>
      <trkpt lat="48.22207" lon="-3.1268">
        <ele>236</ele>
        <time>2016-02-04T11:25:35Z</time>
      </trkpt>
      <trkpt lat="48.22207" lon="-3.12678">
        <ele>236</ele>
        <time>2016-02-04T11:25:53Z</time>
      </trkpt>
      <trkpt lat="48.2221" lon="-3.12675">
        <ele>236</ele>
        <time>2016-02-04T11:25:57Z</time>
      </trkpt>
      <trkpt lat="48.22211" lon="-3.12673">
        <ele>236</ele>
        <time>2016-02-04T11:26:00Z</time>
      </trkpt>
      <trkpt lat="48.22214" lon="-3.12669">
        <ele>236</ele>
        <time>2016-02-04T11:26:04Z</time>
      </trkpt>
      <trkpt lat="48.22217" lon="-3.12664">
        <ele>236</ele>
        <time>2016-02-04T11:26:07Z</time>
      </trkpt>
      <trkpt lat="48.2222" lon="-3.12659">
        <ele>236</ele>
        <time>2016-02-04T11:26:10Z</time>
      </trkpt>
      <trkpt lat="48.22222" lon="-3.12654">
        <ele>236</ele>
        <time>2016-02-04T11:26:13Z</time>
      </trkpt>
      <trkpt lat="48.22226" lon="-3.12651">
        <ele>236</ele>
        <time>2016-02-04T11:26:16Z</time>
      </trkpt>
      <trkpt lat="48.22228" lon="-3.12647">
        <ele>236</ele>
        <time>2016-02-04T11:26:19Z</time>
      </trkpt>
      <trkpt lat="48.22232" lon="-3.12643">
        <ele>236</ele>
        <time>2016-02-04T11:26:23Z</time>
      </trkpt>
      <trkpt lat="48.22234" lon="-3.12639">
        <ele>236</ele>
        <time>2016-02-04T11:26:27Z</time>
      </trkpt>
      <trkpt lat="48.22234" lon="-3.12636">
        <ele>236</ele>
        <time>2016-02-04T11:26:30Z</time>
      </trkpt>
      <trkpt lat="48.22237" lon="-3.12631">
        <ele>236</ele>
        <time>2016-02-04T11:26:33Z</time>
      </trkpt>
      <trkpt lat="48.22239" lon="-3.12626">
        <ele>236</ele>
        <time>2016-02-04T11:26:36Z</time>
      </trkpt>
      <trkpt lat="48.22242" lon="-3.12623">
        <ele>236</ele>
        <time>2016-02-04T11:26:39Z</time>
      </trkpt>
      <trkpt lat="48.22245" lon="-3.12621">
        <ele>236</ele>
        <time>2016-02-04T11:26:43Z</time>
      </trkpt>
      <trkpt lat="48.22248" lon="-3.12615">
        <ele>236</ele>
        <time>2016-02-04T11:26:47Z</time>
      </trkpt>
      <trkpt lat="48.22252" lon="-3.12611">
        <ele>236</ele>
        <time>2016-02-04T11:26:51Z</time>
      </trkpt>
      <trkpt lat="48.22255" lon="-3.12608">
        <ele>236</ele>
        <time>2016-02-04T11:26:54Z</time>
      </trkpt>
      <trkpt lat="48.22258" lon="-3.12604">
        <ele>236</ele>
        <time>2016-02-04T11:26:57Z</time>
      </trkpt>
      <trkpt lat="48.22262" lon="-3.12601">
        <ele>237</ele>
        <time>2016-02-04T11:27:00Z</time>
      </trkpt>
      <trkpt lat="48.22265" lon="-3.12598">
        <ele>237</ele>
        <time>2016-02-04T11:27:03Z</time>
      </trkpt>
      <trkpt lat="48.22268" lon="-3.12595">
        <ele>237</ele>
        <time>2016-02-04T11:27:06Z</time>
      </trkpt>
      <trkpt lat="48.22271" lon="-3.12592">
        <ele>237</ele>
        <time>2016-02-04T11:27:09Z</time>
      </trkpt>
      <trkpt lat="48.22275" lon="-3.1259">
        <ele>237</ele>
        <time>2016-02-04T11:27:12Z</time>
      </trkpt>
      <trkpt lat="48.22279" lon="-3.12588">
        <ele>237</ele>
        <time>2016-02-04T11:27:15Z</time>
      </trkpt>
      <trkpt lat="48.22282" lon="-3.12585">
        <ele>237</ele>
        <time>2016-02-04T11:27:18Z</time>
      </trkpt>
      <trkpt lat="48.22286" lon="-3.12584">
        <ele>238</ele>
        <time>2016-02-04T11:27:21Z</time>
      </trkpt>
      <trkpt lat="48.2229" lon="-3.1258">
        <ele>239</ele>
        <time>2016-02-04T11:27:25Z</time>
      </trkpt>
      <trkpt lat="48.22293" lon="-3.12579">
        <ele>240</ele>
        <time>2016-02-04T11:27:28Z</time>
      </trkpt>
      <trkpt lat="48.22296" lon="-3.12578">
        <ele>241</ele>
        <time>2016-02-04T11:27:31Z</time>
      </trkpt>
      <trkpt lat="48.223" lon="-3.12575">
        <ele>242</ele>
        <time>2016-02-04T11:27:35Z</time>
      </trkpt>
      <trkpt lat="48.22304" lon="-3.12572">
        <ele>242</ele>
        <time>2016-02-04T11:27:39Z</time>
      </trkpt>
      <trkpt lat="48.22308" lon="-3.12569">
        <ele>242</ele>
        <time>2016-02-04T11:27:42Z</time>
      </trkpt>
      <trkpt lat="48.22313" lon="-3.12567">
        <ele>242</ele>
        <time>2016-02-04T11:27:46Z</time>
      </trkpt>
      <trkpt lat="48.22317" lon="-3.12564">
        <ele>242</ele>
        <time>2016-02-04T11:27:49Z</time>
      </trkpt>
      <trkpt lat="48.22321" lon="-3.12561">
        <ele>243</ele>
        <time>2016-02-04T11:27:52Z</time>
      </trkpt>
      <trkpt lat="48.22326" lon="-3.12558">
        <ele>243</ele>
        <time>2016-02-04T11:27:56Z</time>
      </trkpt>
      <trkpt lat="48.22329" lon="-3.12556">
        <ele>243</ele>
        <time>2016-02-04T11:27:59Z</time>
      </trkpt>
      <trkpt lat="48.22334" lon="-3.12552">
        <ele>243</ele>
        <time>2016-02-04T11:28:03Z</time>
      </trkpt>
      <trkpt lat="48.22337" lon="-3.12551">
        <ele>243</ele>
        <time>2016-02-04T11:28:06Z</time>
      </trkpt>
      <trkpt lat="48.22342" lon="-3.12549">
        <ele>243</ele>
        <time>2016-02-04T11:28:11Z</time>
      </trkpt>
      <trkpt lat="48.22342" lon="-3.12543">
        <ele>243</ele>
        <time>2016-02-04T11:28:14Z</time>
      </trkpt>
      <trkpt lat="48.22345" lon="-3.12537">
        <ele>243</ele>
        <time>2016-02-04T11:28:17Z</time>
      </trkpt>
      <trkpt lat="48.22347" lon="-3.1253">
        <ele>243</ele>
        <time>2016-02-04T11:28:21Z</time>
      </trkpt>
      <trkpt lat="48.22348" lon="-3.12525">
        <ele>243</ele>
        <time>2016-02-04T11:28:24Z</time>
      </trkpt>
      <trkpt lat="48.22349" lon="-3.12518">
        <ele>243</ele>
        <time>2016-02-04T11:28:27Z</time>
      </trkpt>
      <trkpt lat="48.2235" lon="-3.12512">
        <ele>242</ele>
        <time>2016-02-04T11:28:30Z</time>
      </trkpt>
      <trkpt lat="48.22352" lon="-3.12507">
        <ele>241</ele>
        <time>2016-02-04T11:28:33Z</time>
      </trkpt>
      <trkpt lat="48.22353" lon="-3.12502">
        <ele>241</ele>
        <time>2016-02-04T11:28:36Z</time>
      </trkpt>
      <trkpt lat="48.22353" lon="-3.12497">
        <ele>241</ele>
        <time>2016-02-04T11:28:39Z</time>
      </trkpt>
      <trkpt lat="48.22353" lon="-3.12493">
        <ele>241</ele>
        <time>2016-02-04T11:28:42Z</time>
      </trkpt>
      <trkpt lat="48.22353" lon="-3.12488">
        <ele>241</ele>
        <time>2016-02-04T11:28:47Z</time>
      </trkpt>
      <trkpt lat="48.22351" lon="-3.12484">
        <ele>245</ele>
        <time>2016-02-04T11:28:55Z</time>
      </trkpt>
      <trkpt lat="48.2235" lon="-3.12483">
        <ele>245</ele>
        <time>2016-02-04T11:29:00Z</time>
      </trkpt>
      <trkpt lat="48.22349" lon="-3.12477">
        <ele>245</ele>
        <time>2016-02-04T11:29:03Z</time>
      </trkpt>
      <trkpt lat="48.2235" lon="-3.12471">
        <ele>245</ele>
        <time>2016-02-04T11:29:07Z</time>
      </trkpt>
      <trkpt lat="48.2235" lon="-3.12467">
        <ele>245</ele>
        <time>2016-02-04T11:29:10Z</time>
      </trkpt>
      <trkpt lat="48.22351" lon="-3.12459">
        <ele>244</ele>
        <time>2016-02-04T11:29:13Z</time>
      </trkpt>
      <trkpt lat="48.22354" lon="-3.12454">
        <ele>243</ele>
        <time>2016-02-04T11:29:17Z</time>
      </trkpt>
      <trkpt lat="48.22357" lon="-3.12452">
        <ele>242</ele>
        <time>2016-02-04T11:29:20Z</time>
      </trkpt>
      <trkpt lat="48.22359" lon="-3.12447">
        <ele>242</ele>
        <time>2016-02-04T11:29:24Z</time>
      </trkpt>
      <trkpt lat="48.2236" lon="-3.12443">
        <ele>242</ele>
        <time>2016-02-04T11:29:27Z</time>
      </trkpt>
      <trkpt lat="48.22362" lon="-3.12439">
        <ele>242</ele>
        <time>2016-02-04T11:29:33Z</time>
      </trkpt>
      <trkpt lat="48.22364" lon="-3.12435">
        <ele>242</ele>
        <time>2016-02-04T11:29:37Z</time>
      </trkpt>
      <trkpt lat="48.22366" lon="-3.12429">
        <ele>242</ele>
        <time>2016-02-04T11:29:41Z</time>
      </trkpt>
      <trkpt lat="48.22369" lon="-3.12425">
        <ele>242</ele>
        <time>2016-02-04T11:29:45Z</time>
      </trkpt>
      <trkpt lat="48.2237" lon="-3.1242">
        <ele>242</ele>
        <time>2016-02-04T11:29:48Z</time>
      </trkpt>
      <trkpt lat="48.22372" lon="-3.12415">
        <ele>242</ele>
        <time>2016-02-04T11:29:51Z</time>
      </trkpt>
      <trkpt lat="48.22374" lon="-3.1241">
        <ele>242</ele>
        <time>2016-02-04T11:29:54Z</time>
      </trkpt>
      <trkpt lat="48.22376" lon="-3.12406">
        <ele>242</ele>
        <time>2016-02-04T11:29:57Z</time>
      </trkpt>
      <trkpt lat="48.2238" lon="-3.12402">
        <ele>242</ele>
        <time>2016-02-04T11:30:00Z</time>
      </trkpt>
      <trkpt lat="48.22382" lon="-3.12396">
        <ele>242</ele>
        <time>2016-02-04T11:30:04Z</time>
      </trkpt>
      <trkpt lat="48.22382" lon="-3.12391">
        <ele>242</ele>
        <time>2016-02-04T11:30:07Z</time>
      </trkpt>
      <trkpt lat="48.22382" lon="-3.12386">
        <ele>242</ele>
        <time>2016-02-04T11:30:11Z</time>
      </trkpt>
      <trkpt lat="48.22383" lon="-3.12381">
        <ele>242</ele>
        <time>2016-02-04T11:30:15Z</time>
      </trkpt>
      <trkpt lat="48.22385" lon="-3.12375">
        <ele>242</ele>
        <time>2016-02-04T11:30:19Z</time>
      </trkpt>
      <trkpt lat="48.22387" lon="-3.12371">
        <ele>242</ele>
        <time>2016-02-04T11:30:23Z</time>
      </trkpt>
      <trkpt lat="48.22389" lon="-3.12367">
        <ele>242</ele>
        <time>2016-02-04T11:30:27Z</time>
      </trkpt>
      <trkpt lat="48.2239" lon="-3.12361">
        <ele>242</ele>
        <time>2016-02-04T11:30:31Z</time>
      </trkpt>
      <trkpt lat="48.2239" lon="-3.12356">
        <ele>242</ele>
        <time>2016-02-04T11:30:34Z</time>
      </trkpt>
      <trkpt lat="48.22391" lon="-3.12351">
        <ele>242</ele>
        <time>2016-02-04T11:30:37Z</time>
      </trkpt>
      <trkpt lat="48.22391" lon="-3.12346">
        <ele>242</ele>
        <time>2016-02-04T11:30:40Z</time>
      </trkpt>
      <trkpt lat="48.22392" lon="-3.12341">
        <ele>242</ele>
        <time>2016-02-04T11:30:44Z</time>
      </trkpt>
      <trkpt lat="48.22394" lon="-3.12338">
        <ele>242</ele>
        <time>2016-02-04T11:30:48Z</time>
      </trkpt>
      <trkpt lat="48.22395" lon="-3.12336">
        <ele>242</ele>
        <time>2016-02-04T11:30:51Z</time>
      </trkpt>
      <trkpt lat="48.22395" lon="-3.12332">
        <ele>242</ele>
        <time>2016-02-04T11:30:55Z</time>
      </trkpt>
      <trkpt lat="48.22396" lon="-3.1233">
        <ele>242</ele>
        <time>2016-02-04T11:31:02Z</time>
      </trkpt>
      <trkpt lat="48.22397" lon="-3.12328">
        <ele>242</ele>
        <time>2016-02-04T11:31:13Z</time>
      </trkpt>
      <trkpt lat="48.22398" lon="-3.12326">
        <ele>242</ele>
        <time>2016-02-04T11:31:18Z</time>
      </trkpt>
      <trkpt lat="48.22398" lon="-3.12321">
        <ele>242</ele>
        <time>2016-02-04T11:31:24Z</time>
      </trkpt>
      <trkpt lat="48.22399" lon="-3.12317">
        <ele>242</ele>
        <time>2016-02-04T11:31:28Z</time>
      </trkpt>
      <trkpt lat="48.22399" lon="-3.12313">
        <ele>242</ele>
        <time>2016-02-04T11:31:33Z</time>
      </trkpt>
      <trkpt lat="48.224" lon="-3.12311">
        <ele>242</ele>
        <time>2016-02-04T11:31:37Z</time>
      </trkpt>
      <trkpt lat="48.224" lon="-3.1231">
        <ele>242</ele>
        <time>2016-02-04T11:31:40Z</time>
      </trkpt>
      <trkpt lat="48.22401" lon="-3.12304">
        <ele>242</ele>
        <time>2016-02-04T11:31:46Z</time>
      </trkpt>
      <trkpt lat="48.22403" lon="-3.12299">
        <ele>242</ele>
        <time>2016-02-04T11:31:50Z</time>
      </trkpt>
      <trkpt lat="48.22404" lon="-3.12295">
        <ele>242</ele>
        <time>2016-02-04T11:31:53Z</time>
      </trkpt>
      <trkpt lat="48.22405" lon="-3.12293">
        <ele>242</ele>
        <time>2016-02-04T11:31:57Z</time>
      </trkpt>
      <trkpt lat="48.22406" lon="-3.12291">
        <ele>242</ele>
        <time>2016-02-04T11:32:01Z</time>
      </trkpt>
      <trkpt lat="48.22407" lon="-3.1229">
        <ele>242</ele>
        <time>2016-02-04T11:32:08Z</time>
      </trkpt>
      <trkpt lat="48.22408" lon="-3.12288">
        <ele>242</ele>
        <time>2016-02-04T11:32:11Z</time>
      </trkpt>
      <trkpt lat="48.22409" lon="-3.12288">
        <ele>241</ele>
        <time>2016-02-04T11:32:14Z</time>
      </trkpt>
      <trkpt lat="48.22409" lon="-3.12285">
        <ele>240</ele>
        <time>2016-02-04T11:32:18Z</time>
      </trkpt>
      <trkpt lat="48.22411" lon="-3.12281">
        <ele>239</ele>
        <time>2016-02-04T11:32:22Z</time>
      </trkpt>
      <trkpt lat="48.22414" lon="-3.12282">
        <ele>238</ele>
        <time>2016-02-04T11:32:26Z</time>
      </trkpt>
      <trkpt lat="48.22418" lon="-3.12278">
        <ele>238</ele>
        <time>2016-02-04T11:32:30Z</time>
      </trkpt>
      <trkpt lat="48.2242" lon="-3.12275">
        <ele>238</ele>
        <time>2016-02-04T11:32:34Z</time>
      </trkpt>
      <trkpt lat="48.22423" lon="-3.1227">
        <ele>237</ele>
        <time>2016-02-04T11:32:38Z</time>
      </trkpt>
      <trkpt lat="48.22425" lon="-3.12265">
        <ele>237</ele>
        <time>2016-02-04T11:32:42Z</time>
      </trkpt>
      <trkpt lat="48.22427" lon="-3.12259">
        <ele>236</ele>
        <time>2016-02-04T11:32:46Z</time>
      </trkpt>
      <trkpt lat="48.22429" lon="-3.12254">
        <ele>236</ele>
        <time>2016-02-04T11:32:49Z</time>
      </trkpt>
      <trkpt lat="48.2243" lon="-3.12247">
        <ele>235</ele>
        <time>2016-02-04T11:32:53Z</time>
      </trkpt>
      <trkpt lat="48.22431" lon="-3.12241">
        <ele>235</ele>
        <time>2016-02-04T11:32:56Z</time>
      </trkpt>
      <trkpt lat="48.2243" lon="-3.12236">
        <ele>235</ele>
        <time>2016-02-04T11:32:59Z</time>
      </trkpt>
      <trkpt lat="48.22431" lon="-3.1223">
        <ele>235</ele>
        <time>2016-02-04T11:33:02Z</time>
      </trkpt>
      <trkpt lat="48.22431" lon="-3.12225">
        <ele>235</ele>
        <time>2016-02-04T11:33:05Z</time>
      </trkpt>
      <trkpt lat="48.22432" lon="-3.1222">
        <ele>235</ele>
        <time>2016-02-04T11:33:08Z</time>
      </trkpt>
      <trkpt lat="48.22432" lon="-3.12214">
        <ele>235</ele>
        <time>2016-02-04T11:33:12Z</time>
      </trkpt>
      <trkpt lat="48.22433" lon="-3.1221">
        <ele>234</ele>
        <time>2016-02-04T11:33:16Z</time>
      </trkpt>
      <trkpt lat="48.22433" lon="-3.12206">
        <ele>234</ele>
        <time>2016-02-04T11:33:21Z</time>
      </trkpt>
      <trkpt lat="48.22433" lon="-3.12204">
        <ele>233</ele>
        <time>2016-02-04T11:33:24Z</time>
      </trkpt>
      <trkpt lat="48.22433" lon="-3.12199">
        <ele>232</ele>
        <time>2016-02-04T11:33:28Z</time>
      </trkpt>
      <trkpt lat="48.22435" lon="-3.12194">
        <ele>231</ele>
        <time>2016-02-04T11:33:32Z</time>
      </trkpt>
      <trkpt lat="48.22434" lon="-3.12189">
        <ele>231</ele>
        <time>2016-02-04T11:33:35Z</time>
      </trkpt>
      <trkpt lat="48.22432" lon="-3.12184">
        <ele>231</ele>
        <time>2016-02-04T11:33:38Z</time>
      </trkpt>
      <trkpt lat="48.2243" lon="-3.12178">
        <ele>231</ele>
        <time>2016-02-04T11:33:42Z</time>
      </trkpt>
      <trkpt lat="48.22429" lon="-3.12173">
        <ele>231</ele>
        <time>2016-02-04T11:33:45Z</time>
      </trkpt>
      <trkpt lat="48.2243" lon="-3.12167">
        <ele>231</ele>
        <time>2016-02-04T11:33:49Z</time>
      </trkpt>
      <trkpt lat="48.2243" lon="-3.12163">
        <ele>231</ele>
        <time>2016-02-04T11:33:53Z</time>
      </trkpt>
      <trkpt lat="48.22431" lon="-3.12159">
        <ele>231</ele>
        <time>2016-02-04T11:33:57Z</time>
      </trkpt>
      <trkpt lat="48.22432" lon="-3.12155">
        <ele>231</ele>
        <time>2016-02-04T11:34:02Z</time>
      </trkpt>
      <trkpt lat="48.22431" lon="-3.12153">
        <ele>231</ele>
        <time>2016-02-04T11:34:05Z</time>
      </trkpt>
      <trkpt lat="48.22431" lon="-3.12151">
        <ele>231</ele>
        <time>2016-02-04T11:34:08Z</time>
      </trkpt>
      <trkpt lat="48.22431" lon="-3.12148">
        <ele>231</ele>
        <time>2016-02-04T11:34:11Z</time>
      </trkpt>
      <trkpt lat="48.22432" lon="-3.12143">
        <ele>231</ele>
        <time>2016-02-04T11:34:15Z</time>
      </trkpt>
      <trkpt lat="48.22434" lon="-3.12138">
        <ele>231</ele>
        <time>2016-02-04T11:34:19Z</time>
      </trkpt>
      <trkpt lat="48.22433" lon="-3.12136">
        <ele>231</ele>
        <time>2016-02-04T11:34:22Z</time>
      </trkpt>
      <trkpt lat="48.22435" lon="-3.12134">
        <ele>231</ele>
        <time>2016-02-04T11:34:25Z</time>
      </trkpt>
      <trkpt lat="48.22437" lon="-3.12132">
        <ele>231</ele>
        <time>2016-02-04T11:34:29Z</time>
      </trkpt>
      <trkpt lat="48.22439" lon="-3.12129">
        <ele>231</ele>
        <time>2016-02-04T11:34:33Z</time>
      </trkpt>
      <trkpt lat="48.22439" lon="-3.12124">
        <ele>231</ele>
        <time>2016-02-04T11:34:36Z</time>
      </trkpt>
      <trkpt lat="48.22439" lon="-3.12119">
        <ele>231</ele>
        <time>2016-02-04T11:34:39Z</time>
      </trkpt>
      <trkpt lat="48.22439" lon="-3.12113">
        <ele>231</ele>
        <time>2016-02-04T11:34:42Z</time>
      </trkpt>
      <trkpt lat="48.22439" lon="-3.12108">
        <ele>231</ele>
        <time>2016-02-04T11:34:45Z</time>
      </trkpt>
      <trkpt lat="48.22439" lon="-3.12104">
        <ele>231</ele>
        <time>2016-02-04T11:34:48Z</time>
      </trkpt>
      <trkpt lat="48.22439" lon="-3.12098">
        <ele>231</ele>
        <time>2016-02-04T11:34:51Z</time>
      </trkpt>
      <trkpt lat="48.22438" lon="-3.12092">
        <ele>231</ele>
        <time>2016-02-04T11:34:54Z</time>
      </trkpt>
      <trkpt lat="48.22435" lon="-3.12085">
        <ele>231</ele>
        <time>2016-02-04T11:34:58Z</time>
      </trkpt>
      <trkpt lat="48.22433" lon="-3.1208">
        <ele>231</ele>
        <time>2016-02-04T11:35:02Z</time>
      </trkpt>
      <trkpt lat="48.22432" lon="-3.12075">
        <ele>231</ele>
        <time>2016-02-04T11:35:05Z</time>
      </trkpt>
      <trkpt lat="48.22432" lon="-3.12069">
        <ele>231</ele>
        <time>2016-02-04T11:35:09Z</time>
      </trkpt>
      <trkpt lat="48.22431" lon="-3.12065">
        <ele>231</ele>
        <time>2016-02-04T11:35:12Z</time>
      </trkpt>
      <trkpt lat="48.22431" lon="-3.12059">
        <ele>231</ele>
        <time>2016-02-04T11:35:16Z</time>
      </trkpt>
      <trkpt lat="48.22432" lon="-3.12054">
        <ele>231</ele>
        <time>2016-02-04T11:35:20Z</time>
      </trkpt>
      <trkpt lat="48.22433" lon="-3.1205">
        <ele>231</ele>
        <time>2016-02-04T11:35:24Z</time>
      </trkpt>
      <trkpt lat="48.22433" lon="-3.12045">
        <ele>231</ele>
        <time>2016-02-04T11:35:27Z</time>
      </trkpt>
      <trkpt lat="48.22432" lon="-3.12039">
        <ele>231</ele>
        <time>2016-02-04T11:35:31Z</time>
      </trkpt>
      <trkpt lat="48.22432" lon="-3.12034">
        <ele>231</ele>
        <time>2016-02-04T11:35:34Z</time>
      </trkpt>
      <trkpt lat="48.22431" lon="-3.12029">
        <ele>231</ele>
        <time>2016-02-04T11:35:38Z</time>
      </trkpt>
      <trkpt lat="48.2243" lon="-3.12027">
        <ele>231</ele>
        <time>2016-02-04T11:35:41Z</time>
      </trkpt>
      <trkpt lat="48.22429" lon="-3.12022">
        <ele>231</ele>
        <time>2016-02-04T11:35:45Z</time>
      </trkpt>
      <trkpt lat="48.22427" lon="-3.12018">
        <ele>231</ele>
        <time>2016-02-04T11:35:49Z</time>
      </trkpt>
      <trkpt lat="48.22427" lon="-3.12013">
        <ele>231</ele>
        <time>2016-02-04T11:35:53Z</time>
      </trkpt>
      <trkpt lat="48.22426" lon="-3.12008">
        <ele>231</ele>
        <time>2016-02-04T11:35:58Z</time>
      </trkpt>
      <trkpt lat="48.22425" lon="-3.12006">
        <ele>231</ele>
        <time>2016-02-04T11:36:01Z</time>
      </trkpt>
      <trkpt lat="48.22423" lon="-3.12001">
        <ele>231</ele>
        <time>2016-02-04T11:36:05Z</time>
      </trkpt>
      <trkpt lat="48.22423" lon="-3.11996">
        <ele>230</ele>
        <time>2016-02-04T11:36:09Z</time>
      </trkpt>
      <trkpt lat="48.22423" lon="-3.1199">
        <ele>230</ele>
        <time>2016-02-04T11:36:13Z</time>
      </trkpt>
      <trkpt lat="48.22424" lon="-3.11984">
        <ele>230</ele>
        <time>2016-02-04T11:36:17Z</time>
      </trkpt>
      <trkpt lat="48.22425" lon="-3.1198">
        <ele>229</ele>
        <time>2016-02-04T11:36:21Z</time>
      </trkpt>
      <trkpt lat="48.22426" lon="-3.11974">
        <ele>229</ele>
        <time>2016-02-04T11:36:25Z</time>
      </trkpt>
      <trkpt lat="48.22427" lon="-3.11969">
        <ele>229</ele>
        <time>2016-02-04T11:36:29Z</time>
      </trkpt>
      <trkpt lat="48.22428" lon="-3.11965">
        <ele>228</ele>
        <time>2016-02-04T11:36:33Z</time>
      </trkpt>
      <trkpt lat="48.2243" lon="-3.11961">
        <ele>228</ele>
        <time>2016-02-04T11:36:37Z</time>
      </trkpt>
      <trkpt lat="48.22428" lon="-3.1196">
        <ele>228</ele>
        <time>2016-02-04T11:36:41Z</time>
      </trkpt>
      <trkpt lat="48.22427" lon="-3.11961">
        <ele>227</ele>
        <time>2016-02-04T11:36:44Z</time>
      </trkpt>
      <trkpt lat="48.22426" lon="-3.11962">
        <ele>227</ele>
        <time>2016-02-04T11:36:48Z</time>
      </trkpt>
      <trkpt lat="48.22425" lon="-3.11962">
        <ele>227</ele>
        <time>2016-02-04T11:36:51Z</time>
      </trkpt>
      <trkpt lat="48.22425" lon="-3.1196">
        <ele>227</ele>
        <time>2016-02-04T11:36:55Z</time>
      </trkpt>
      <trkpt lat="48.22423" lon="-3.11958">
        <ele>226</ele>
        <time>2016-02-04T11:37:00Z</time>
      </trkpt>
      <trkpt lat="48.2242" lon="-3.11955">
        <ele>225</ele>
        <time>2016-02-04T11:37:04Z</time>
      </trkpt>
      <trkpt lat="48.22417" lon="-3.11951">
        <ele>223</ele>
        <time>2016-02-04T11:37:08Z</time>
      </trkpt>
      <trkpt lat="48.22414" lon="-3.11948">
        <ele>222</ele>
        <time>2016-02-04T11:37:12Z</time>
      </trkpt>
      <trkpt lat="48.22412" lon="-3.11943">
        <ele>221</ele>
        <time>2016-02-04T11:37:16Z</time>
      </trkpt>
      <trkpt lat="48.22409" lon="-3.11937">
        <ele>221</ele>
        <time>2016-02-04T11:37:20Z</time>
      </trkpt>
      <trkpt lat="48.22408" lon="-3.11933">
        <ele>221</ele>
        <time>2016-02-04T11:37:23Z</time>
      </trkpt>
      <trkpt lat="48.22406" lon="-3.11929">
        <ele>221</ele>
        <time>2016-02-04T11:37:27Z</time>
      </trkpt>
      <trkpt lat="48.22403" lon="-3.11924">
        <ele>221</ele>
        <time>2016-02-04T11:37:31Z</time>
      </trkpt>
      <trkpt lat="48.22403" lon="-3.11919">
        <ele>220</ele>
        <time>2016-02-04T11:37:34Z</time>
      </trkpt>
      <trkpt lat="48.22401" lon="-3.11915">
        <ele>220</ele>
        <time>2016-02-04T11:37:38Z</time>
      </trkpt>
      <trkpt lat="48.224" lon="-3.1191">
        <ele>220</ele>
        <time>2016-02-04T11:37:42Z</time>
      </trkpt>
      <trkpt lat="48.22399" lon="-3.11906">
        <ele>220</ele>
        <time>2016-02-04T11:37:45Z</time>
      </trkpt>
      <trkpt lat="48.224" lon="-3.119">
        <ele>220</ele>
        <time>2016-02-04T11:37:49Z</time>
      </trkpt>
      <trkpt lat="48.22398" lon="-3.11896">
        <ele>220</ele>
        <time>2016-02-04T11:37:53Z</time>
      </trkpt>
      <trkpt lat="48.22399" lon="-3.11892">
        <ele>220</ele>
        <time>2016-02-04T11:37:57Z</time>
      </trkpt>
      <trkpt lat="48.22399" lon="-3.11889">
        <ele>220</ele>
        <time>2016-02-04T11:38:02Z</time>
      </trkpt>
      <trkpt lat="48.224" lon="-3.11884">
        <ele>220</ele>
        <time>2016-02-04T11:38:06Z</time>
      </trkpt>
      <trkpt lat="48.22399" lon="-3.11879">
        <ele>220</ele>
        <time>2016-02-04T11:38:10Z</time>
      </trkpt>
      <trkpt lat="48.22397" lon="-3.11875">
        <ele>220</ele>
        <time>2016-02-04T11:38:15Z</time>
      </trkpt>
      <trkpt lat="48.22396" lon="-3.1187">
        <ele>220</ele>
        <time>2016-02-04T11:38:19Z</time>
      </trkpt>
      <trkpt lat="48.22395" lon="-3.11866">
        <ele>220</ele>
        <time>2016-02-04T11:38:23Z</time>
      </trkpt>
      <trkpt lat="48.22393" lon="-3.11861">
        <ele>220</ele>
        <time>2016-02-04T11:38:27Z</time>
      </trkpt>
      <trkpt lat="48.2239" lon="-3.11856">
        <ele>220</ele>
        <time>2016-02-04T11:38:31Z</time>
      </trkpt>
      <trkpt lat="48.22387" lon="-3.11851">
        <ele>220</ele>
        <time>2016-02-04T11:38:35Z</time>
      </trkpt>
      <trkpt lat="48.22384" lon="-3.11847">
        <ele>220</ele>
        <time>2016-02-04T11:38:39Z</time>
      </trkpt>
      <trkpt lat="48.22381" lon="-3.11843">
        <ele>220</ele>
        <time>2016-02-04T11:38:43Z</time>
      </trkpt>
      <trkpt lat="48.2238" lon="-3.11841">
        <ele>220</ele>
        <time>2016-02-04T11:38:46Z</time>
      </trkpt>
      <trkpt lat="48.22376" lon="-3.11838">
        <ele>220</ele>
        <time>2016-02-04T11:38:50Z</time>
      </trkpt>
      <trkpt lat="48.22372" lon="-3.11832">
        <ele>220</ele>
        <time>2016-02-04T11:38:54Z</time>
      </trkpt>
      <trkpt lat="48.22369" lon="-3.11829">
        <ele>220</ele>
        <time>2016-02-04T11:38:57Z</time>
      </trkpt>
      <trkpt lat="48.22366" lon="-3.11826">
        <ele>219</ele>
        <time>2016-02-04T11:39:00Z</time>
      </trkpt>
      <trkpt lat="48.22362" lon="-3.11824">
        <ele>219</ele>
        <time>2016-02-04T11:39:03Z</time>
      </trkpt>
      <trkpt lat="48.22358" lon="-3.11823">
        <ele>219</ele>
        <time>2016-02-04T11:39:06Z</time>
      </trkpt>
      <trkpt lat="48.22354" lon="-3.1182">
        <ele>219</ele>
        <time>2016-02-04T11:39:10Z</time>
      </trkpt>
      <trkpt lat="48.22351" lon="-3.11819">
        <ele>219</ele>
        <time>2016-02-04T11:39:13Z</time>
      </trkpt>
      <trkpt lat="48.22348" lon="-3.11819">
        <ele>219</ele>
        <time>2016-02-04T11:39:16Z</time>
      </trkpt>
      <trkpt lat="48.22344" lon="-3.11819">
        <ele>219</ele>
        <time>2016-02-04T11:39:20Z</time>
      </trkpt>
      <trkpt lat="48.22341" lon="-3.11817">
        <ele>219</ele>
        <time>2016-02-04T11:39:23Z</time>
      </trkpt>
      <trkpt lat="48.22339" lon="-3.11813">
        <ele>219</ele>
        <time>2016-02-04T11:39:27Z</time>
      </trkpt>
      <trkpt lat="48.22339" lon="-3.11808">
        <ele>219</ele>
        <time>2016-02-04T11:39:31Z</time>
      </trkpt>
      <trkpt lat="48.22337" lon="-3.11804">
        <ele>219</ele>
        <time>2016-02-04T11:39:35Z</time>
      </trkpt>
      <trkpt lat="48.22334" lon="-3.11801">
        <ele>219</ele>
        <time>2016-02-04T11:39:39Z</time>
      </trkpt>
      <trkpt lat="48.22331" lon="-3.118">
        <ele>219</ele>
        <time>2016-02-04T11:39:44Z</time>
      </trkpt>
      <trkpt lat="48.22329" lon="-3.118">
        <ele>219</ele>
        <time>2016-02-04T11:39:47Z</time>
      </trkpt>
      <trkpt lat="48.22328" lon="-3.11801">
        <ele>220</ele>
        <time>2016-02-04T11:39:50Z</time>
      </trkpt>
      <trkpt lat="48.22327" lon="-3.11804">
        <ele>221</ele>
        <time>2016-02-04T11:39:58Z</time>
      </trkpt>
      <trkpt lat="48.22328" lon="-3.11809">
        <ele>222</ele>
        <time>2016-02-04T11:40:02Z</time>
      </trkpt>
      <trkpt lat="48.22329" lon="-3.11812">
        <ele>223</ele>
        <time>2016-02-04T11:40:07Z</time>
      </trkpt>
      <trkpt lat="48.22329" lon="-3.11811">
        <ele>223</ele>
        <time>2016-02-04T11:40:11Z</time>
      </trkpt>
      <trkpt lat="48.22328" lon="-3.11807">
        <ele>223</ele>
        <time>2016-02-04T11:40:15Z</time>
      </trkpt>
      <trkpt lat="48.22327" lon="-3.11803">
        <ele>223</ele>
        <time>2016-02-04T11:40:19Z</time>
      </trkpt>
      <trkpt lat="48.22325" lon="-3.11799">
        <ele>223</ele>
        <time>2016-02-04T11:40:23Z</time>
      </trkpt>
      <trkpt lat="48.22324" lon="-3.11793">
        <ele>223</ele>
        <time>2016-02-04T11:40:27Z</time>
      </trkpt>
      <trkpt lat="48.22323" lon="-3.11789">
        <ele>223</ele>
        <time>2016-02-04T11:40:31Z</time>
      </trkpt>
      <trkpt lat="48.22322" lon="-3.11783">
        <ele>223</ele>
        <time>2016-02-04T11:40:35Z</time>
      </trkpt>
      <trkpt lat="48.22322" lon="-3.11779">
        <ele>223</ele>
        <time>2016-02-04T11:40:39Z</time>
      </trkpt>
      <trkpt lat="48.22321" lon="-3.11772">
        <ele>223</ele>
        <time>2016-02-04T11:40:43Z</time>
      </trkpt>
      <trkpt lat="48.22319" lon="-3.11768">
        <ele>223</ele>
        <time>2016-02-04T11:40:47Z</time>
      </trkpt>
      <trkpt lat="48.22317" lon="-3.11763">
        <ele>223</ele>
        <time>2016-02-04T11:40:51Z</time>
      </trkpt>
      <trkpt lat="48.22316" lon="-3.11758">
        <ele>223</ele>
        <time>2016-02-04T11:40:55Z</time>
      </trkpt>
      <trkpt lat="48.22316" lon="-3.11753">
        <ele>223</ele>
        <time>2016-02-04T11:40:59Z</time>
      </trkpt>
      <trkpt lat="48.22313" lon="-3.1175">
        <ele>223</ele>
        <time>2016-02-04T11:41:03Z</time>
      </trkpt>
      <trkpt lat="48.2231" lon="-3.11744">
        <ele>223</ele>
        <time>2016-02-04T11:41:07Z</time>
      </trkpt>
      <trkpt lat="48.22309" lon="-3.11738">
        <ele>223</ele>
        <time>2016-02-04T11:41:10Z</time>
      </trkpt>
      <trkpt lat="48.22308" lon="-3.11732">
        <ele>223</ele>
        <time>2016-02-04T11:41:14Z</time>
      </trkpt>
      <trkpt lat="48.22306" lon="-3.11726">
        <ele>223</ele>
        <time>2016-02-04T11:41:18Z</time>
      </trkpt>
      <trkpt lat="48.22302" lon="-3.11722">
        <ele>223</ele>
        <time>2016-02-04T11:41:22Z</time>
      </trkpt>
      <trkpt lat="48.22299" lon="-3.11717">
        <ele>223</ele>
        <time>2016-02-04T11:41:26Z</time>
      </trkpt>
      <trkpt lat="48.22295" lon="-3.11712">
        <ele>223</ele>
        <time>2016-02-04T11:41:30Z</time>
      </trkpt>
      <trkpt lat="48.22292" lon="-3.11707">
        <ele>223</ele>
        <time>2016-02-04T11:41:34Z</time>
      </trkpt>
      <trkpt lat="48.22289" lon="-3.11701">
        <ele>223</ele>
        <time>2016-02-04T11:41:38Z</time>
      </trkpt>
      <trkpt lat="48.22286" lon="-3.11697">
        <ele>223</ele>
        <time>2016-02-04T11:41:42Z</time>
      </trkpt>
      <trkpt lat="48.22283" lon="-3.11696">
        <ele>223</ele>
        <time>2016-02-04T11:41:45Z</time>
      </trkpt>
      <trkpt lat="48.2228" lon="-3.11692">
        <ele>222</ele>
        <time>2016-02-04T11:41:49Z</time>
      </trkpt>
      <trkpt lat="48.22279" lon="-3.11687">
        <ele>222</ele>
        <time>2016-02-04T11:41:53Z</time>
      </trkpt>
      <trkpt lat="48.22278" lon="-3.11683">
        <ele>222</ele>
        <time>2016-02-04T11:41:57Z</time>
      </trkpt>
      <trkpt lat="48.22278" lon="-3.11678">
        <ele>222</ele>
        <time>2016-02-04T11:42:01Z</time>
      </trkpt>
      <trkpt lat="48.22279" lon="-3.11671">
        <ele>221</ele>
        <time>2016-02-04T11:42:05Z</time>
      </trkpt>
      <trkpt lat="48.22282" lon="-3.11667">
        <ele>221</ele>
        <time>2016-02-04T11:42:09Z</time>
      </trkpt>
      <trkpt lat="48.22284" lon="-3.11662">
        <ele>221</ele>
        <time>2016-02-04T11:42:13Z</time>
      </trkpt>
      <trkpt lat="48.22287" lon="-3.11656">
        <ele>220</ele>
        <time>2016-02-04T11:42:17Z</time>
      </trkpt>
      <trkpt lat="48.22289" lon="-3.11651">
        <ele>220</ele>
        <time>2016-02-04T11:42:21Z</time>
      </trkpt>
      <trkpt lat="48.22291" lon="-3.11646">
        <ele>219</ele>
        <time>2016-02-04T11:42:25Z</time>
      </trkpt>
      <trkpt lat="48.22292" lon="-3.11641">
        <ele>218</ele>
        <time>2016-02-04T11:42:29Z</time>
      </trkpt>
      <trkpt lat="48.22291" lon="-3.11635">
        <ele>218</ele>
        <time>2016-02-04T11:42:33Z</time>
      </trkpt>
      <trkpt lat="48.2229" lon="-3.1163">
        <ele>217</ele>
        <time>2016-02-04T11:42:37Z</time>
      </trkpt>
      <trkpt lat="48.2229" lon="-3.11625">
        <ele>216</ele>
        <time>2016-02-04T11:42:40Z</time>
      </trkpt>
      <trkpt lat="48.22289" lon="-3.1162">
        <ele>216</ele>
        <time>2016-02-04T11:42:43Z</time>
      </trkpt>
      <trkpt lat="48.22287" lon="-3.11615">
        <ele>215</ele>
        <time>2016-02-04T11:42:46Z</time>
      </trkpt>
      <trkpt lat="48.22286" lon="-3.1161">
        <ele>215</ele>
        <time>2016-02-04T11:42:50Z</time>
      </trkpt>
      <trkpt lat="48.22285" lon="-3.11608">
        <ele>213</ele>
        <time>2016-02-04T11:43:11Z</time>
      </trkpt>
      <trkpt lat="48.22284" lon="-3.11606">
        <ele>212</ele>
        <time>2016-02-04T11:43:41Z</time>
      </trkpt>
      <trkpt lat="48.22285" lon="-3.11604">
        <ele>212</ele>
        <time>2016-02-04T11:43:44Z</time>
      </trkpt>
      <trkpt lat="48.22285" lon="-3.11599">
        <ele>212</ele>
        <time>2016-02-04T11:43:47Z</time>
      </trkpt>
      <trkpt lat="48.22285" lon="-3.11594">
        <ele>212</ele>
        <time>2016-02-04T11:43:50Z</time>
      </trkpt>
      <trkpt lat="48.22283" lon="-3.11589">
        <ele>212</ele>
        <time>2016-02-04T11:43:54Z</time>
      </trkpt>
      <trkpt lat="48.2228" lon="-3.11585">
        <ele>211</ele>
        <time>2016-02-04T11:43:58Z</time>
      </trkpt>
      <trkpt lat="48.22276" lon="-3.11582">
        <ele>209</ele>
        <time>2016-02-04T11:44:02Z</time>
      </trkpt>
      <trkpt lat="48.22272" lon="-3.11579">
        <ele>208</ele>
        <time>2016-02-04T11:44:06Z</time>
      </trkpt>
      <trkpt lat="48.22268" lon="-3.11578">
        <ele>207</ele>
        <time>2016-02-04T11:44:09Z</time>
      </trkpt>
      <trkpt lat="48.22264" lon="-3.11573">
        <ele>205</ele>
        <time>2016-02-04T11:44:13Z</time>
      </trkpt>
      <trkpt lat="48.22261" lon="-3.11568">
        <ele>204</ele>
        <time>2016-02-04T11:44:17Z</time>
      </trkpt>
      <trkpt lat="48.22261" lon="-3.11564">
        <ele>203</ele>
        <time>2016-02-04T11:44:20Z</time>
      </trkpt>
      <trkpt lat="48.2226" lon="-3.11558">
        <ele>203</ele>
        <time>2016-02-04T11:44:23Z</time>
      </trkpt>
      <trkpt lat="48.22261" lon="-3.11551">
        <ele>202</ele>
        <time>2016-02-04T11:44:26Z</time>
      </trkpt>
      <trkpt lat="48.22261" lon="-3.11544">
        <ele>201</ele>
        <time>2016-02-04T11:44:29Z</time>
      </trkpt>
      <trkpt lat="48.22262" lon="-3.11538">
        <ele>201</ele>
        <time>2016-02-04T11:44:32Z</time>
      </trkpt>
      <trkpt lat="48.22264" lon="-3.11531">
        <ele>200</ele>
        <time>2016-02-04T11:44:35Z</time>
      </trkpt>
      <trkpt lat="48.22267" lon="-3.11526">
        <ele>199</ele>
        <time>2016-02-04T11:44:38Z</time>
      </trkpt>
      <trkpt lat="48.22268" lon="-3.11519">
        <ele>198</ele>
        <time>2016-02-04T11:44:41Z</time>
      </trkpt>
      <trkpt lat="48.22269" lon="-3.11514">
        <ele>197</ele>
        <time>2016-02-04T11:44:44Z</time>
      </trkpt>
      <trkpt lat="48.22271" lon="-3.11509">
        <ele>196</ele>
        <time>2016-02-04T11:44:47Z</time>
      </trkpt>
      <trkpt lat="48.22274" lon="-3.11502">
        <ele>196</ele>
        <time>2016-02-04T11:44:51Z</time>
      </trkpt>
      <trkpt lat="48.22275" lon="-3.11495">
        <ele>195</ele>
        <time>2016-02-04T11:44:54Z</time>
      </trkpt>
      <trkpt lat="48.22276" lon="-3.11488">
        <ele>195</ele>
        <time>2016-02-04T11:44:57Z</time>
      </trkpt>
      <trkpt lat="48.22273" lon="-3.11482">
        <ele>194</ele>
        <time>2016-02-04T11:45:00Z</time>
      </trkpt>
      <trkpt lat="48.22269" lon="-3.11482">
        <ele>193</ele>
        <time>2016-02-04T11:45:03Z</time>
      </trkpt>
      <trkpt lat="48.22266" lon="-3.11486">
        <ele>191</ele>
        <time>2016-02-04T11:45:06Z</time>
      </trkpt>
      <trkpt lat="48.22262" lon="-3.11486">
        <ele>190</ele>
        <time>2016-02-04T11:45:09Z</time>
      </trkpt>
      <trkpt lat="48.22259" lon="-3.11481">
        <ele>189</ele>
        <time>2016-02-04T11:45:12Z</time>
      </trkpt>
      <trkpt lat="48.22254" lon="-3.11475">
        <ele>188</ele>
        <time>2016-02-04T11:45:17Z</time>
      </trkpt>
      <trkpt lat="48.22252" lon="-3.11478">
        <ele>187</ele>
        <time>2016-02-04T11:45:20Z</time>
      </trkpt>
      <trkpt lat="48.22251" lon="-3.11484">
        <ele>186</ele>
        <time>2016-02-04T11:45:23Z</time>
      </trkpt>
      <trkpt lat="48.22249" lon="-3.11489">
        <ele>185</ele>
        <time>2016-02-04T11:45:26Z</time>
      </trkpt>
      <trkpt lat="48.22246" lon="-3.11489">
        <ele>184</ele>
        <time>2016-02-04T11:45:30Z</time>
      </trkpt>
      <trkpt lat="48.22243" lon="-3.11491">
        <ele>182</ele>
        <time>2016-02-04T11:45:34Z</time>
      </trkpt>
      <trkpt lat="48.2224" lon="-3.11491">
        <ele>181</ele>
        <time>2016-02-04T11:45:38Z</time>
      </trkpt>
      <trkpt lat="48.22238" lon="-3.11491">
        <ele>179</ele>
        <time>2016-02-04T11:45:43Z</time>
      </trkpt>
      <trkpt lat="48.22236" lon="-3.11492">
        <ele>178</ele>
        <time>2016-02-04T11:45:46Z</time>
      </trkpt>
      <trkpt lat="48.22234" lon="-3.11494">
        <ele>176</ele>
        <time>2016-02-04T11:45:50Z</time>
      </trkpt>
      <trkpt lat="48.22231" lon="-3.11498">
        <ele>174</ele>
        <time>2016-02-04T11:45:54Z</time>
      </trkpt>
      <trkpt lat="48.22228" lon="-3.11503">
        <ele>173</ele>
        <time>2016-02-04T11:45:58Z</time>
      </trkpt>
      <trkpt lat="48.22225" lon="-3.11506">
        <ele>172</ele>
        <time>2016-02-04T11:46:02Z</time>
      </trkpt>
      <trkpt lat="48.22221" lon="-3.1151">
        <ele>172</ele>
        <time>2016-02-04T11:46:06Z</time>
      </trkpt>
      <trkpt lat="48.22219" lon="-3.11513">
        <ele>171</ele>
        <time>2016-02-04T11:46:12Z</time>
      </trkpt>
      <trkpt lat="48.22218" lon="-3.11515">
        <ele>170</ele>
        <time>2016-02-04T11:46:17Z</time>
      </trkpt>
      <trkpt lat="48.22217" lon="-3.11516">
        <ele>169</ele>
        <time>2016-02-04T11:46:22Z</time>
      </trkpt>
      <trkpt lat="48.22216" lon="-3.11517">
        <ele>169</ele>
        <time>2016-02-04T11:46:26Z</time>
      </trkpt>
      <trkpt lat="48.22213" lon="-3.11519">
        <ele>168</ele>
        <time>2016-02-04T11:46:31Z</time>
      </trkpt>
      <trkpt lat="48.22211" lon="-3.11521">
        <ele>168</ele>
        <time>2016-02-04T11:46:34Z</time>
      </trkpt>
      <trkpt lat="48.22208" lon="-3.11523">
        <ele>168</ele>
        <time>2016-02-04T11:46:38Z</time>
      </trkpt>
      <trkpt lat="48.22205" lon="-3.11527">
        <ele>167</ele>
        <time>2016-02-04T11:46:43Z</time>
      </trkpt>
      <trkpt lat="48.22204" lon="-3.11529">
        <ele>167</ele>
        <time>2016-02-04T11:46:47Z</time>
      </trkpt>
      <trkpt lat="48.22202" lon="-3.11533">
        <ele>167</ele>
        <time>2016-02-04T11:46:50Z</time>
      </trkpt>
      <trkpt lat="48.222" lon="-3.11539">
        <ele>167</ele>
        <time>2016-02-04T11:46:53Z</time>
      </trkpt>
      <trkpt lat="48.22198" lon="-3.11544">
        <ele>166</ele>
        <time>2016-02-04T11:46:57Z</time>
      </trkpt>
      <trkpt lat="48.22198" lon="-3.11546">
        <ele>166</ele>
        <time>2016-02-04T11:47:01Z</time>
      </trkpt>
      <trkpt lat="48.22197" lon="-3.1155">
        <ele>166</ele>
        <time>2016-02-04T11:47:05Z</time>
      </trkpt>
      <trkpt lat="48.22195" lon="-3.11555">
        <ele>165</ele>
        <time>2016-02-04T11:47:09Z</time>
      </trkpt>
      <trkpt lat="48.22192" lon="-3.11561">
        <ele>165</ele>
        <time>2016-02-04T11:47:13Z</time>
      </trkpt>
      <trkpt lat="48.2219" lon="-3.11566">
        <ele>164</ele>
        <time>2016-02-04T11:47:17Z</time>
      </trkpt>
      <trkpt lat="48.22189" lon="-3.1157">
        <ele>164</ele>
        <time>2016-02-04T11:47:21Z</time>
      </trkpt>
      <trkpt lat="48.22187" lon="-3.11572">
        <ele>163</ele>
        <time>2016-02-04T11:47:25Z</time>
      </trkpt>
      <trkpt lat="48.22185" lon="-3.11573">
        <ele>162</ele>
        <time>2016-02-04T11:47:28Z</time>
      </trkpt>
      <trkpt lat="48.22185" lon="-3.11576">
        <ele>161</ele>
        <time>2016-02-04T11:47:31Z</time>
      </trkpt>
      <trkpt lat="48.22187" lon="-3.1158">
        <ele>159</ele>
        <time>2016-02-04T11:47:35Z</time>
      </trkpt>
      <trkpt lat="48.22187" lon="-3.11585">
        <ele>159</ele>
        <time>2016-02-04T11:47:39Z</time>
      </trkpt>
      <trkpt lat="48.22187" lon="-3.11591">
        <ele>159</ele>
        <time>2016-02-04T11:47:43Z</time>
      </trkpt>
      <trkpt lat="48.22185" lon="-3.11599">
        <ele>159</ele>
        <time>2016-02-04T11:47:47Z</time>
      </trkpt>
      <trkpt lat="48.22183" lon="-3.11605">
        <ele>159</ele>
        <time>2016-02-04T11:47:50Z</time>
      </trkpt>
      <trkpt lat="48.22182" lon="-3.11612">
        <ele>159</ele>
        <time>2016-02-04T11:47:54Z</time>
      </trkpt>
      <trkpt lat="48.2218" lon="-3.11618">
        <ele>159</ele>
        <time>2016-02-04T11:47:57Z</time>
      </trkpt>
      <trkpt lat="48.22178" lon="-3.11624">
        <ele>159</ele>
        <time>2016-02-04T11:48:00Z</time>
      </trkpt>
      <trkpt lat="48.22178" lon="-3.11631">
        <ele>159</ele>
        <time>2016-02-04T11:48:04Z</time>
      </trkpt>
      <trkpt lat="48.22178" lon="-3.11635">
        <ele>159</ele>
        <time>2016-02-04T11:48:07Z</time>
      </trkpt>
      <trkpt lat="48.22179" lon="-3.11641">
        <ele>159</ele>
        <time>2016-02-04T11:48:11Z</time>
      </trkpt>
      <trkpt lat="48.2218" lon="-3.11647">
        <ele>159</ele>
        <time>2016-02-04T11:48:15Z</time>
      </trkpt>
      <trkpt lat="48.22181" lon="-3.11653">
        <ele>159</ele>
        <time>2016-02-04T11:48:19Z</time>
      </trkpt>
      <trkpt lat="48.22179" lon="-3.11658">
        <ele>159</ele>
        <time>2016-02-04T11:48:23Z</time>
      </trkpt>
      <trkpt lat="48.22176" lon="-3.11663">
        <ele>159</ele>
        <time>2016-02-04T11:48:26Z</time>
      </trkpt>
      <trkpt lat="48.22174" lon="-3.11669">
        <ele>159</ele>
        <time>2016-02-04T11:48:30Z</time>
      </trkpt>
      <trkpt lat="48.22172" lon="-3.11675">
        <ele>159</ele>
        <time>2016-02-04T11:48:33Z</time>
      </trkpt>
      <trkpt lat="48.22172" lon="-3.11681">
        <ele>158</ele>
        <time>2016-02-04T11:48:36Z</time>
      </trkpt>
      <trkpt lat="48.22173" lon="-3.11689">
        <ele>156</ele>
        <time>2016-02-04T11:48:40Z</time>
      </trkpt>
      <trkpt lat="48.22173" lon="-3.11694">
        <ele>156</ele>
        <time>2016-02-04T11:48:43Z</time>
      </trkpt>
      <trkpt lat="48.22173" lon="-3.117">
        <ele>156</ele>
        <time>2016-02-04T11:48:46Z</time>
      </trkpt>
      <trkpt lat="48.22174" lon="-3.11707">
        <ele>156</ele>
        <time>2016-02-04T11:48:50Z</time>
      </trkpt>
      <trkpt lat="48.22174" lon="-3.11712">
        <ele>156</ele>
        <time>2016-02-04T11:48:53Z</time>
      </trkpt>
      <trkpt lat="48.22173" lon="-3.11716">
        <ele>156</ele>
        <time>2016-02-04T11:48:57Z</time>
      </trkpt>
      <trkpt lat="48.2217" lon="-3.1172">
        <ele>154</ele>
        <time>2016-02-04T11:49:02Z</time>
      </trkpt>
      <trkpt lat="48.2217" lon="-3.11727">
        <ele>154</ele>
        <time>2016-02-04T11:49:06Z</time>
      </trkpt>
      <trkpt lat="48.22171" lon="-3.11732">
        <ele>154</ele>
        <time>2016-02-04T11:49:09Z</time>
      </trkpt>
      <trkpt lat="48.22171" lon="-3.11737">
        <ele>154</ele>
        <time>2016-02-04T11:49:12Z</time>
      </trkpt>
      <trkpt lat="48.22172" lon="-3.11742">
        <ele>154</ele>
        <time>2016-02-04T11:49:15Z</time>
      </trkpt>
      <trkpt lat="48.22175" lon="-3.11748">
        <ele>154</ele>
        <time>2016-02-04T11:49:19Z</time>
      </trkpt>
      <trkpt lat="48.22178" lon="-3.11751">
        <ele>154</ele>
        <time>2016-02-04T11:49:23Z</time>
      </trkpt>
      <trkpt lat="48.22179" lon="-3.11756">
        <ele>154</ele>
        <time>2016-02-04T11:49:26Z</time>
      </trkpt>
      <trkpt lat="48.2218" lon="-3.11761">
        <ele>153</ele>
        <time>2016-02-04T11:49:29Z</time>
      </trkpt>
      <trkpt lat="48.22181" lon="-3.11767">
        <ele>153</ele>
        <time>2016-02-04T11:49:32Z</time>
      </trkpt>
      <trkpt lat="48.22183" lon="-3.11773">
        <ele>152</ele>
        <time>2016-02-04T11:49:35Z</time>
      </trkpt>
      <trkpt lat="48.22185" lon="-3.1178">
        <ele>152</ele>
        <time>2016-02-04T11:49:39Z</time>
      </trkpt>
      <trkpt lat="48.22186" lon="-3.11785">
        <ele>152</ele>
        <time>2016-02-04T11:49:42Z</time>
      </trkpt>
      <trkpt lat="48.22186" lon="-3.1179">
        <ele>152</ele>
        <time>2016-02-04T11:49:46Z</time>
      </trkpt>
      <trkpt lat="48.22186" lon="-3.11796">
        <ele>152</ele>
        <time>2016-02-04T11:49:50Z</time>
      </trkpt>
      <trkpt lat="48.22186" lon="-3.11801">
        <ele>151</ele>
        <time>2016-02-04T11:49:53Z</time>
      </trkpt>
      <trkpt lat="48.22187" lon="-3.11807">
        <ele>150</ele>
        <time>2016-02-04T11:49:56Z</time>
      </trkpt>
      <trkpt lat="48.2219" lon="-3.11811">
        <ele>149</ele>
        <time>2016-02-04T11:50:00Z</time>
      </trkpt>
      <trkpt lat="48.22193" lon="-3.11814">
        <ele>149</ele>
        <time>2016-02-04T11:50:03Z</time>
      </trkpt>
      <trkpt lat="48.22196" lon="-3.11818">
        <ele>149</ele>
        <time>2016-02-04T11:50:07Z</time>
      </trkpt>
      <trkpt lat="48.22199" lon="-3.11819">
        <ele>149</ele>
        <time>2016-02-04T11:50:13Z</time>
      </trkpt>
      <trkpt lat="48.222" lon="-3.11819">
        <ele>149</ele>
        <time>2016-02-04T11:50:17Z</time>
      </trkpt>
      <trkpt lat="48.22201" lon="-3.11819">
        <ele>149</ele>
        <time>2016-02-04T11:50:20Z</time>
      </trkpt>
      <trkpt lat="48.22202" lon="-3.11818">
        <ele>149</ele>
        <time>2016-02-04T11:50:25Z</time>
      </trkpt>
      <trkpt lat="48.22203" lon="-3.11819">
        <ele>150</ele>
        <time>2016-02-04T11:50:28Z</time>
      </trkpt>
      <trkpt lat="48.22205" lon="-3.1182">
        <ele>151</ele>
        <time>2016-02-04T11:50:31Z</time>
      </trkpt>
      <trkpt lat="48.22207" lon="-3.11821">
        <ele>151</ele>
        <time>2016-02-04T11:50:35Z</time>
      </trkpt>
      <trkpt lat="48.2221" lon="-3.11826">
        <ele>152</ele>
        <time>2016-02-04T11:50:39Z</time>
      </trkpt>
      <trkpt lat="48.22213" lon="-3.11829">
        <ele>153</ele>
        <time>2016-02-04T11:50:43Z</time>
      </trkpt>
      <trkpt lat="48.22216" lon="-3.11831">
        <ele>155</ele>
        <time>2016-02-04T11:50:47Z</time>
      </trkpt>
      <trkpt lat="48.22218" lon="-3.11834">
        <ele>156</ele>
        <time>2016-02-04T11:50:51Z</time>
      </trkpt>
      <trkpt lat="48.22221" lon="-3.11839">
        <ele>157</ele>
        <time>2016-02-04T11:50:56Z</time>
      </trkpt>
      <trkpt lat="48.22223" lon="-3.11842">
        <ele>158</ele>
        <time>2016-02-04T11:51:00Z</time>
      </trkpt>
      <trkpt lat="48.22223" lon="-3.11847">
        <ele>160</ele>
        <time>2016-02-04T11:51:03Z</time>
      </trkpt>
      <trkpt lat="48.22224" lon="-3.11852">
        <ele>160</ele>
        <time>2016-02-04T11:51:06Z</time>
      </trkpt>
      <trkpt lat="48.22227" lon="-3.11856">
        <ele>160</ele>
        <time>2016-02-04T11:51:10Z</time>
      </trkpt>
      <trkpt lat="48.22228" lon="-3.1186">
        <ele>161</ele>
        <time>2016-02-04T11:51:14Z</time>
      </trkpt>
      <trkpt lat="48.22227" lon="-3.11864">
        <ele>161</ele>
        <time>2016-02-04T11:51:18Z</time>
      </trkpt>
      <trkpt lat="48.22229" lon="-3.11868">
        <ele>161</ele>
        <time>2016-02-04T11:51:22Z</time>
      </trkpt>
      <trkpt lat="48.2223" lon="-3.11873">
        <ele>161</ele>
        <time>2016-02-04T11:51:26Z</time>
      </trkpt>
      <trkpt lat="48.22234" lon="-3.11877">
        <ele>160</ele>
        <time>2016-02-04T11:51:30Z</time>
      </trkpt>
      <trkpt lat="48.22236" lon="-3.11882">
        <ele>160</ele>
        <time>2016-02-04T11:51:34Z</time>
      </trkpt>
      <trkpt lat="48.22237" lon="-3.11887">
        <ele>159</ele>
        <time>2016-02-04T11:51:38Z</time>
      </trkpt>
      <trkpt lat="48.22236" lon="-3.11892">
        <ele>159</ele>
        <time>2016-02-04T11:51:42Z</time>
      </trkpt>
      <trkpt lat="48.22236" lon="-3.11897">
        <ele>157</ele>
        <time>2016-02-04T11:51:46Z</time>
      </trkpt>
      <trkpt lat="48.22239" lon="-3.11902">
        <ele>154</ele>
        <time>2016-02-04T11:51:50Z</time>
      </trkpt>
      <trkpt lat="48.2224" lon="-3.11905">
        <ele>152</ele>
        <time>2016-02-04T11:51:53Z</time>
      </trkpt>
      <trkpt lat="48.22243" lon="-3.11908">
        <ele>149</ele>
        <time>2016-02-04T11:51:57Z</time>
      </trkpt>
      <trkpt lat="48.22245" lon="-3.11911">
        <ele>148</ele>
        <time>2016-02-04T11:52:01Z</time>
      </trkpt>
      <trkpt lat="48.22247" lon="-3.11916">
        <ele>148</ele>
        <time>2016-02-04T11:52:04Z</time>
      </trkpt>
      <trkpt lat="48.22249" lon="-3.11922">
        <ele>148</ele>
        <time>2016-02-04T11:52:08Z</time>
      </trkpt>
      <trkpt lat="48.2225" lon="-3.11927">
        <ele>150</ele>
        <time>2016-02-04T11:52:12Z</time>
      </trkpt>
      <trkpt lat="48.22252" lon="-3.11932">
        <ele>152</ele>
        <time>2016-02-04T11:52:16Z</time>
      </trkpt>
      <trkpt lat="48.22254" lon="-3.11937">
        <ele>153</ele>
        <time>2016-02-04T11:52:19Z</time>
      </trkpt>
      <trkpt lat="48.22258" lon="-3.11941">
        <ele>154</ele>
        <time>2016-02-04T11:52:23Z</time>
      </trkpt>
      <trkpt lat="48.22261" lon="-3.11943">
        <ele>155</ele>
        <time>2016-02-04T11:52:26Z</time>
      </trkpt>
      <trkpt lat="48.22263" lon="-3.11946">
        <ele>155</ele>
        <time>2016-02-04T11:52:30Z</time>
      </trkpt>
      <trkpt lat="48.22266" lon="-3.11952">
        <ele>156</ele>
        <time>2016-02-04T11:52:34Z</time>
      </trkpt>
      <trkpt lat="48.22267" lon="-3.11957">
        <ele>158</ele>
        <time>2016-02-04T11:52:37Z</time>
      </trkpt>
      <trkpt lat="48.22268" lon="-3.11961">
        <ele>159</ele>
        <time>2016-02-04T11:52:40Z</time>
      </trkpt>
      <trkpt lat="48.22268" lon="-3.11968">
        <ele>159</ele>
        <time>2016-02-04T11:52:44Z</time>
      </trkpt>
      <trkpt lat="48.2227" lon="-3.11971">
        <ele>159</ele>
        <time>2016-02-04T11:52:48Z</time>
      </trkpt>
      <trkpt lat="48.22273" lon="-3.11975">
        <ele>159</ele>
        <time>2016-02-04T11:52:52Z</time>
      </trkpt>
      <trkpt lat="48.22276" lon="-3.11979">
        <ele>159</ele>
        <time>2016-02-04T11:52:57Z</time>
      </trkpt>
      <trkpt lat="48.22277" lon="-3.11984">
        <ele>159</ele>
        <time>2016-02-04T11:53:01Z</time>
      </trkpt>
      <trkpt lat="48.22282" lon="-3.1199">
        <ele>159</ele>
        <time>2016-02-04T11:53:05Z</time>
      </trkpt>
      <trkpt lat="48.22282" lon="-3.11995">
        <ele>159</ele>
        <time>2016-02-04T11:53:08Z</time>
      </trkpt>
      <trkpt lat="48.22286" lon="-3.12001">
        <ele>161</ele>
        <time>2016-02-04T11:53:11Z</time>
      </trkpt>
      <trkpt lat="48.22286" lon="-3.12007">
        <ele>162</ele>
        <time>2016-02-04T11:53:14Z</time>
      </trkpt>
      <trkpt lat="48.22285" lon="-3.12014">
        <ele>162</ele>
        <time>2016-02-04T11:53:17Z</time>
      </trkpt>
      <trkpt lat="48.22284" lon="-3.1202">
        <ele>163</ele>
        <time>2016-02-04T11:53:20Z</time>
      </trkpt>
      <trkpt lat="48.22283" lon="-3.12027">
        <ele>165</ele>
        <time>2016-02-04T11:53:23Z</time>
      </trkpt>
      <trkpt lat="48.22284" lon="-3.12033">
        <ele>166</ele>
        <time>2016-02-04T11:53:26Z</time>
      </trkpt>
      <trkpt lat="48.22286" lon="-3.1204">
        <ele>167</ele>
        <time>2016-02-04T11:53:29Z</time>
      </trkpt>
      <trkpt lat="48.22285" lon="-3.12045">
        <ele>167</ele>
        <time>2016-02-04T11:53:32Z</time>
      </trkpt>
      <trkpt lat="48.22284" lon="-3.12051">
        <ele>167</ele>
        <time>2016-02-04T11:53:35Z</time>
      </trkpt>
      <trkpt lat="48.22282" lon="-3.12058">
        <ele>167</ele>
        <time>2016-02-04T11:53:38Z</time>
      </trkpt>
      <trkpt lat="48.22279" lon="-3.12064">
        <ele>167</ele>
        <time>2016-02-04T11:53:41Z</time>
      </trkpt>
      <trkpt lat="48.22278" lon="-3.1207">
        <ele>166</ele>
        <time>2016-02-04T11:53:44Z</time>
      </trkpt>
      <trkpt lat="48.22276" lon="-3.12076">
        <ele>165</ele>
        <time>2016-02-04T11:53:47Z</time>
      </trkpt>
      <trkpt lat="48.22274" lon="-3.12082">
        <ele>165</ele>
        <time>2016-02-04T11:53:50Z</time>
      </trkpt>
      <trkpt lat="48.22271" lon="-3.12089">
        <ele>165</ele>
        <time>2016-02-04T11:53:54Z</time>
      </trkpt>
      <trkpt lat="48.22269" lon="-3.12096">
        <ele>165</ele>
        <time>2016-02-04T11:53:57Z</time>
      </trkpt>
      <trkpt lat="48.22266" lon="-3.12101">
        <ele>165</ele>
        <time>2016-02-04T11:54:00Z</time>
      </trkpt>
      <trkpt lat="48.22265" lon="-3.12105">
        <ele>165</ele>
        <time>2016-02-04T11:54:03Z</time>
      </trkpt>
      <trkpt lat="48.22262" lon="-3.12109">
        <ele>165</ele>
        <time>2016-02-04T11:54:07Z</time>
      </trkpt>
      <trkpt lat="48.22259" lon="-3.12111">
        <ele>164</ele>
        <time>2016-02-04T11:54:11Z</time>
      </trkpt>
      <trkpt lat="48.22256" lon="-3.12114">
        <ele>162</ele>
        <time>2016-02-04T11:54:15Z</time>
      </trkpt>
      <trkpt lat="48.22253" lon="-3.12119">
        <ele>161</ele>
        <time>2016-02-04T11:54:19Z</time>
      </trkpt>
      <trkpt lat="48.2225" lon="-3.12123">
        <ele>159</ele>
        <time>2016-02-04T11:54:23Z</time>
      </trkpt>
      <trkpt lat="48.22246" lon="-3.12129">
        <ele>157</ele>
        <time>2016-02-04T11:54:27Z</time>
      </trkpt>
      <trkpt lat="48.22243" lon="-3.12133">
        <ele>156</ele>
        <time>2016-02-04T11:54:31Z</time>
      </trkpt>
      <trkpt lat="48.2224" lon="-3.12138">
        <ele>153</ele>
        <time>2016-02-04T11:54:35Z</time>
      </trkpt>
      <trkpt lat="48.22238" lon="-3.12142">
        <ele>151</ele>
        <time>2016-02-04T11:54:38Z</time>
      </trkpt>
      <trkpt lat="48.22236" lon="-3.12146">
        <ele>148</ele>
        <time>2016-02-04T11:54:42Z</time>
      </trkpt>
      <trkpt lat="48.22233" lon="-3.12152">
        <ele>145</ele>
        <time>2016-02-04T11:54:47Z</time>
      </trkpt>
      <trkpt lat="48.2223" lon="-3.12157">
        <ele>145</ele>
        <time>2016-02-04T11:54:51Z</time>
      </trkpt>
      <trkpt lat="48.2223" lon="-3.12161">
        <ele>144</ele>
        <time>2016-02-04T11:54:56Z</time>
      </trkpt>
      <trkpt lat="48.22229" lon="-3.12163">
        <ele>143</ele>
        <time>2016-02-04T11:55:00Z</time>
      </trkpt>
      <trkpt lat="48.22229" lon="-3.12165">
        <ele>142</ele>
        <time>2016-02-04T11:55:09Z</time>
      </trkpt>
      <trkpt lat="48.22228" lon="-3.12167">
        <ele>142</ele>
        <time>2016-02-04T11:55:24Z</time>
      </trkpt>
      <trkpt lat="48.22226" lon="-3.12168">
        <ele>145</ele>
        <time>2016-02-04T11:55:34Z</time>
      </trkpt>
      <trkpt lat="48.22227" lon="-3.12166">
        <ele>146</ele>
        <time>2016-02-04T11:55:49Z</time>
      </trkpt>
      <trkpt lat="48.22225" lon="-3.12162">
        <ele>146</ele>
        <time>2016-02-04T11:55:54Z</time>
      </trkpt>
      <trkpt lat="48.22224" lon="-3.1216">
        <ele>146</ele>
        <time>2016-02-04T11:56:04Z</time>
      </trkpt>
      <trkpt lat="48.22223" lon="-3.1216">
        <ele>146</ele>
        <time>2016-02-04T11:56:12Z</time>
      </trkpt>
      <trkpt lat="48.22222" lon="-3.12158">
        <ele>146</ele>
        <time>2016-02-04T11:56:16Z</time>
      </trkpt>
      <trkpt lat="48.22221" lon="-3.12159">
        <ele>146</ele>
        <time>2016-02-04T11:56:23Z</time>
      </trkpt>
      <trkpt lat="48.22219" lon="-3.12159">
        <ele>148</ele>
        <time>2016-02-04T11:56:36Z</time>
      </trkpt>
      <trkpt lat="48.22218" lon="-3.12157">
        <ele>148</ele>
        <time>2016-02-04T11:56:39Z</time>
      </trkpt>
      <trkpt lat="48.22218" lon="-3.12156">
        <ele>148</ele>
        <time>2016-02-04T11:56:43Z</time>
      </trkpt>
      <trkpt lat="48.22218" lon="-3.12154">
        <ele>148</ele>
        <time>2016-02-04T11:56:59Z</time>
      </trkpt>
      <trkpt lat="48.22219" lon="-3.12156">
        <ele>148</ele>
        <time>2016-02-04T11:57:07Z</time>
      </trkpt>
      <trkpt lat="48.22221" lon="-3.12158">
        <ele>147</ele>
        <time>2016-02-04T11:57:10Z</time>
      </trkpt>
      <trkpt lat="48.22221" lon="-3.12162">
        <ele>146</ele>
        <time>2016-02-04T11:57:15Z</time>
      </trkpt>
      <trkpt lat="48.22221" lon="-3.12166">
        <ele>145</ele>
        <time>2016-02-04T11:57:19Z</time>
      </trkpt>
      <trkpt lat="48.2222" lon="-3.12168">
        <ele>144</ele>
        <time>2016-02-04T11:57:22Z</time>
      </trkpt>
      <trkpt lat="48.22219" lon="-3.1217">
        <ele>143</ele>
        <time>2016-02-04T11:57:25Z</time>
      </trkpt>
      <trkpt lat="48.22216" lon="-3.12176">
        <ele>143</ele>
        <time>2016-02-04T11:57:29Z</time>
      </trkpt>
      <trkpt lat="48.22214" lon="-3.12181">
        <ele>143</ele>
        <time>2016-02-04T11:57:32Z</time>
      </trkpt>
      <trkpt lat="48.2221" lon="-3.12187">
        <ele>143</ele>
        <time>2016-02-04T11:57:36Z</time>
      </trkpt>
      <trkpt lat="48.22207" lon="-3.12192">
        <ele>143</ele>
        <time>2016-02-04T11:57:40Z</time>
      </trkpt>
      <trkpt lat="48.22204" lon="-3.12195">
        <ele>143</ele>
        <time>2016-02-04T11:57:44Z</time>
      </trkpt>
      <trkpt lat="48.22203" lon="-3.122">
        <ele>144</ele>
        <time>2016-02-04T11:57:47Z</time>
      </trkpt>
      <trkpt lat="48.22202" lon="-3.12202">
        <ele>145</ele>
        <time>2016-02-04T11:57:50Z</time>
      </trkpt>
      <trkpt lat="48.22199" lon="-3.12206">
        <ele>147</ele>
        <time>2016-02-04T11:57:54Z</time>
      </trkpt>
      <trkpt lat="48.22197" lon="-3.12209">
        <ele>148</ele>
        <time>2016-02-04T11:57:58Z</time>
      </trkpt>
      <trkpt lat="48.22195" lon="-3.12214">
        <ele>149</ele>
        <time>2016-02-04T11:58:02Z</time>
      </trkpt>
      <trkpt lat="48.22194" lon="-3.12219">
        <ele>150</ele>
        <time>2016-02-04T11:58:06Z</time>
      </trkpt>
      <trkpt lat="48.22192" lon="-3.12224">
        <ele>150</ele>
        <time>2016-02-04T11:58:10Z</time>
      </trkpt>
      <trkpt lat="48.22189" lon="-3.12228">
        <ele>150</ele>
        <time>2016-02-04T11:58:15Z</time>
      </trkpt>
      <trkpt lat="48.22187" lon="-3.12231">
        <ele>150</ele>
        <time>2016-02-04T11:58:19Z</time>
      </trkpt>
      <trkpt lat="48.22185" lon="-3.12235">
        <ele>150</ele>
        <time>2016-02-04T11:58:23Z</time>
      </trkpt>
      <trkpt lat="48.22182" lon="-3.12239">
        <ele>150</ele>
        <time>2016-02-04T11:58:27Z</time>
      </trkpt>
      <trkpt lat="48.2218" lon="-3.12241">
        <ele>150</ele>
        <time>2016-02-04T11:58:30Z</time>
      </trkpt>
      <trkpt lat="48.22178" lon="-3.12246">
        <ele>150</ele>
        <time>2016-02-04T11:58:34Z</time>
      </trkpt>
      <trkpt lat="48.22176" lon="-3.1225">
        <ele>150</ele>
        <time>2016-02-04T11:58:37Z</time>
      </trkpt>
      <trkpt lat="48.22175" lon="-3.12252">
        <ele>150</ele>
        <time>2016-02-04T11:58:40Z</time>
      </trkpt>
      <trkpt lat="48.22173" lon="-3.12256">
        <ele>150</ele>
        <time>2016-02-04T11:58:44Z</time>
      </trkpt>
      <trkpt lat="48.22171" lon="-3.12258">
        <ele>151</ele>
        <time>2016-02-04T11:58:48Z</time>
      </trkpt>
      <trkpt lat="48.22169" lon="-3.1226">
        <ele>152</ele>
        <time>2016-02-04T11:58:51Z</time>
      </trkpt>
      <trkpt lat="48.22166" lon="-3.12263">
        <ele>153</ele>
        <time>2016-02-04T11:58:55Z</time>
      </trkpt>
      <trkpt lat="48.22163" lon="-3.12268">
        <ele>153</ele>
        <time>2016-02-04T11:58:58Z</time>
      </trkpt>
      <trkpt lat="48.22161" lon="-3.12273">
        <ele>153</ele>
        <time>2016-02-04T11:59:02Z</time>
      </trkpt>
      <trkpt lat="48.22157" lon="-3.12276">
        <ele>153</ele>
        <time>2016-02-04T11:59:06Z</time>
      </trkpt>
      <trkpt lat="48.22153" lon="-3.12278">
        <ele>153</ele>
        <time>2016-02-04T11:59:09Z</time>
      </trkpt>
      <trkpt lat="48.22152" lon="-3.12283">
        <ele>153</ele>
        <time>2016-02-04T11:59:13Z</time>
      </trkpt>
      <trkpt lat="48.22149" lon="-3.12286">
        <ele>153</ele>
        <time>2016-02-04T11:59:17Z</time>
      </trkpt>
      <trkpt lat="48.22148" lon="-3.12291">
        <ele>153</ele>
        <time>2016-02-04T11:59:21Z</time>
      </trkpt>
      <trkpt lat="48.22146" lon="-3.12295">
        <ele>153</ele>
        <time>2016-02-04T11:59:25Z</time>
      </trkpt>
      <trkpt lat="48.22145" lon="-3.12298">
        <ele>153</ele>
        <time>2016-02-04T11:59:28Z</time>
      </trkpt>
      <trkpt lat="48.22144" lon="-3.12302">
        <ele>153</ele>
        <time>2016-02-04T11:59:32Z</time>
      </trkpt>
      <trkpt lat="48.22143" lon="-3.12306">
        <ele>153</ele>
        <time>2016-02-04T11:59:37Z</time>
      </trkpt>
      <trkpt lat="48.22142" lon="-3.12308">
        <ele>153</ele>
        <time>2016-02-04T11:59:40Z</time>
      </trkpt>
      <trkpt lat="48.22138" lon="-3.12312">
        <ele>153</ele>
        <time>2016-02-04T11:59:44Z</time>
      </trkpt>
      <trkpt lat="48.22135" lon="-3.12316">
        <ele>153</ele>
        <time>2016-02-04T11:59:47Z</time>
      </trkpt>
      <trkpt lat="48.22132" lon="-3.1232">
        <ele>153</ele>
        <time>2016-02-04T11:59:51Z</time>
      </trkpt>
      <trkpt lat="48.22129" lon="-3.12325">
        <ele>153</ele>
        <time>2016-02-04T11:59:56Z</time>
      </trkpt>
      <trkpt lat="48.22124" lon="-3.12328">
        <ele>153</ele>
        <time>2016-02-04T12:00:00Z</time>
      </trkpt>
      <trkpt lat="48.22122" lon="-3.12331">
        <ele>153</ele>
        <time>2016-02-04T12:00:04Z</time>
      </trkpt>
      <trkpt lat="48.22121" lon="-3.12335">
        <ele>153</ele>
        <time>2016-02-04T12:00:08Z</time>
      </trkpt>
      <trkpt lat="48.22119" lon="-3.12338">
        <ele>153</ele>
        <time>2016-02-04T12:00:13Z</time>
      </trkpt>
      <trkpt lat="48.22117" lon="-3.1234">
        <ele>153</ele>
        <time>2016-02-04T12:00:16Z</time>
      </trkpt>
      <trkpt lat="48.22114" lon="-3.12344">
        <ele>154</ele>
        <time>2016-02-04T12:00:20Z</time>
      </trkpt>
      <trkpt lat="48.22113" lon="-3.12349">
        <ele>154</ele>
        <time>2016-02-04T12:00:24Z</time>
      </trkpt>
      <trkpt lat="48.22112" lon="-3.12354">
        <ele>154</ele>
        <time>2016-02-04T12:00:27Z</time>
      </trkpt>
      <trkpt lat="48.22111" lon="-3.12358">
        <ele>154</ele>
        <time>2016-02-04T12:00:31Z</time>
      </trkpt>
      <trkpt lat="48.2211" lon="-3.12364">
        <ele>154</ele>
        <time>2016-02-04T12:00:35Z</time>
      </trkpt>
      <trkpt lat="48.22107" lon="-3.12369">
        <ele>154</ele>
        <time>2016-02-04T12:00:39Z</time>
      </trkpt>
      <trkpt lat="48.22105" lon="-3.12374">
        <ele>154</ele>
        <time>2016-02-04T12:00:43Z</time>
      </trkpt>
      <trkpt lat="48.22099" lon="-3.12375">
        <ele>155</ele>
        <time>2016-02-04T12:00:47Z</time>
      </trkpt>
      <trkpt lat="48.22096" lon="-3.12376">
        <ele>155</ele>
        <time>2016-02-04T12:00:50Z</time>
      </trkpt>
      <trkpt lat="48.22093" lon="-3.12381">
        <ele>155</ele>
        <time>2016-02-04T12:00:54Z</time>
      </trkpt>
      <trkpt lat="48.22091" lon="-3.12384">
        <ele>155</ele>
        <time>2016-02-04T12:00:58Z</time>
      </trkpt>
      <trkpt lat="48.22087" lon="-3.12386">
        <ele>155</ele>
        <time>2016-02-04T12:01:03Z</time>
      </trkpt>
      <trkpt lat="48.22084" lon="-3.12388">
        <ele>157</ele>
        <time>2016-02-04T12:01:07Z</time>
      </trkpt>
      <trkpt lat="48.22081" lon="-3.12389">
        <ele>157</ele>
        <time>2016-02-04T12:01:11Z</time>
      </trkpt>
      <trkpt lat="48.22078" lon="-3.12391">
        <ele>158</ele>
        <time>2016-02-04T12:01:15Z</time>
      </trkpt>
      <trkpt lat="48.22075" lon="-3.12391">
        <ele>158</ele>
        <time>2016-02-04T12:01:18Z</time>
      </trkpt>
      <trkpt lat="48.22071" lon="-3.12393">
        <ele>158</ele>
        <time>2016-02-04T12:01:21Z</time>
      </trkpt>
      <trkpt lat="48.22068" lon="-3.12394">
        <ele>158</ele>
        <time>2016-02-04T12:01:24Z</time>
      </trkpt>
      <trkpt lat="48.22065" lon="-3.12397">
        <ele>158</ele>
        <time>2016-02-04T12:01:28Z</time>
      </trkpt>
      <trkpt lat="48.22063" lon="-3.124">
        <ele>158</ele>
        <time>2016-02-04T12:01:33Z</time>
      </trkpt>
      <trkpt lat="48.22062" lon="-3.12404">
        <ele>158</ele>
        <time>2016-02-04T12:01:37Z</time>
      </trkpt>
      <trkpt lat="48.2206" lon="-3.12407">
        <ele>158</ele>
        <time>2016-02-04T12:01:45Z</time>
      </trkpt>
      <trkpt lat="48.22058" lon="-3.12411">
        <ele>160</ele>
        <time>2016-02-04T12:01:50Z</time>
      </trkpt>
      <trkpt lat="48.22058" lon="-3.12413">
        <ele>160</ele>
        <time>2016-02-04T12:01:54Z</time>
      </trkpt>
      <trkpt lat="48.22056" lon="-3.12417">
        <ele>161</ele>
        <time>2016-02-04T12:01:59Z</time>
      </trkpt>
      <trkpt lat="48.22052" lon="-3.1242">
        <ele>162</ele>
        <time>2016-02-04T12:02:03Z</time>
      </trkpt>
      <trkpt lat="48.22051" lon="-3.12422">
        <ele>164</ele>
        <time>2016-02-04T12:02:07Z</time>
      </trkpt>
      <trkpt lat="48.22051" lon="-3.12424">
        <ele>164</ele>
        <time>2016-02-04T12:02:10Z</time>
      </trkpt>
      <trkpt lat="48.22049" lon="-3.12425">
        <ele>165</ele>
        <time>2016-02-04T12:02:13Z</time>
      </trkpt>
      <trkpt lat="48.22047" lon="-3.12426">
        <ele>167</ele>
        <time>2016-02-04T12:02:19Z</time>
      </trkpt>
      <trkpt lat="48.22044" lon="-3.12428">
        <ele>168</ele>
        <time>2016-02-04T12:02:23Z</time>
      </trkpt>
      <trkpt lat="48.2204" lon="-3.1243">
        <ele>168</ele>
        <time>2016-02-04T12:02:27Z</time>
      </trkpt>
      <trkpt lat="48.22039" lon="-3.12432">
        <ele>169</ele>
        <time>2016-02-04T12:02:30Z</time>
      </trkpt>
      <trkpt lat="48.22037" lon="-3.12433">
        <ele>171</ele>
        <time>2016-02-04T12:02:33Z</time>
      </trkpt>
      <trkpt lat="48.22037" lon="-3.12435">
        <ele>172</ele>
        <time>2016-02-04T12:02:36Z</time>
      </trkpt>
      <trkpt lat="48.22036" lon="-3.12437">
        <ele>172</ele>
        <time>2016-02-04T12:02:39Z</time>
      </trkpt>
      <trkpt lat="48.22035" lon="-3.12439">
        <ele>173</ele>
        <time>2016-02-04T12:02:42Z</time>
      </trkpt>
      <trkpt lat="48.22034" lon="-3.12441">
        <ele>173</ele>
        <time>2016-02-04T12:02:46Z</time>
      </trkpt>
      <trkpt lat="48.22033" lon="-3.12443">
        <ele>173</ele>
        <time>2016-02-04T12:02:49Z</time>
      </trkpt>
      <trkpt lat="48.2203" lon="-3.12445">
        <ele>173</ele>
        <time>2016-02-04T12:02:54Z</time>
      </trkpt>
      <trkpt lat="48.22029" lon="-3.12446">
        <ele>173</ele>
        <time>2016-02-04T12:02:57Z</time>
      </trkpt>
      <trkpt lat="48.22028" lon="-3.12448">
        <ele>174</ele>
        <time>2016-02-04T12:03:00Z</time>
      </trkpt>
      <trkpt lat="48.22028" lon="-3.1245">
        <ele>175</ele>
        <time>2016-02-04T12:03:03Z</time>
      </trkpt>
      <trkpt lat="48.22026" lon="-3.12452">
        <ele>177</ele>
        <time>2016-02-04T12:03:08Z</time>
      </trkpt>
      <trkpt lat="48.22025" lon="-3.12452">
        <ele>178</ele>
        <time>2016-02-04T12:03:16Z</time>
      </trkpt>
      <trkpt lat="48.22025" lon="-3.12453">
        <ele>181</ele>
        <time>2016-02-04T12:03:40Z</time>
      </trkpt>
      <trkpt lat="48.22025" lon="-3.12455">
        <ele>183</ele>
        <time>2016-02-04T12:03:57Z</time>
      </trkpt>
      <trkpt lat="48.22022" lon="-3.12455">
        <ele>184</ele>
        <time>2016-02-04T12:04:04Z</time>
      </trkpt>
      <trkpt lat="48.2202" lon="-3.12452">
        <ele>185</ele>
        <time>2016-02-04T12:04:24Z</time>
      </trkpt>
      <trkpt lat="48.22021" lon="-3.12454">
        <ele>185</ele>
        <time>2016-02-04T12:04:29Z</time>
      </trkpt>
      <trkpt lat="48.22019" lon="-3.12458">
        <ele>185</ele>
        <time>2016-02-04T12:04:33Z</time>
      </trkpt>
      <trkpt lat="48.22018" lon="-3.1246">
        <ele>185</ele>
        <time>2016-02-04T12:04:36Z</time>
      </trkpt>
      <trkpt lat="48.22016" lon="-3.12463">
        <ele>185</ele>
        <time>2016-02-04T12:04:41Z</time>
      </trkpt>
      <trkpt lat="48.22015" lon="-3.12465">
        <ele>185</ele>
        <time>2016-02-04T12:04:44Z</time>
      </trkpt>
      <trkpt lat="48.22014" lon="-3.12468">
        <ele>185</ele>
        <time>2016-02-04T12:04:47Z</time>
      </trkpt>
      <trkpt lat="48.22012" lon="-3.12468">
        <ele>185</ele>
        <time>2016-02-04T12:04:50Z</time>
      </trkpt>
      <trkpt lat="48.2201" lon="-3.12469">
        <ele>183</ele>
        <time>2016-02-04T12:04:54Z</time>
      </trkpt>
      <trkpt lat="48.22006" lon="-3.12472">
        <ele>180</ele>
        <time>2016-02-04T12:04:58Z</time>
      </trkpt>
      <trkpt lat="48.22002" lon="-3.12473">
        <ele>178</ele>
        <time>2016-02-04T12:05:01Z</time>
      </trkpt>
      <trkpt lat="48.21999" lon="-3.12474">
        <ele>176</ele>
        <time>2016-02-04T12:05:05Z</time>
      </trkpt>
      <trkpt lat="48.21995" lon="-3.12476">
        <ele>174</ele>
        <time>2016-02-04T12:05:09Z</time>
      </trkpt>
      <trkpt lat="48.21991" lon="-3.12477">
        <ele>174</ele>
        <time>2016-02-04T12:05:13Z</time>
      </trkpt>
      <trkpt lat="48.21987" lon="-3.12477">
        <ele>174</ele>
        <time>2016-02-04T12:05:17Z</time>
      </trkpt>
      <trkpt lat="48.21984" lon="-3.12477">
        <ele>173</ele>
        <time>2016-02-04T12:05:20Z</time>
      </trkpt>
      <trkpt lat="48.2198" lon="-3.12477">
        <ele>173</ele>
        <time>2016-02-04T12:05:23Z</time>
      </trkpt>
      <trkpt lat="48.21977" lon="-3.12478">
        <ele>172</ele>
        <time>2016-02-04T12:05:26Z</time>
      </trkpt>
      <trkpt lat="48.21973" lon="-3.12479">
        <ele>172</ele>
        <time>2016-02-04T12:05:30Z</time>
      </trkpt>
      <trkpt lat="48.2197" lon="-3.12478">
        <ele>172</ele>
        <time>2016-02-04T12:05:34Z</time>
      </trkpt>
      <trkpt lat="48.21967" lon="-3.12476">
        <ele>172</ele>
        <time>2016-02-04T12:05:38Z</time>
      </trkpt>
      <trkpt lat="48.21962" lon="-3.12477">
        <ele>172</ele>
        <time>2016-02-04T12:05:42Z</time>
      </trkpt>
      <trkpt lat="48.21959" lon="-3.12476">
        <ele>174</ele>
        <time>2016-02-04T12:05:46Z</time>
      </trkpt>
      <trkpt lat="48.21956" lon="-3.12474">
        <ele>175</ele>
        <time>2016-02-04T12:05:49Z</time>
      </trkpt>
      <trkpt lat="48.21952" lon="-3.12474">
        <ele>176</ele>
        <time>2016-02-04T12:05:52Z</time>
      </trkpt>
      <trkpt lat="48.21949" lon="-3.12474">
        <ele>176</ele>
        <time>2016-02-04T12:05:55Z</time>
      </trkpt>
      <trkpt lat="48.21946" lon="-3.12473">
        <ele>177</ele>
        <time>2016-02-04T12:05:58Z</time>
      </trkpt>
      <trkpt lat="48.21945" lon="-3.12472">
        <ele>177</ele>
        <time>2016-02-04T12:06:01Z</time>
      </trkpt>
      <trkpt lat="48.21942" lon="-3.12471">
        <ele>177</ele>
        <time>2016-02-04T12:06:05Z</time>
      </trkpt>
      <trkpt lat="48.21938" lon="-3.12469">
        <ele>177</ele>
        <time>2016-02-04T12:06:09Z</time>
      </trkpt>
      <trkpt lat="48.21935" lon="-3.12467">
        <ele>178</ele>
        <time>2016-02-04T12:06:13Z</time>
      </trkpt>
      <trkpt lat="48.21932" lon="-3.12466">
        <ele>178</ele>
        <time>2016-02-04T12:06:17Z</time>
      </trkpt>
      <trkpt lat="48.21928" lon="-3.12465">
        <ele>178</ele>
        <time>2016-02-04T12:06:21Z</time>
      </trkpt>
      <trkpt lat="48.21925" lon="-3.12463">
        <ele>178</ele>
        <time>2016-02-04T12:06:25Z</time>
      </trkpt>
      <trkpt lat="48.21922" lon="-3.12462">
        <ele>178</ele>
        <time>2016-02-04T12:06:29Z</time>
      </trkpt>
      <trkpt lat="48.21918" lon="-3.12461">
        <ele>178</ele>
        <time>2016-02-04T12:06:34Z</time>
      </trkpt>
      <trkpt lat="48.21915" lon="-3.1246">
        <ele>178</ele>
        <time>2016-02-04T12:06:38Z</time>
      </trkpt>
      <trkpt lat="48.21913" lon="-3.12458">
        <ele>178</ele>
        <time>2016-02-04T12:06:42Z</time>
      </trkpt>
      <trkpt lat="48.2191" lon="-3.12456">
        <ele>176</ele>
        <time>2016-02-04T12:06:46Z</time>
      </trkpt>
      <trkpt lat="48.21907" lon="-3.12455">
        <ele>176</ele>
        <time>2016-02-04T12:06:50Z</time>
      </trkpt>
      <trkpt lat="48.21905" lon="-3.12458">
        <ele>176</ele>
        <time>2016-02-04T12:06:54Z</time>
      </trkpt>
      <trkpt lat="48.21902" lon="-3.12462">
        <ele>175</ele>
        <time>2016-02-04T12:06:58Z</time>
      </trkpt>
      <trkpt lat="48.21899" lon="-3.12468">
        <ele>175</ele>
        <time>2016-02-04T12:07:02Z</time>
      </trkpt>
      <trkpt lat="48.21895" lon="-3.1247">
        <ele>175</ele>
        <time>2016-02-04T12:07:06Z</time>
      </trkpt>
      <trkpt lat="48.21892" lon="-3.12473">
        <ele>174</ele>
        <time>2016-02-04T12:07:10Z</time>
      </trkpt>
      <trkpt lat="48.21888" lon="-3.12475">
        <ele>172</ele>
        <time>2016-02-04T12:07:14Z</time>
      </trkpt>
      <trkpt lat="48.21885" lon="-3.12478">
        <ele>171</ele>
        <time>2016-02-04T12:07:18Z</time>
      </trkpt>
      <trkpt lat="48.21884" lon="-3.1248">
        <ele>169</ele>
        <time>2016-02-04T12:07:21Z</time>
      </trkpt>
      <trkpt lat="48.21881" lon="-3.12485">
        <ele>168</ele>
        <time>2016-02-04T12:07:26Z</time>
      </trkpt>
      <trkpt lat="48.21879" lon="-3.12488">
        <ele>167</ele>
        <time>2016-02-04T12:07:30Z</time>
      </trkpt>
      <trkpt lat="48.21878" lon="-3.12489">
        <ele>167</ele>
        <time>2016-02-04T12:07:33Z</time>
      </trkpt>
      <trkpt lat="48.21875" lon="-3.12489">
        <ele>167</ele>
        <time>2016-02-04T12:07:37Z</time>
      </trkpt>
      <trkpt lat="48.21873" lon="-3.1249">
        <ele>167</ele>
        <time>2016-02-04T12:07:41Z</time>
      </trkpt>
      <trkpt lat="48.21871" lon="-3.1249">
        <ele>167</ele>
        <time>2016-02-04T12:07:44Z</time>
      </trkpt>
      <trkpt lat="48.2187" lon="-3.12491">
        <ele>167</ele>
        <time>2016-02-04T12:07:47Z</time>
      </trkpt>
      <trkpt lat="48.21868" lon="-3.12492">
        <ele>167</ele>
        <time>2016-02-04T12:07:50Z</time>
      </trkpt>
      <trkpt lat="48.21867" lon="-3.12495">
        <ele>167</ele>
        <time>2016-02-04T12:07:53Z</time>
      </trkpt>
      <trkpt lat="48.21865" lon="-3.12496">
        <ele>167</ele>
        <time>2016-02-04T12:07:56Z</time>
      </trkpt>
      <trkpt lat="48.21863" lon="-3.12496">
        <ele>167</ele>
        <time>2016-02-04T12:08:00Z</time>
      </trkpt>
      <trkpt lat="48.2186" lon="-3.12496">
        <ele>167</ele>
        <time>2016-02-04T12:08:07Z</time>
      </trkpt>
      <trkpt lat="48.21857" lon="-3.12496">
        <ele>167</ele>
        <time>2016-02-04T12:08:11Z</time>
      </trkpt>
      <trkpt lat="48.21854" lon="-3.12494">
        <ele>167</ele>
        <time>2016-02-04T12:08:15Z</time>
      </trkpt>
      <trkpt lat="48.21852" lon="-3.1249">
        <ele>167</ele>
        <time>2016-02-04T12:08:19Z</time>
      </trkpt>
      <trkpt lat="48.21852" lon="-3.12485">
        <ele>167</ele>
        <time>2016-02-04T12:08:23Z</time>
      </trkpt>
      <trkpt lat="48.21852" lon="-3.12481">
        <ele>167</ele>
        <time>2016-02-04T12:08:26Z</time>
      </trkpt>
      <trkpt lat="48.21852" lon="-3.12479">
        <ele>167</ele>
        <time>2016-02-04T12:08:30Z</time>
      </trkpt>
      <trkpt lat="48.21852" lon="-3.12477">
        <ele>167</ele>
        <time>2016-02-04T12:08:33Z</time>
      </trkpt>
      <trkpt lat="48.21851" lon="-3.12476">
        <ele>167</ele>
        <time>2016-02-04T12:08:36Z</time>
      </trkpt>
      <trkpt lat="48.2185" lon="-3.12473">
        <ele>167</ele>
        <time>2016-02-04T12:08:39Z</time>
      </trkpt>
      <trkpt lat="48.2185" lon="-3.12469">
        <ele>166</ele>
        <time>2016-02-04T12:08:43Z</time>
      </trkpt>
      <trkpt lat="48.2185" lon="-3.12465">
        <ele>166</ele>
        <time>2016-02-04T12:08:47Z</time>
      </trkpt>
      <trkpt lat="48.21849" lon="-3.12462">
        <ele>165</ele>
        <time>2016-02-04T12:08:51Z</time>
      </trkpt>
      <trkpt lat="48.21848" lon="-3.12458">
        <ele>164</ele>
        <time>2016-02-04T12:08:55Z</time>
      </trkpt>
      <trkpt lat="48.2185" lon="-3.12453">
        <ele>162</ele>
        <time>2016-02-04T12:09:00Z</time>
      </trkpt>
      <trkpt lat="48.2185" lon="-3.12451">
        <ele>161</ele>
        <time>2016-02-04T12:09:03Z</time>
      </trkpt>
      <trkpt lat="48.21849" lon="-3.12449">
        <ele>160</ele>
        <time>2016-02-04T12:09:06Z</time>
      </trkpt>
      <trkpt lat="48.21849" lon="-3.12445">
        <ele>159</ele>
        <time>2016-02-04T12:09:10Z</time>
      </trkpt>
      <trkpt lat="48.21849" lon="-3.12443">
        <ele>158</ele>
        <time>2016-02-04T12:09:14Z</time>
      </trkpt>
      <trkpt lat="48.2185" lon="-3.12439">
        <ele>157</ele>
        <time>2016-02-04T12:09:18Z</time>
      </trkpt>
      <trkpt lat="48.21851" lon="-3.12437">
        <ele>157</ele>
        <time>2016-02-04T12:09:22Z</time>
      </trkpt>
      <trkpt lat="48.21851" lon="-3.12435">
        <ele>156</ele>
        <time>2016-02-04T12:09:25Z</time>
      </trkpt>
      <trkpt lat="48.2185" lon="-3.12433">
        <ele>156</ele>
        <time>2016-02-04T12:09:28Z</time>
      </trkpt>
      <trkpt lat="48.21848" lon="-3.12431">
        <ele>155</ele>
        <time>2016-02-04T12:09:31Z</time>
      </trkpt>
      <trkpt lat="48.21846" lon="-3.12426">
        <ele>154</ele>
        <time>2016-02-04T12:09:35Z</time>
      </trkpt>
      <trkpt lat="48.21845" lon="-3.12421">
        <ele>152</ele>
        <time>2016-02-04T12:09:39Z</time>
      </trkpt>
      <trkpt lat="48.21843" lon="-3.12421">
        <ele>152</ele>
        <time>2016-02-04T12:09:42Z</time>
      </trkpt>
      <trkpt lat="48.21841" lon="-3.12418">
        <ele>152</ele>
        <time>2016-02-04T12:09:47Z</time>
      </trkpt>
      <trkpt lat="48.21838" lon="-3.12415">
        <ele>152</ele>
        <time>2016-02-04T12:09:51Z</time>
      </trkpt>
      <trkpt lat="48.21837" lon="-3.12413">
        <ele>152</ele>
        <time>2016-02-04T12:09:54Z</time>
      </trkpt>
      <trkpt lat="48.21837" lon="-3.12411">
        <ele>152</ele>
        <time>2016-02-04T12:09:58Z</time>
      </trkpt>
      <trkpt lat="48.21835" lon="-3.12408">
        <ele>151</ele>
        <time>2016-02-04T12:10:01Z</time>
      </trkpt>
      <trkpt lat="48.21833" lon="-3.12408">
        <ele>149</ele>
        <time>2016-02-04T12:10:06Z</time>
      </trkpt>
      <trkpt lat="48.21832" lon="-3.12413">
        <ele>148</ele>
        <time>2016-02-04T12:10:10Z</time>
      </trkpt>
      <trkpt lat="48.2183" lon="-3.12418">
        <ele>147</ele>
        <time>2016-02-04T12:10:13Z</time>
      </trkpt>
      <trkpt lat="48.21829" lon="-3.12424">
        <ele>147</ele>
        <time>2016-02-04T12:10:16Z</time>
      </trkpt>
      <trkpt lat="48.21827" lon="-3.12429">
        <ele>147</ele>
        <time>2016-02-04T12:10:19Z</time>
      </trkpt>
      <trkpt lat="48.21826" lon="-3.12434">
        <ele>147</ele>
        <time>2016-02-04T12:10:22Z</time>
      </trkpt>
      <trkpt lat="48.21825" lon="-3.1244">
        <ele>147</ele>
        <time>2016-02-04T12:10:26Z</time>
      </trkpt>
      <trkpt lat="48.21823" lon="-3.12444">
        <ele>147</ele>
        <time>2016-02-04T12:10:29Z</time>
      </trkpt>
      <trkpt lat="48.21822" lon="-3.12449">
        <ele>147</ele>
        <time>2016-02-04T12:10:32Z</time>
      </trkpt>
      <trkpt lat="48.2182" lon="-3.12454">
        <ele>146</ele>
        <time>2016-02-04T12:10:35Z</time>
      </trkpt>
      <trkpt lat="48.21818" lon="-3.1246">
        <ele>146</ele>
        <time>2016-02-04T12:10:38Z</time>
      </trkpt>
      <trkpt lat="48.21814" lon="-3.12468">
        <ele>146</ele>
        <time>2016-02-04T12:10:42Z</time>
      </trkpt>
      <trkpt lat="48.21812" lon="-3.12473">
        <ele>146</ele>
        <time>2016-02-04T12:10:45Z</time>
      </trkpt>
      <trkpt lat="48.2181" lon="-3.12477">
        <ele>146</ele>
        <time>2016-02-04T12:10:49Z</time>
      </trkpt>
      <trkpt lat="48.21807" lon="-3.12483">
        <ele>145</ele>
        <time>2016-02-04T12:10:53Z</time>
      </trkpt>
      <trkpt lat="48.21804" lon="-3.12489">
        <ele>141</ele>
        <time>2016-02-04T12:10:57Z</time>
      </trkpt>
      <trkpt lat="48.21802" lon="-3.12494">
        <ele>139</ele>
        <time>2016-02-04T12:11:00Z</time>
      </trkpt>
      <trkpt lat="48.218" lon="-3.125">
        <ele>138</ele>
        <time>2016-02-04T12:11:03Z</time>
      </trkpt>
      <trkpt lat="48.21796" lon="-3.12506">
        <ele>137</ele>
        <time>2016-02-04T12:11:07Z</time>
      </trkpt>
      <trkpt lat="48.21792" lon="-3.12513">
        <ele>137</ele>
        <time>2016-02-04T12:11:10Z</time>
      </trkpt>
      <trkpt lat="48.21789" lon="-3.12519">
        <ele>138</ele>
        <time>2016-02-04T12:11:14Z</time>
      </trkpt>
      <trkpt lat="48.21786" lon="-3.12525">
        <ele>139</ele>
        <time>2016-02-04T12:11:18Z</time>
      </trkpt>
      <trkpt lat="48.21783" lon="-3.12529">
        <ele>139</ele>
        <time>2016-02-04T12:11:21Z</time>
      </trkpt>
      <trkpt lat="48.2178" lon="-3.12534">
        <ele>139</ele>
        <time>2016-02-04T12:11:24Z</time>
      </trkpt>
      <trkpt lat="48.21778" lon="-3.1254">
        <ele>139</ele>
        <time>2016-02-04T12:11:28Z</time>
      </trkpt>
      <trkpt lat="48.21776" lon="-3.12543">
        <ele>139</ele>
        <time>2016-02-04T12:11:32Z</time>
      </trkpt>
      <trkpt lat="48.21774" lon="-3.12549">
        <ele>139</ele>
        <time>2016-02-04T12:11:35Z</time>
      </trkpt>
      <trkpt lat="48.21772" lon="-3.12553">
        <ele>139</ele>
        <time>2016-02-04T12:11:38Z</time>
      </trkpt>
      <trkpt lat="48.2177" lon="-3.12557">
        <ele>139</ele>
        <time>2016-02-04T12:11:41Z</time>
      </trkpt>
      <trkpt lat="48.21767" lon="-3.12562">
        <ele>139</ele>
        <time>2016-02-04T12:11:45Z</time>
      </trkpt>
      <trkpt lat="48.21764" lon="-3.12567">
        <ele>139</ele>
        <time>2016-02-04T12:11:49Z</time>
      </trkpt>
      <trkpt lat="48.21761" lon="-3.12573">
        <ele>139</ele>
        <time>2016-02-04T12:11:53Z</time>
      </trkpt>
      <trkpt lat="48.21759" lon="-3.12577">
        <ele>139</ele>
        <time>2016-02-04T12:11:56Z</time>
      </trkpt>
      <trkpt lat="48.21755" lon="-3.12584">
        <ele>140</ele>
        <time>2016-02-04T12:11:59Z</time>
      </trkpt>
      <trkpt lat="48.21751" lon="-3.12593">
        <ele>144</ele>
        <time>2016-02-04T12:12:03Z</time>
      </trkpt>
      <trkpt lat="48.21748" lon="-3.12597">
        <ele>144</ele>
        <time>2016-02-04T12:12:06Z</time>
      </trkpt>
      <trkpt lat="48.21745" lon="-3.12601">
        <ele>144</ele>
        <time>2016-02-04T12:12:10Z</time>
      </trkpt>
      <trkpt lat="48.21742" lon="-3.12606">
        <ele>144</ele>
        <time>2016-02-04T12:12:14Z</time>
      </trkpt>
      <trkpt lat="48.21739" lon="-3.1261">
        <ele>142</ele>
        <time>2016-02-04T12:12:19Z</time>
      </trkpt>
      <trkpt lat="48.21737" lon="-3.12615">
        <ele>141</ele>
        <time>2016-02-04T12:12:23Z</time>
      </trkpt>
      <trkpt lat="48.21733" lon="-3.12623">
        <ele>141</ele>
        <time>2016-02-04T12:12:27Z</time>
      </trkpt>
      <trkpt lat="48.21731" lon="-3.12628">
        <ele>141</ele>
        <time>2016-02-04T12:12:30Z</time>
      </trkpt>
      <trkpt lat="48.21728" lon="-3.12635">
        <ele>141</ele>
        <time>2016-02-04T12:12:34Z</time>
      </trkpt>
      <trkpt lat="48.21725" lon="-3.12641">
        <ele>140</ele>
        <time>2016-02-04T12:12:37Z</time>
      </trkpt>
      <trkpt lat="48.21723" lon="-3.12646">
        <ele>139</ele>
        <time>2016-02-04T12:12:40Z</time>
      </trkpt>
      <trkpt lat="48.21721" lon="-3.12652">
        <ele>139</ele>
        <time>2016-02-04T12:12:43Z</time>
      </trkpt>
      <trkpt lat="48.21718" lon="-3.12657">
        <ele>139</ele>
        <time>2016-02-04T12:12:46Z</time>
      </trkpt>
      <trkpt lat="48.21716" lon="-3.12663">
        <ele>139</ele>
        <time>2016-02-04T12:12:49Z</time>
      </trkpt>
      <trkpt lat="48.21713" lon="-3.12669">
        <ele>139</ele>
        <time>2016-02-04T12:12:52Z</time>
      </trkpt>
      <trkpt lat="48.21711" lon="-3.12674">
        <ele>139</ele>
        <time>2016-02-04T12:12:55Z</time>
      </trkpt>
      <trkpt lat="48.2171" lon="-3.1268">
        <ele>139</ele>
        <time>2016-02-04T12:12:58Z</time>
      </trkpt>
      <trkpt lat="48.21707" lon="-3.12686">
        <ele>139</ele>
        <time>2016-02-04T12:13:02Z</time>
      </trkpt>
      <trkpt lat="48.21704" lon="-3.12692">
        <ele>139</ele>
        <time>2016-02-04T12:13:05Z</time>
      </trkpt>
      <trkpt lat="48.21702" lon="-3.12698">
        <ele>139</ele>
        <time>2016-02-04T12:13:08Z</time>
      </trkpt>
      <trkpt lat="48.21701" lon="-3.12702">
        <ele>139</ele>
        <time>2016-02-04T12:13:11Z</time>
      </trkpt>
      <trkpt lat="48.217" lon="-3.12706">
        <ele>139</ele>
        <time>2016-02-04T12:13:15Z</time>
      </trkpt>
      <trkpt lat="48.21698" lon="-3.12711">
        <ele>139</ele>
        <time>2016-02-04T12:13:18Z</time>
      </trkpt>
      <trkpt lat="48.21697" lon="-3.12716">
        <ele>139</ele>
        <time>2016-02-04T12:13:21Z</time>
      </trkpt>
      <trkpt lat="48.21695" lon="-3.12721">
        <ele>139</ele>
        <time>2016-02-04T12:13:24Z</time>
      </trkpt>
      <trkpt lat="48.21693" lon="-3.12726">
        <ele>138</ele>
        <time>2016-02-04T12:13:27Z</time>
      </trkpt>
      <trkpt lat="48.21691" lon="-3.12732">
        <ele>137</ele>
        <time>2016-02-04T12:13:31Z</time>
      </trkpt>
      <trkpt lat="48.21689" lon="-3.12738">
        <ele>134</ele>
        <time>2016-02-04T12:13:35Z</time>
      </trkpt>
      <trkpt lat="48.21687" lon="-3.12743">
        <ele>133</ele>
        <time>2016-02-04T12:13:38Z</time>
      </trkpt>
      <trkpt lat="48.21685" lon="-3.12751">
        <ele>132</ele>
        <time>2016-02-04T12:13:41Z</time>
      </trkpt>
      <trkpt lat="48.21682" lon="-3.12755">
        <ele>132</ele>
        <time>2016-02-04T12:13:44Z</time>
      </trkpt>
      <trkpt lat="48.21681" lon="-3.1276">
        <ele>132</ele>
        <time>2016-02-04T12:13:47Z</time>
      </trkpt>
      <trkpt lat="48.21679" lon="-3.12767">
        <ele>132</ele>
        <time>2016-02-04T12:13:50Z</time>
      </trkpt>
      <trkpt lat="48.21678" lon="-3.12772">
        <ele>132</ele>
        <time>2016-02-04T12:13:53Z</time>
      </trkpt>
      <trkpt lat="48.21676" lon="-3.12778">
        <ele>132</ele>
        <time>2016-02-04T12:13:57Z</time>
      </trkpt>
      <trkpt lat="48.21674" lon="-3.12783">
        <ele>132</ele>
        <time>2016-02-04T12:14:00Z</time>
      </trkpt>
      <trkpt lat="48.21672" lon="-3.12789">
        <ele>132</ele>
        <time>2016-02-04T12:14:04Z</time>
      </trkpt>
      <trkpt lat="48.21669" lon="-3.12794">
        <ele>132</ele>
        <time>2016-02-04T12:14:09Z</time>
      </trkpt>
      <trkpt lat="48.21667" lon="-3.12799">
        <ele>132</ele>
        <time>2016-02-04T12:14:13Z</time>
      </trkpt>
      <trkpt lat="48.21663" lon="-3.12802">
        <ele>132</ele>
        <time>2016-02-04T12:14:17Z</time>
      </trkpt>
      <trkpt lat="48.2166" lon="-3.12807">
        <ele>132</ele>
        <time>2016-02-04T12:14:21Z</time>
      </trkpt>
      <trkpt lat="48.21656" lon="-3.12813">
        <ele>132</ele>
        <time>2016-02-04T12:14:25Z</time>
      </trkpt>
      <trkpt lat="48.21653" lon="-3.12818">
        <ele>132</ele>
        <time>2016-02-04T12:14:28Z</time>
      </trkpt>
      <trkpt lat="48.21648" lon="-3.12826">
        <ele>132</ele>
        <time>2016-02-04T12:14:32Z</time>
      </trkpt>
      <trkpt lat="48.21645" lon="-3.12831">
        <ele>132</ele>
        <time>2016-02-04T12:14:35Z</time>
      </trkpt>
      <trkpt lat="48.21642" lon="-3.12836">
        <ele>132</ele>
        <time>2016-02-04T12:14:38Z</time>
      </trkpt>
      <trkpt lat="48.21639" lon="-3.12841">
        <ele>132</ele>
        <time>2016-02-04T12:14:42Z</time>
      </trkpt>
      <trkpt lat="48.21635" lon="-3.12846">
        <ele>132</ele>
        <time>2016-02-04T12:14:46Z</time>
      </trkpt>
      <trkpt lat="48.21632" lon="-3.12852">
        <ele>132</ele>
        <time>2016-02-04T12:14:50Z</time>
      </trkpt>
      <trkpt lat="48.21628" lon="-3.12857">
        <ele>132</ele>
        <time>2016-02-04T12:14:54Z</time>
      </trkpt>
      <trkpt lat="48.21626" lon="-3.1286">
        <ele>132</ele>
        <time>2016-02-04T12:14:57Z</time>
      </trkpt>
      <trkpt lat="48.21622" lon="-3.12865">
        <ele>133</ele>
        <time>2016-02-04T12:15:01Z</time>
      </trkpt>
      <trkpt lat="48.21619" lon="-3.12871">
        <ele>135</ele>
        <time>2016-02-04T12:15:05Z</time>
      </trkpt>
      <trkpt lat="48.21616" lon="-3.12875">
        <ele>135</ele>
        <time>2016-02-04T12:15:09Z</time>
      </trkpt>
      <trkpt lat="48.21611" lon="-3.12879">
        <ele>135</ele>
        <time>2016-02-04T12:15:13Z</time>
      </trkpt>
      <trkpt lat="48.2161" lon="-3.12879">
        <ele>135</ele>
        <time>2016-02-04T12:15:20Z</time>
      </trkpt>
      <trkpt lat="48.21609" lon="-3.12881">
        <ele>136</ele>
        <time>2016-02-04T12:15:23Z</time>
      </trkpt>
      <trkpt lat="48.21607" lon="-3.12883">
        <ele>137</ele>
        <time>2016-02-04T12:15:26Z</time>
      </trkpt>
      <trkpt lat="48.21606" lon="-3.12883">
        <ele>138</ele>
        <time>2016-02-04T12:15:32Z</time>
      </trkpt>
      <trkpt lat="48.21605" lon="-3.12883">
        <ele>139</ele>
        <time>2016-02-04T12:15:42Z</time>
      </trkpt>
      <trkpt lat="48.21603" lon="-3.12884">
        <ele>140</ele>
        <time>2016-02-04T12:15:47Z</time>
      </trkpt>
      <trkpt lat="48.21603" lon="-3.12878">
        <ele>142</ele>
        <time>2016-02-04T12:15:51Z</time>
      </trkpt>
      <trkpt lat="48.21603" lon="-3.12872">
        <ele>142</ele>
        <time>2016-02-04T12:15:54Z</time>
      </trkpt>
      <trkpt lat="48.21604" lon="-3.12866">
        <ele>142</ele>
        <time>2016-02-04T12:15:57Z</time>
      </trkpt>
      <trkpt lat="48.21605" lon="-3.1286">
        <ele>142</ele>
        <time>2016-02-04T12:16:00Z</time>
      </trkpt>
      <trkpt lat="48.21605" lon="-3.12855">
        <ele>142</ele>
        <time>2016-02-04T12:16:03Z</time>
      </trkpt>
      <trkpt lat="48.21606" lon="-3.1285">
        <ele>142</ele>
        <time>2016-02-04T12:16:06Z</time>
      </trkpt>
      <trkpt lat="48.21606" lon="-3.12844">
        <ele>142</ele>
        <time>2016-02-04T12:16:09Z</time>
      </trkpt>
      <trkpt lat="48.21607" lon="-3.1284">
        <ele>142</ele>
        <time>2016-02-04T12:16:12Z</time>
      </trkpt>
      <trkpt lat="48.21607" lon="-3.12833">
        <ele>142</ele>
        <time>2016-02-04T12:16:16Z</time>
      </trkpt>
      <trkpt lat="48.21607" lon="-3.12828">
        <ele>141</ele>
        <time>2016-02-04T12:16:19Z</time>
      </trkpt>
      <trkpt lat="48.21606" lon="-3.12822">
        <ele>141</ele>
        <time>2016-02-04T12:16:22Z</time>
      </trkpt>
      <trkpt lat="48.21604" lon="-3.12817">
        <ele>140</ele>
        <time>2016-02-04T12:16:25Z</time>
      </trkpt>
      <trkpt lat="48.21602" lon="-3.12812">
        <ele>139</ele>
        <time>2016-02-04T12:16:28Z</time>
      </trkpt>
      <trkpt lat="48.21599" lon="-3.12807">
        <ele>138</ele>
        <time>2016-02-04T12:16:32Z</time>
      </trkpt>
      <trkpt lat="48.21595" lon="-3.12804">
        <ele>137</ele>
        <time>2016-02-04T12:16:35Z</time>
      </trkpt>
      <trkpt lat="48.21592" lon="-3.12802">
        <ele>137</ele>
        <time>2016-02-04T12:16:38Z</time>
      </trkpt>
      <trkpt lat="48.21588" lon="-3.128">
        <ele>137</ele>
        <time>2016-02-04T12:16:41Z</time>
      </trkpt>
      <trkpt lat="48.21584" lon="-3.12799">
        <ele>137</ele>
        <time>2016-02-04T12:16:44Z</time>
      </trkpt>
      <trkpt lat="48.2158" lon="-3.12797">
        <ele>137</ele>
        <time>2016-02-04T12:16:47Z</time>
      </trkpt>
      <trkpt lat="48.21576" lon="-3.12797">
        <ele>136</ele>
        <time>2016-02-04T12:16:50Z</time>
      </trkpt>
      <trkpt lat="48.21571" lon="-3.12797">
        <ele>136</ele>
        <time>2016-02-04T12:16:53Z</time>
      </trkpt>
      <trkpt lat="48.21566" lon="-3.12798">
        <ele>136</ele>
        <time>2016-02-04T12:16:56Z</time>
      </trkpt>
      <trkpt lat="48.21562" lon="-3.12797">
        <ele>136</ele>
        <time>2016-02-04T12:16:59Z</time>
      </trkpt>
      <trkpt lat="48.21558" lon="-3.12797">
        <ele>136</ele>
        <time>2016-02-04T12:17:02Z</time>
      </trkpt>
      <trkpt lat="48.21553" lon="-3.12797">
        <ele>135</ele>
        <time>2016-02-04T12:17:05Z</time>
      </trkpt>
      <trkpt lat="48.2155" lon="-3.12797">
        <ele>134</ele>
        <time>2016-02-04T12:17:08Z</time>
      </trkpt>
      <trkpt lat="48.21546" lon="-3.12796">
        <ele>134</ele>
        <time>2016-02-04T12:17:11Z</time>
      </trkpt>
      <trkpt lat="48.21542" lon="-3.12797">
        <ele>134</ele>
        <time>2016-02-04T12:17:14Z</time>
      </trkpt>
      <trkpt lat="48.21538" lon="-3.12797">
        <ele>134</ele>
        <time>2016-02-04T12:17:17Z</time>
      </trkpt>
      <trkpt lat="48.21534" lon="-3.12796">
        <ele>134</ele>
        <time>2016-02-04T12:17:20Z</time>
      </trkpt>
      <trkpt lat="48.21529" lon="-3.12797">
        <ele>134</ele>
        <time>2016-02-04T12:17:23Z</time>
      </trkpt>
      <trkpt lat="48.21526" lon="-3.12797">
        <ele>134</ele>
        <time>2016-02-04T12:17:26Z</time>
      </trkpt>
      <trkpt lat="48.21521" lon="-3.12797">
        <ele>134</ele>
        <time>2016-02-04T12:17:29Z</time>
      </trkpt>
      <trkpt lat="48.21517" lon="-3.12797">
        <ele>134</ele>
        <time>2016-02-04T12:17:32Z</time>
      </trkpt>
      <trkpt lat="48.21513" lon="-3.12796">
        <ele>134</ele>
        <time>2016-02-04T12:17:35Z</time>
      </trkpt>
      <trkpt lat="48.21509" lon="-3.12795">
        <ele>133</ele>
        <time>2016-02-04T12:17:38Z</time>
      </trkpt>
      <trkpt lat="48.21505" lon="-3.12796">
        <ele>133</ele>
        <time>2016-02-04T12:17:41Z</time>
      </trkpt>
      <trkpt lat="48.21502" lon="-3.12797">
        <ele>132</ele>
        <time>2016-02-04T12:17:44Z</time>
      </trkpt>
      <trkpt lat="48.21497" lon="-3.12798">
        <ele>132</ele>
        <time>2016-02-04T12:17:47Z</time>
      </trkpt>
      <trkpt lat="48.21494" lon="-3.12799">
        <ele>132</ele>
        <time>2016-02-04T12:17:50Z</time>
      </trkpt>
      <trkpt lat="48.21491" lon="-3.12799">
        <ele>132</ele>
        <time>2016-02-04T12:17:53Z</time>
      </trkpt>
      <trkpt lat="48.21487" lon="-3.12798">
        <ele>132</ele>
        <time>2016-02-04T12:17:56Z</time>
      </trkpt>
      <trkpt lat="48.21484" lon="-3.12798">
        <ele>132</ele>
        <time>2016-02-04T12:17:59Z</time>
      </trkpt>
      <trkpt lat="48.21479" lon="-3.12798">
        <ele>132</ele>
        <time>2016-02-04T12:18:03Z</time>
      </trkpt>
      <trkpt lat="48.21476" lon="-3.12797">
        <ele>132</ele>
        <time>2016-02-04T12:18:06Z</time>
      </trkpt>
      <trkpt lat="48.21473" lon="-3.12798">
        <ele>132</ele>
        <time>2016-02-04T12:18:09Z</time>
      </trkpt>
      <trkpt lat="48.21469" lon="-3.12797">
        <ele>132</ele>
        <time>2016-02-04T12:18:12Z</time>
      </trkpt>
      <trkpt lat="48.21465" lon="-3.12799">
        <ele>132</ele>
        <time>2016-02-04T12:18:16Z</time>
      </trkpt>
      <trkpt lat="48.21461" lon="-3.12799">
        <ele>132</ele>
        <time>2016-02-04T12:18:19Z</time>
      </trkpt>
      <trkpt lat="48.21457" lon="-3.12799">
        <ele>132</ele>
        <time>2016-02-04T12:18:22Z</time>
      </trkpt>
      <trkpt lat="48.21453" lon="-3.12799">
        <ele>132</ele>
        <time>2016-02-04T12:18:25Z</time>
      </trkpt>
      <trkpt lat="48.21449" lon="-3.12799">
        <ele>132</ele>
        <time>2016-02-04T12:18:29Z</time>
      </trkpt>
      <trkpt lat="48.21444" lon="-3.12799">
        <ele>132</ele>
        <time>2016-02-04T12:18:32Z</time>
      </trkpt>
      <trkpt lat="48.2144" lon="-3.12801">
        <ele>132</ele>
        <time>2016-02-04T12:18:35Z</time>
      </trkpt>
      <trkpt lat="48.21436" lon="-3.12801">
        <ele>132</ele>
        <time>2016-02-04T12:18:39Z</time>
      </trkpt>
      <trkpt lat="48.21432" lon="-3.12799">
        <ele>132</ele>
        <time>2016-02-04T12:18:43Z</time>
      </trkpt>
      <trkpt lat="48.21429" lon="-3.12798">
        <ele>132</ele>
        <time>2016-02-04T12:18:46Z</time>
      </trkpt>
      <trkpt lat="48.21424" lon="-3.128">
        <ele>132</ele>
        <time>2016-02-04T12:18:49Z</time>
      </trkpt>
      <trkpt lat="48.2142" lon="-3.12803">
        <ele>132</ele>
        <time>2016-02-04T12:18:52Z</time>
      </trkpt>
      <trkpt lat="48.21416" lon="-3.12807">
        <ele>132</ele>
        <time>2016-02-04T12:18:55Z</time>
      </trkpt>
      <trkpt lat="48.21412" lon="-3.12807">
        <ele>132</ele>
        <time>2016-02-04T12:18:58Z</time>
      </trkpt>
      <trkpt lat="48.21407" lon="-3.12808">
        <ele>132</ele>
        <time>2016-02-04T12:19:01Z</time>
      </trkpt>
      <trkpt lat="48.21404" lon="-3.12808">
        <ele>132</ele>
        <time>2016-02-04T12:19:05Z</time>
      </trkpt>
      <trkpt lat="48.21398" lon="-3.12809">
        <ele>132</ele>
        <time>2016-02-04T12:19:09Z</time>
      </trkpt>
      <trkpt lat="48.21395" lon="-3.12807">
        <ele>132</ele>
        <time>2016-02-04T12:19:13Z</time>
      </trkpt>
      <trkpt lat="48.21394" lon="-3.12807">
        <ele>132</ele>
        <time>2016-02-04T12:19:16Z</time>
      </trkpt>
      <trkpt lat="48.2139" lon="-3.12808">
        <ele>131</ele>
        <time>2016-02-04T12:19:19Z</time>
      </trkpt>
      <trkpt lat="48.21386" lon="-3.12811">
        <ele>131</ele>
        <time>2016-02-04T12:19:22Z</time>
      </trkpt>
      <trkpt lat="48.21381" lon="-3.12813">
        <ele>131</ele>
        <time>2016-02-04T12:19:25Z</time>
      </trkpt>
      <trkpt lat="48.21377" lon="-3.12817">
        <ele>131</ele>
        <time>2016-02-04T12:19:28Z</time>
      </trkpt>
      <trkpt lat="48.21372" lon="-3.12821">
        <ele>133</ele>
        <time>2016-02-04T12:19:31Z</time>
      </trkpt>
      <trkpt lat="48.21368" lon="-3.12823">
        <ele>136</ele>
        <time>2016-02-04T12:19:34Z</time>
      </trkpt>
      <trkpt lat="48.21364" lon="-3.12825">
        <ele>137</ele>
        <time>2016-02-04T12:19:37Z</time>
      </trkpt>
      <trkpt lat="48.21361" lon="-3.12827">
        <ele>137</ele>
        <time>2016-02-04T12:19:40Z</time>
      </trkpt>
      <trkpt lat="48.21357" lon="-3.12829">
        <ele>137</ele>
        <time>2016-02-04T12:19:43Z</time>
      </trkpt>
      <trkpt lat="48.21354" lon="-3.1283">
        <ele>137</ele>
        <time>2016-02-04T12:19:46Z</time>
      </trkpt>
      <trkpt lat="48.2135" lon="-3.12832">
        <ele>137</ele>
        <time>2016-02-04T12:19:49Z</time>
      </trkpt>
      <trkpt lat="48.21346" lon="-3.12836">
        <ele>137</ele>
        <time>2016-02-04T12:19:53Z</time>
      </trkpt>
      <trkpt lat="48.21343" lon="-3.1284">
        <ele>137</ele>
        <time>2016-02-04T12:19:56Z</time>
      </trkpt>
      <trkpt lat="48.21339" lon="-3.12844">
        <ele>137</ele>
        <time>2016-02-04T12:20:00Z</time>
      </trkpt>
      <trkpt lat="48.21336" lon="-3.12848">
        <ele>137</ele>
        <time>2016-02-04T12:20:03Z</time>
      </trkpt>
      <trkpt lat="48.21333" lon="-3.1285">
        <ele>137</ele>
        <time>2016-02-04T12:20:06Z</time>
      </trkpt>
      <trkpt lat="48.21328" lon="-3.12855">
        <ele>137</ele>
        <time>2016-02-04T12:20:10Z</time>
      </trkpt>
      <trkpt lat="48.21324" lon="-3.12859">
        <ele>137</ele>
        <time>2016-02-04T12:20:14Z</time>
      </trkpt>
      <trkpt lat="48.21321" lon="-3.1286">
        <ele>136</ele>
        <time>2016-02-04T12:20:18Z</time>
      </trkpt>
      <trkpt lat="48.21321" lon="-3.12855">
        <ele>136</ele>
        <time>2016-02-04T12:20:21Z</time>
      </trkpt>
      <trkpt lat="48.2132" lon="-3.1285">
        <ele>136</ele>
        <time>2016-02-04T12:20:25Z</time>
      </trkpt>
      <trkpt lat="48.21318" lon="-3.12845">
        <ele>135</ele>
        <time>2016-02-04T12:20:28Z</time>
      </trkpt>
      <trkpt lat="48.21317" lon="-3.12839">
        <ele>134</ele>
        <time>2016-02-04T12:20:31Z</time>
      </trkpt>
      <trkpt lat="48.21319" lon="-3.12833">
        <ele>133</ele>
        <time>2016-02-04T12:20:35Z</time>
      </trkpt>
      <trkpt lat="48.21321" lon="-3.1283">
        <ele>133</ele>
        <time>2016-02-04T12:20:40Z</time>
      </trkpt>
      <trkpt lat="48.21323" lon="-3.1283">
        <ele>133</ele>
        <time>2016-02-04T12:20:43Z</time>
      </trkpt>
    </trkseg>
  </trk>
</gpx>